<?xml version="1.0" encoding="UTF-8" standalone="no" ?>
<gpx xmlns="http://www.topografix.com/GPX/1/1" xmlns:xsi="http://www.w3.org/2001/XMLSchema-instance" xsi:schemaLocation="http://www.topografix.com/GPX/1/1 http://www.topografix.com/GPX/1/1/gpx.xsd" version="1.1" creator="VisuGPX - https://www.visugpx.com">
  <metadata>
    <name>Wohlensee</name>
  </metadata>
  <trk>
    <name><![CDATA[Wohlensee]]></name>
    <extensions>
      <line xmlns="http://www.topografix.com/GPX/gpx_style/0/2">
        <color>0000FF</color>
        <width>4</width>
      </line>
    </extensions>
    <trkseg>
      <trkpt lat="46.97006" lon="7.28413">
        <ele>468.69999694824</ele>
        <time>2022-03-19T09:15:00.000Z</time>
      </trkpt>
      <trkpt lat="46.97005" lon="7.28413">
        <ele>468.69999694824</ele>
        <time>2022-03-19T09:15:00.923Z</time>
      </trkpt>
      <trkpt lat="46.97001" lon="7.2841">
        <ele>468.79998779297</ele>
        <time>2022-03-19T09:15:06.132Z</time>
      </trkpt>
      <trkpt lat="46.96989" lon="7.28404">
        <ele>469.29998779297</ele>
        <time>2022-03-19T09:15:24.452Z</time>
      </trkpt>
      <trkpt lat="46.96974" lon="7.28398">
        <ele>469.59999084473</ele>
        <time>2022-03-19T09:15:41.883Z</time>
      </trkpt>
      <trkpt lat="46.96971" lon="7.28397">
        <ele>469.69999694824</ele>
        <time>2022-03-19T09:15:45.927Z</time>
      </trkpt>
      <trkpt lat="46.96969" lon="7.28395">
        <ele>469.79998779297</ele>
        <time>2022-03-19T09:15:49.521Z</time>
      </trkpt>
      <trkpt lat="46.96967" lon="7.28392">
        <ele>469.89999389648</ele>
        <time>2022-03-19T09:15:53.406Z</time>
      </trkpt>
      <trkpt lat="46.96966" lon="7.28389">
        <ele>470</ele>
        <time>2022-03-19T09:15:56.923Z</time>
      </trkpt>
      <trkpt lat="46.96959" lon="7.28372">
        <ele>470.29998779297</ele>
        <time>2022-03-19T09:16:12.609Z</time>
      </trkpt>
      <trkpt lat="46.96955" lon="7.28364">
        <ele>470.29998779297</ele>
        <time>2022-03-19T09:16:18.856Z</time>
      </trkpt>
      <trkpt lat="46.96952" lon="7.28361">
        <ele>470.39999389648</ele>
        <time>2022-03-19T09:16:23.339Z</time>
      </trkpt>
      <trkpt lat="46.9695" lon="7.28359">
        <ele>470.39999389648</ele>
        <time>2022-03-19T09:16:25.573Z</time>
      </trkpt>
      <trkpt lat="46.96948" lon="7.28358">
        <ele>470.29998779297</ele>
        <time>2022-03-19T09:16:26.052Z</time>
      </trkpt>
      <trkpt lat="46.96947" lon="7.28342">
        <ele>470.79998779297</ele>
        <time>2022-03-19T09:16:43.250Z</time>
      </trkpt>
      <trkpt lat="46.96945" lon="7.28334">
        <ele>473.59999084473</ele>
        <time>2022-03-19T09:17:03.948Z</time>
      </trkpt>
      <trkpt lat="46.96941" lon="7.28335">
        <ele>475.29998779297</ele>
        <time>2022-03-19T09:17:18.394Z</time>
      </trkpt>
      <trkpt lat="46.96938" lon="7.28328">
        <ele>477.5</ele>
        <time>2022-03-19T09:17:38.474Z</time>
      </trkpt>
      <trkpt lat="46.96932" lon="7.28329">
        <ele>478.89999389648</ele>
        <time>2022-03-19T09:17:59.972Z</time>
      </trkpt>
      <trkpt lat="46.96926" lon="7.28327">
        <ele>480.59999084473</ele>
        <time>2022-03-19T09:18:21.878Z</time>
      </trkpt>
      <trkpt lat="46.96922" lon="7.28327">
        <ele>481.59999084473</ele>
        <time>2022-03-19T09:18:36.118Z</time>
      </trkpt>
      <trkpt lat="46.96917" lon="7.28327">
        <ele>481.89999389648</ele>
        <time>2022-03-19T09:18:44.753Z</time>
      </trkpt>
      <trkpt lat="46.96916" lon="7.28324">
        <ele>482</ele>
        <time>2022-03-19T09:18:48.269Z</time>
      </trkpt>
      <trkpt lat="46.96909" lon="7.28328">
        <ele>482</ele>
        <time>2022-03-19T09:18:55.204Z</time>
      </trkpt>
      <trkpt lat="46.96908" lon="7.28315">
        <ele>487.19999694824</ele>
        <time>2022-03-19T09:19:26.985Z</time>
      </trkpt>
      <trkpt lat="46.96906" lon="7.28317">
        <ele>487.09999084473</ele>
        <time>2022-03-19T09:19:27.564Z</time>
      </trkpt>
      <trkpt lat="46.96901" lon="7.28319">
        <ele>487.09999084473</ele>
        <time>2022-03-19T09:19:32.348Z</time>
      </trkpt>
      <trkpt lat="46.96897" lon="7.28321">
        <ele>487.19999694824</ele>
        <time>2022-03-19T09:19:37.328Z</time>
      </trkpt>
      <trkpt lat="46.96894" lon="7.28322">
        <ele>487.79998779297</ele>
        <time>2022-03-19T09:19:48.281Z</time>
      </trkpt>
      <trkpt lat="46.9689" lon="7.28322">
        <ele>488.79998779297</ele>
        <time>2022-03-19T09:20:02.521Z</time>
      </trkpt>
      <trkpt lat="46.96889" lon="7.2832">
        <ele>489.39999389648</ele>
        <time>2022-03-19T09:20:08.544Z</time>
      </trkpt>
      <trkpt lat="46.96885" lon="7.28316">
        <ele>491.39999389648</ele>
        <time>2022-03-19T09:20:25.784Z</time>
      </trkpt>
      <trkpt lat="46.96882" lon="7.28311">
        <ele>493.59999084473</ele>
        <time>2022-03-19T09:20:41.958Z</time>
      </trkpt>
      <trkpt lat="46.96879" lon="7.28308">
        <ele>494.79998779297</ele>
        <time>2022-03-19T09:20:54.887Z</time>
      </trkpt>
      <trkpt lat="46.96877" lon="7.28301">
        <ele>496.89999389648</ele>
        <time>2022-03-19T09:21:13.323Z</time>
      </trkpt>
      <trkpt lat="46.96876" lon="7.28297">
        <ele>498.19999694824</ele>
        <time>2022-03-19T09:21:23.672Z</time>
      </trkpt>
      <trkpt lat="46.96876" lon="7.28294">
        <ele>499.29998779297</ele>
        <time>2022-03-19T09:21:30.960Z</time>
      </trkpt>
      <trkpt lat="46.96878" lon="7.28275">
        <ele>503.39999389648</ele>
        <time>2022-03-19T09:22:17.663Z</time>
      </trkpt>
      <trkpt lat="46.9688" lon="7.28259">
        <ele>506.5</ele>
        <time>2022-03-19T09:22:57.179Z</time>
      </trkpt>
      <trkpt lat="46.96881" lon="7.28253">
        <ele>507.69999694824</ele>
        <time>2022-03-19T09:23:12.184Z</time>
      </trkpt>
      <trkpt lat="46.9688" lon="7.28248">
        <ele>508.89999389648</ele>
        <time>2022-03-19T09:23:24.841Z</time>
      </trkpt>
      <trkpt lat="46.96879" lon="7.28241">
        <ele>510.69999694824</ele>
        <time>2022-03-19T09:23:42.215Z</time>
      </trkpt>
      <trkpt lat="46.96878" lon="7.28227">
        <ele>513.5</ele>
        <time>2022-03-19T09:24:16.412Z</time>
      </trkpt>
      <trkpt lat="46.96878" lon="7.28218">
        <ele>515.39999389648</ele>
        <time>2022-03-19T09:24:38.276Z</time>
      </trkpt>
      <trkpt lat="46.96879" lon="7.28212">
        <ele>516.89999389648</ele>
        <time>2022-03-19T09:24:53.280Z</time>
      </trkpt>
      <trkpt lat="46.96879" lon="7.28207">
        <ele>518.29998779297</ele>
        <time>2022-03-19T09:25:05.427Z</time>
      </trkpt>
      <trkpt lat="46.96879" lon="7.28197">
        <ele>519.29998779297</ele>
        <time>2022-03-19T09:25:29.720Z</time>
      </trkpt>
      <trkpt lat="46.96867" lon="7.28196">
        <ele>520.5</ele>
        <time>2022-03-19T09:25:58.523Z</time>
      </trkpt>
      <trkpt lat="46.96857" lon="7.28194">
        <ele>521.79998779297</ele>
        <time>2022-03-19T09:26:32.200Z</time>
      </trkpt>
      <trkpt lat="46.96851" lon="7.28193">
        <ele>522.59997558594</ele>
        <time>2022-03-19T09:26:53.405Z</time>
      </trkpt>
      <trkpt lat="46.96844" lon="7.2819">
        <ele>523.39999389648</ele>
        <time>2022-03-19T09:27:12.736Z</time>
      </trkpt>
      <trkpt lat="46.9684" lon="7.28187">
        <ele>523.89999389648</ele>
        <time>2022-03-19T09:27:24.852Z</time>
      </trkpt>
      <trkpt lat="46.96837" lon="7.28184">
        <ele>524.19998168945</ele>
        <time>2022-03-19T09:27:32.305Z</time>
      </trkpt>
      <trkpt lat="46.96834" lon="7.2818">
        <ele>524.39999389648</ele>
        <time>2022-03-19T09:27:38.821Z</time>
      </trkpt>
      <trkpt lat="46.96831" lon="7.28175">
        <ele>524.79998779297</ele>
        <time>2022-03-19T09:27:48.588Z</time>
      </trkpt>
      <trkpt lat="46.96829" lon="7.28171">
        <ele>525.09997558594</ele>
        <time>2022-03-19T09:27:55.901Z</time>
      </trkpt>
      <trkpt lat="46.96826" lon="7.28165">
        <ele>525.5</ele>
        <time>2022-03-19T09:28:05.999Z</time>
      </trkpt>
      <trkpt lat="46.96823" lon="7.28157">
        <ele>525.89999389648</ele>
        <time>2022-03-19T09:28:17.084Z</time>
      </trkpt>
      <trkpt lat="46.9682" lon="7.28148">
        <ele>526.39999389648</ele>
        <time>2022-03-19T09:28:30.087Z</time>
      </trkpt>
      <trkpt lat="46.96818" lon="7.2814">
        <ele>526.79998779297</ele>
        <time>2022-03-19T09:28:40.788Z</time>
      </trkpt>
      <trkpt lat="46.96815" lon="7.2813">
        <ele>527.39999389648</ele>
        <time>2022-03-19T09:28:55.822Z</time>
      </trkpt>
      <trkpt lat="46.96814" lon="7.2812">
        <ele>528.09997558594</ele>
        <time>2022-03-19T09:29:12.620Z</time>
      </trkpt>
      <trkpt lat="46.96812" lon="7.28114">
        <ele>528.59997558594</ele>
        <time>2022-03-19T09:29:24.702Z</time>
      </trkpt>
      <trkpt lat="46.9681" lon="7.28108">
        <ele>529.29998779297</ele>
        <time>2022-03-19T09:29:40.924Z</time>
      </trkpt>
      <trkpt lat="46.96808" lon="7.28103">
        <ele>529.89999389648</ele>
        <time>2022-03-19T09:29:55.004Z</time>
      </trkpt>
      <trkpt lat="46.96806" lon="7.28098">
        <ele>530.5</ele>
        <time>2022-03-19T09:30:09.084Z</time>
      </trkpt>
      <trkpt lat="46.96803" lon="7.28095">
        <ele>531.09997558594</ele>
        <time>2022-03-19T09:30:22.013Z</time>
      </trkpt>
      <trkpt lat="46.968" lon="7.28092">
        <ele>531.79998779297</ele>
        <time>2022-03-19T09:30:34.943Z</time>
      </trkpt>
      <trkpt lat="46.96797" lon="7.2809">
        <ele>532.29998779297</ele>
        <time>2022-03-19T09:30:46.677Z</time>
      </trkpt>
      <trkpt lat="46.96794" lon="7.28088">
        <ele>532.69998168945</ele>
        <time>2022-03-19T09:30:56.667Z</time>
      </trkpt>
      <trkpt lat="46.9679" lon="7.28087">
        <ele>533.29998779297</ele>
        <time>2022-03-19T09:31:11.112Z</time>
      </trkpt>
      <trkpt lat="46.96774" lon="7.28086">
        <ele>535.29998779297</ele>
        <time>2022-03-19T09:32:01.855Z</time>
      </trkpt>
      <trkpt lat="46.96769" lon="7.28085">
        <ele>536</ele>
        <time>2022-03-19T09:32:19.820Z</time>
      </trkpt>
      <trkpt lat="46.96764" lon="7.28083">
        <ele>536.59997558594</ele>
        <time>2022-03-19T09:32:34.517Z</time>
      </trkpt>
      <trkpt lat="46.9676" lon="7.28081">
        <ele>537.09997558594</ele>
        <time>2022-03-19T09:32:46.863Z</time>
      </trkpt>
      <trkpt lat="46.96744" lon="7.28071">
        <ele>539.39999389648</ele>
        <time>2022-03-19T09:33:47.726Z</time>
      </trkpt>
      <trkpt lat="46.96741" lon="7.28069">
        <ele>539.79998779297</ele>
        <time>2022-03-19T09:33:57.716Z</time>
      </trkpt>
      <trkpt lat="46.9673" lon="7.28063">
        <ele>541.19998168945</ele>
        <time>2022-03-19T09:34:32.403Z</time>
      </trkpt>
      <trkpt lat="46.96725" lon="7.2806">
        <ele>542</ele>
        <time>2022-03-19T09:34:51.638Z</time>
      </trkpt>
      <trkpt lat="46.96722" lon="7.28057">
        <ele>542.39999389648</ele>
        <time>2022-03-19T09:35:01.310Z</time>
      </trkpt>
      <trkpt lat="46.9672" lon="7.28054">
        <ele>542.79998779297</ele>
        <time>2022-03-19T09:35:11.499Z</time>
      </trkpt>
      <trkpt lat="46.96717" lon="7.2805">
        <ele>543.19998168945</ele>
        <time>2022-03-19T09:35:21.104Z</time>
      </trkpt>
      <trkpt lat="46.96716" lon="7.28047">
        <ele>543.59997558594</ele>
        <time>2022-03-19T09:35:29.216Z</time>
      </trkpt>
      <trkpt lat="46.96714" lon="7.28042">
        <ele>544.19998168945</ele>
        <time>2022-03-19T09:35:43.296Z</time>
      </trkpt>
      <trkpt lat="46.96712" lon="7.28038">
        <ele>544.5</ele>
        <time>2022-03-19T09:35:50.609Z</time>
      </trkpt>
      <trkpt lat="46.9671" lon="7.28033">
        <ele>545</ele>
        <time>2022-03-19T09:36:03.393Z</time>
      </trkpt>
      <trkpt lat="46.96708" lon="7.28017">
        <ele>546.19998168945</ele>
        <time>2022-03-19T09:36:32.320Z</time>
      </trkpt>
      <trkpt lat="46.96706" lon="7.28009">
        <ele>546.89999389648</ele>
        <time>2022-03-19T09:36:49.737Z</time>
      </trkpt>
      <trkpt lat="46.96704" lon="7.27999">
        <ele>547.69998168945</ele>
        <time>2022-03-19T09:37:09.172Z</time>
      </trkpt>
      <trkpt lat="46.96701" lon="7.27991">
        <ele>548.39999389648</ele>
        <time>2022-03-19T09:37:26.173Z</time>
      </trkpt>
      <trkpt lat="46.96698" lon="7.27983">
        <ele>549.39999389648</ele>
        <time>2022-03-19T09:37:48.349Z</time>
      </trkpt>
      <trkpt lat="46.96695" lon="7.27976">
        <ele>550.09997558594</ele>
        <time>2022-03-19T09:38:06.042Z</time>
      </trkpt>
      <trkpt lat="46.96692" lon="7.2797">
        <ele>550.29998779297</ele>
        <time>2022-03-19T09:38:13.373Z</time>
      </trkpt>
      <trkpt lat="46.96679" lon="7.27953">
        <ele>550.69998168945</ele>
        <time>2022-03-19T09:38:33.736Z</time>
      </trkpt>
      <trkpt lat="46.96675" lon="7.27946">
        <ele>550.69998168945</ele>
        <time>2022-03-19T09:38:39.487Z</time>
      </trkpt>
      <trkpt lat="46.96669" lon="7.27936">
        <ele>550.69998168945</ele>
        <time>2022-03-19T09:38:47.873Z</time>
      </trkpt>
      <trkpt lat="46.96664" lon="7.27927">
        <ele>550.59997558594</ele>
        <time>2022-03-19T09:38:50.464Z</time>
      </trkpt>
      <trkpt lat="46.96656" lon="7.27915">
        <ele>550.39999389648</ele>
        <time>2022-03-19T09:38:53.990Z</time>
      </trkpt>
      <trkpt lat="46.96652" lon="7.2791">
        <ele>550.5</ele>
        <time>2022-03-19T09:38:59.866Z</time>
      </trkpt>
      <trkpt lat="46.96646" lon="7.27904">
        <ele>550.39999389648</ele>
        <time>2022-03-19T09:39:02.208Z</time>
      </trkpt>
      <trkpt lat="46.96641" lon="7.27899">
        <ele>550.39999389648</ele>
        <time>2022-03-19T09:39:07.795Z</time>
      </trkpt>
      <trkpt lat="46.96638" lon="7.27895">
        <ele>550.5</ele>
        <time>2022-03-19T09:39:12.631Z</time>
      </trkpt>
      <trkpt lat="46.96635" lon="7.27889">
        <ele>550.59997558594</ele>
        <time>2022-03-19T09:39:18.347Z</time>
      </trkpt>
      <trkpt lat="46.96632" lon="7.27883">
        <ele>550.5</ele>
        <time>2022-03-19T09:39:19.869Z</time>
      </trkpt>
      <trkpt lat="46.96629" lon="7.27876">
        <ele>550.69998168945</ele>
        <time>2022-03-19T09:39:27.579Z</time>
      </trkpt>
      <trkpt lat="46.96625" lon="7.27862">
        <ele>551.29998779297</ele>
        <time>2022-03-19T09:39:45.211Z</time>
      </trkpt>
      <trkpt lat="46.96622" lon="7.27866">
        <ele>551.29998779297</ele>
        <time>2022-03-19T09:39:48.954Z</time>
      </trkpt>
      <trkpt lat="46.96616" lon="7.2787">
        <ele>551.39999389648</ele>
        <time>2022-03-19T09:39:56.020Z</time>
      </trkpt>
      <trkpt lat="46.96609" lon="7.27875">
        <ele>551.39999389648</ele>
        <time>2022-03-19T09:40:03.208Z</time>
      </trkpt>
      <trkpt lat="46.96602" lon="7.27877">
        <ele>551.59997558594</ele>
        <time>2022-03-19T09:40:12.065Z</time>
      </trkpt>
      <trkpt lat="46.96596" lon="7.27876">
        <ele>551.69998168945</ele>
        <time>2022-03-19T09:40:18.635Z</time>
      </trkpt>
      <trkpt lat="46.9659" lon="7.27875">
        <ele>551.89999389648</ele>
        <time>2022-03-19T09:40:26.636Z</time>
      </trkpt>
      <trkpt lat="46.96585" lon="7.27874">
        <ele>552.09997558594</ele>
        <time>2022-03-19T09:40:33.948Z</time>
      </trkpt>
      <trkpt lat="46.96566" lon="7.27869">
        <ele>552.79998779297</ele>
        <time>2022-03-19T09:41:00.626Z</time>
      </trkpt>
      <trkpt lat="46.9655" lon="7.27864">
        <ele>553.59997558594</ele>
        <time>2022-03-19T09:41:26.839Z</time>
      </trkpt>
      <trkpt lat="46.9654" lon="7.27862">
        <ele>554.09997558594</ele>
        <time>2022-03-19T09:41:43.078Z</time>
      </trkpt>
      <trkpt lat="46.96537" lon="7.27862">
        <ele>554.29998779297</ele>
        <time>2022-03-19T09:41:48.514Z</time>
      </trkpt>
      <trkpt lat="46.96526" lon="7.27861">
        <ele>555</ele>
        <time>2022-03-19T09:42:08.028Z</time>
      </trkpt>
      <trkpt lat="46.96515" lon="7.27862">
        <ele>555.79998779297</ele>
        <time>2022-03-19T09:42:28.904Z</time>
      </trkpt>
      <trkpt lat="46.9651" lon="7.27862">
        <ele>556</ele>
        <time>2022-03-19T09:42:36.188Z</time>
      </trkpt>
      <trkpt lat="46.96494" lon="7.27866">
        <ele>556.59997558594</ele>
        <time>2022-03-19T09:42:58.837Z</time>
      </trkpt>
      <trkpt lat="46.9647" lon="7.27871">
        <ele>555.89999389648</ele>
        <time>2022-03-19T09:43:05.399Z</time>
      </trkpt>
      <trkpt lat="46.96449" lon="7.27879">
        <ele>554.89999389648</ele>
        <time>2022-03-19T09:43:10.364Z</time>
      </trkpt>
      <trkpt lat="46.96439" lon="7.27883">
        <ele>554.5</ele>
        <time>2022-03-19T09:43:12.907Z</time>
      </trkpt>
      <trkpt lat="46.9643" lon="7.27887">
        <ele>554.19998168945</ele>
        <time>2022-03-19T09:43:15.373Z</time>
      </trkpt>
      <trkpt lat="46.96424" lon="7.27891">
        <ele>554.19998168945</ele>
        <time>2022-03-19T09:43:21.457Z</time>
      </trkpt>
      <trkpt lat="46.9642" lon="7.27893">
        <ele>554.19998168945</ele>
        <time>2022-03-19T09:43:25.358Z</time>
      </trkpt>
      <trkpt lat="46.96416" lon="7.27896">
        <ele>554.19998168945</ele>
        <time>2022-03-19T09:43:29.505Z</time>
      </trkpt>
      <trkpt lat="46.96411" lon="7.27902">
        <ele>554.29998779297</ele>
        <time>2022-03-19T09:43:36.455Z</time>
      </trkpt>
      <trkpt lat="46.96399" lon="7.27915">
        <ele>554.39999389648</ele>
        <time>2022-03-19T09:43:51.130Z</time>
      </trkpt>
      <trkpt lat="46.96398" lon="7.27917">
        <ele>554.5</ele>
        <time>2022-03-19T09:43:54.034Z</time>
      </trkpt>
      <trkpt lat="46.96388" lon="7.27932">
        <ele>554.69998168945</ele>
        <time>2022-03-19T09:44:09.181Z</time>
      </trkpt>
      <trkpt lat="46.96374" lon="7.27951">
        <ele>555.09997558594</ele>
        <time>2022-03-19T09:44:30.978Z</time>
      </trkpt>
      <trkpt lat="46.96366" lon="7.27963">
        <ele>555.19998168945</ele>
        <time>2022-03-19T09:44:42.464Z</time>
      </trkpt>
      <trkpt lat="46.96362" lon="7.27968">
        <ele>555.29998779297</ele>
        <time>2022-03-19T09:44:48.340Z</time>
      </trkpt>
      <trkpt lat="46.96358" lon="7.27973">
        <ele>555.5</ele>
        <time>2022-03-19T09:44:55.788Z</time>
      </trkpt>
      <trkpt lat="46.96352" lon="7.27979">
        <ele>555.69998168945</ele>
        <time>2022-03-19T09:45:04.754Z</time>
      </trkpt>
      <trkpt lat="46.96333" lon="7.27996">
        <ele>556</ele>
        <time>2022-03-19T09:45:28.194Z</time>
      </trkpt>
      <trkpt lat="46.96308" lon="7.28018">
        <ele>556.89999389648</ele>
        <time>2022-03-19T09:46:05.717Z</time>
      </trkpt>
      <trkpt lat="46.96309" lon="7.28021">
        <ele>557.09997558594</ele>
        <time>2022-03-19T09:46:10.603Z</time>
      </trkpt>
      <trkpt lat="46.9631" lon="7.28023">
        <ele>557.09997558594</ele>
        <time>2022-03-19T09:46:12.165Z</time>
      </trkpt>
      <trkpt lat="46.96309" lon="7.28025">
        <ele>557.09997558594</ele>
        <time>2022-03-19T09:46:13.727Z</time>
      </trkpt>
      <trkpt lat="46.96286" lon="7.28044">
        <ele>558.5</ele>
        <time>2022-03-19T09:46:57.199Z</time>
      </trkpt>
      <trkpt lat="46.96265" lon="7.28061">
        <ele>559.79998779297</ele>
        <time>2022-03-19T09:47:37.010Z</time>
      </trkpt>
      <trkpt lat="46.96259" lon="7.28066">
        <ele>560.29998779297</ele>
        <time>2022-03-19T09:47:50.070Z</time>
      </trkpt>
      <trkpt lat="46.96248" lon="7.28076">
        <ele>561.39999389648</ele>
        <time>2022-03-19T09:48:17.172Z</time>
      </trkpt>
      <trkpt lat="46.96245" lon="7.2808">
        <ele>561.89999389648</ele>
        <time>2022-03-19T09:48:29.762Z</time>
      </trkpt>
      <trkpt lat="46.96241" lon="7.28086">
        <ele>562.59997558594</ele>
        <time>2022-03-19T09:48:47.312Z</time>
      </trkpt>
      <trkpt lat="46.96234" lon="7.28098">
        <ele>563.79998779297</ele>
        <time>2022-03-19T09:49:16.397Z</time>
      </trkpt>
      <trkpt lat="46.96229" lon="7.28111">
        <ele>564.79998779297</ele>
        <time>2022-03-19T09:49:40.417Z</time>
      </trkpt>
      <trkpt lat="46.96225" lon="7.2812">
        <ele>565.5</ele>
        <time>2022-03-19T09:49:57.271Z</time>
      </trkpt>
      <trkpt lat="46.962" lon="7.28222">
        <ele>571.5</ele>
        <time>2022-03-19T09:52:27.213Z</time>
      </trkpt>
      <trkpt lat="46.9619" lon="7.28261">
        <ele>572.69998168945</ele>
        <time>2022-03-19T09:53:09.994Z</time>
      </trkpt>
      <trkpt lat="46.96185" lon="7.28274">
        <ele>573</ele>
        <time>2022-03-19T09:53:22.868Z</time>
      </trkpt>
      <trkpt lat="46.96183" lon="7.28277">
        <ele>573</ele>
        <time>2022-03-19T09:53:25.509Z</time>
      </trkpt>
      <trkpt lat="46.9618" lon="7.28279">
        <ele>573.19998168945</ele>
        <time>2022-03-19T09:53:31.228Z</time>
      </trkpt>
      <trkpt lat="46.96172" lon="7.28309">
        <ele>574.19998168945</ele>
        <time>2022-03-19T09:54:05.686Z</time>
      </trkpt>
      <trkpt lat="46.96174" lon="7.28314">
        <ele>574.29998779297</ele>
        <time>2022-03-19T09:54:10.437Z</time>
      </trkpt>
      <trkpt lat="46.96176" lon="7.28326">
        <ele>575</ele>
        <time>2022-03-19T09:54:27.801Z</time>
      </trkpt>
      <trkpt lat="46.96176" lon="7.28328">
        <ele>575</ele>
        <time>2022-03-19T09:54:29.061Z</time>
      </trkpt>
      <trkpt lat="46.96172" lon="7.28344">
        <ele>575.39999389648</ele>
        <time>2022-03-19T09:54:44.731Z</time>
      </trkpt>
      <trkpt lat="46.96169" lon="7.28355">
        <ele>575.5</ele>
        <time>2022-03-19T09:54:53.147Z</time>
      </trkpt>
      <trkpt lat="46.96163" lon="7.28396">
        <ele>576.39999389648</ele>
        <time>2022-03-19T09:55:30.247Z</time>
      </trkpt>
      <trkpt lat="46.9616" lon="7.28422">
        <ele>577</ele>
        <time>2022-03-19T09:55:54.160Z</time>
      </trkpt>
      <trkpt lat="46.96155" lon="7.28458">
        <ele>578.09997558594</ele>
        <time>2022-03-19T09:56:32.848Z</time>
      </trkpt>
      <trkpt lat="46.96151" lon="7.28492">
        <ele>579.19998168945</ele>
        <time>2022-03-19T09:57:10.049Z</time>
      </trkpt>
      <trkpt lat="46.96149" lon="7.28509">
        <ele>579.69998168945</ele>
        <time>2022-03-19T09:57:27.833Z</time>
      </trkpt>
      <trkpt lat="46.96147" lon="7.28533">
        <ele>580.5</ele>
        <time>2022-03-19T09:57:54.202Z</time>
      </trkpt>
      <trkpt lat="46.96143" lon="7.28578">
        <ele>582</ele>
        <time>2022-03-19T09:58:43.677Z</time>
      </trkpt>
      <trkpt lat="46.96142" lon="7.28593">
        <ele>582.79998779297</ele>
        <time>2022-03-19T09:59:03.970Z</time>
      </trkpt>
      <trkpt lat="46.9614" lon="7.28628">
        <ele>584.59997558594</ele>
        <time>2022-03-19T09:59:50.266Z</time>
      </trkpt>
      <trkpt lat="46.96139" lon="7.28648">
        <ele>585.5</ele>
        <time>2022-03-19T10:00:14.898Z</time>
      </trkpt>
      <trkpt lat="46.96138" lon="7.28663">
        <ele>586</ele>
        <time>2022-03-19T10:00:31.348Z</time>
      </trkpt>
      <trkpt lat="46.96137" lon="7.28679">
        <ele>586.19998168945</ele>
        <time>2022-03-19T10:00:43.498Z</time>
      </trkpt>
      <trkpt lat="46.96135" lon="7.28705">
        <ele>586.29998779297</ele>
        <time>2022-03-19T10:01:00.871Z</time>
      </trkpt>
      <trkpt lat="46.96134" lon="7.2872">
        <ele>586.29998779297</ele>
        <time>2022-03-19T10:01:10.365Z</time>
      </trkpt>
      <trkpt lat="46.96132" lon="7.2873">
        <ele>586.09997558594</ele>
        <time>2022-03-19T10:01:12.305Z</time>
      </trkpt>
      <trkpt lat="46.96129" lon="7.28748">
        <ele>585.69998168945</ele>
        <time>2022-03-19T10:01:15.631Z</time>
      </trkpt>
      <trkpt lat="46.96128" lon="7.28758">
        <ele>585.89999389648</ele>
        <time>2022-03-19T10:01:24.299Z</time>
      </trkpt>
      <trkpt lat="46.96126" lon="7.28769">
        <ele>586</ele>
        <time>2022-03-19T10:01:32.429Z</time>
      </trkpt>
      <trkpt lat="46.9612" lon="7.28796">
        <ele>586.5</ele>
        <time>2022-03-19T10:01:55.850Z</time>
      </trkpt>
      <trkpt lat="46.96112" lon="7.2883">
        <ele>587.19998168945</ele>
        <time>2022-03-19T10:02:26.515Z</time>
      </trkpt>
      <trkpt lat="46.96103" lon="7.28865">
        <ele>587.5</ele>
        <time>2022-03-19T10:02:52.917Z</time>
      </trkpt>
      <trkpt lat="46.961" lon="7.28887">
        <ele>587.79998779297</ele>
        <time>2022-03-19T10:03:10.140Z</time>
      </trkpt>
      <trkpt lat="46.96096" lon="7.28914">
        <ele>588.29998779297</ele>
        <time>2022-03-19T10:03:33.127Z</time>
      </trkpt>
      <trkpt lat="46.96094" lon="7.28931">
        <ele>588.59997558594</ele>
        <time>2022-03-19T10:03:47.302Z</time>
      </trkpt>
      <trkpt lat="46.96089" lon="7.28984">
        <ele>589.69998168945</ele>
        <time>2022-03-19T10:04:33.848Z</time>
      </trkpt>
      <trkpt lat="46.96086" lon="7.29014">
        <ele>590</ele>
        <time>2022-03-19T10:04:55.872Z</time>
      </trkpt>
      <trkpt lat="46.96085" lon="7.29023">
        <ele>590</ele>
        <time>2022-03-19T10:05:01.616Z</time>
      </trkpt>
      <trkpt lat="46.96084" lon="7.29026">
        <ele>590.09997558594</ele>
        <time>2022-03-19T10:05:05.133Z</time>
      </trkpt>
      <trkpt lat="46.96081" lon="7.29027">
        <ele>589.79998779297</ele>
        <time>2022-03-19T10:05:05.781Z</time>
      </trkpt>
      <trkpt lat="46.96077" lon="7.29061">
        <ele>589.89999389648</ele>
        <time>2022-03-19T10:05:28.394Z</time>
      </trkpt>
      <trkpt lat="46.96074" lon="7.29078">
        <ele>589.79998779297</ele>
        <time>2022-03-19T10:05:32.542Z</time>
      </trkpt>
      <trkpt lat="46.9607" lon="7.29097">
        <ele>589.69998168945</ele>
        <time>2022-03-19T10:05:37.303Z</time>
      </trkpt>
      <trkpt lat="46.96067" lon="7.2911">
        <ele>589.69998168945</ele>
        <time>2022-03-19T10:05:45.947Z</time>
      </trkpt>
      <trkpt lat="46.96066" lon="7.29115">
        <ele>589.79998779297</ele>
        <time>2022-03-19T10:05:50.368Z</time>
      </trkpt>
      <trkpt lat="46.96063" lon="7.29123">
        <ele>589.79998779297</ele>
        <time>2022-03-19T10:05:56.118Z</time>
      </trkpt>
      <trkpt lat="46.9606" lon="7.29131">
        <ele>589.79998779297</ele>
        <time>2022-03-19T10:06:01.868Z</time>
      </trkpt>
      <trkpt lat="46.96058" lon="7.29138">
        <ele>589.79998779297</ele>
        <time>2022-03-19T10:06:06.648Z</time>
      </trkpt>
      <trkpt lat="46.96054" lon="7.29147">
        <ele>589.59997558594</ele>
        <time>2022-03-19T10:06:08.666Z</time>
      </trkpt>
      <trkpt lat="46.96059" lon="7.2915">
        <ele>590</ele>
        <time>2022-03-19T10:06:19.016Z</time>
      </trkpt>
      <trkpt lat="46.96063" lon="7.29152">
        <ele>590</ele>
        <time>2022-03-19T10:06:22.917Z</time>
      </trkpt>
      <trkpt lat="46.96067" lon="7.29154">
        <ele>590.09997558594</ele>
        <time>2022-03-19T10:06:27.897Z</time>
      </trkpt>
      <trkpt lat="46.96079" lon="7.29156">
        <ele>589.89999389648</ele>
        <time>2022-03-19T10:06:31.658Z</time>
      </trkpt>
      <trkpt lat="46.96102" lon="7.29163">
        <ele>587.19998168945</ele>
        <time>2022-03-19T10:06:36.610Z</time>
      </trkpt>
      <trkpt lat="46.96112" lon="7.29167">
        <ele>585.69998168945</ele>
        <time>2022-03-19T10:06:38.795Z</time>
      </trkpt>
      <trkpt lat="46.96141" lon="7.29186">
        <ele>581.29998779297</ele>
        <time>2022-03-19T10:06:45.493Z</time>
      </trkpt>
      <trkpt lat="46.96157" lon="7.29197">
        <ele>578.39999389648</ele>
        <time>2022-03-19T10:06:49.219Z</time>
      </trkpt>
      <trkpt lat="46.96172" lon="7.29208">
        <ele>575.69998168945</ele>
        <time>2022-03-19T10:06:52.755Z</time>
      </trkpt>
      <trkpt lat="46.96205" lon="7.29235">
        <ele>570</ele>
        <time>2022-03-19T10:07:00.723Z</time>
      </trkpt>
      <trkpt lat="46.96216" lon="7.29243">
        <ele>568.29998779297</ele>
        <time>2022-03-19T10:07:03.312Z</time>
      </trkpt>
      <trkpt lat="46.96224" lon="7.29248">
        <ele>567</ele>
        <time>2022-03-19T10:07:05.146Z</time>
      </trkpt>
      <trkpt lat="46.96238" lon="7.29254">
        <ele>564.69998168945</ele>
        <time>2022-03-19T10:07:08.221Z</time>
      </trkpt>
      <trkpt lat="46.96245" lon="7.29257">
        <ele>563.39999389648</ele>
        <time>2022-03-19T10:07:09.758Z</time>
      </trkpt>
      <trkpt lat="46.96251" lon="7.29261">
        <ele>562.19998168945</ele>
        <time>2022-03-19T10:07:11.148Z</time>
      </trkpt>
      <trkpt lat="46.96263" lon="7.29269">
        <ele>559.59997558594</ele>
        <time>2022-03-19T10:07:13.927Z</time>
      </trkpt>
      <trkpt lat="46.96268" lon="7.29273">
        <ele>558.59997558594</ele>
        <time>2022-03-19T10:07:15.128Z</time>
      </trkpt>
      <trkpt lat="46.96277" lon="7.2928">
        <ele>556.89999389648</ele>
        <time>2022-03-19T10:07:17.276Z</time>
      </trkpt>
      <trkpt lat="46.96281" lon="7.29285">
        <ele>556</ele>
        <time>2022-03-19T10:07:18.385Z</time>
      </trkpt>
      <trkpt lat="46.96292" lon="7.293">
        <ele>553.39999389648</ele>
        <time>2022-03-19T10:07:21.553Z</time>
      </trkpt>
      <trkpt lat="46.963" lon="7.29311">
        <ele>551.5</ele>
        <time>2022-03-19T10:07:23.866Z</time>
      </trkpt>
      <trkpt lat="46.96305" lon="7.29319">
        <ele>550.29998779297</ele>
        <time>2022-03-19T10:07:25.426Z</time>
      </trkpt>
      <trkpt lat="46.96312" lon="7.29331">
        <ele>548.5</ele>
        <time>2022-03-19T10:07:27.698Z</time>
      </trkpt>
      <trkpt lat="46.96315" lon="7.29336">
        <ele>548</ele>
        <time>2022-03-19T10:07:28.655Z</time>
      </trkpt>
      <trkpt lat="46.96317" lon="7.29343">
        <ele>547.29998779297</ele>
        <time>2022-03-19T10:07:29.747Z</time>
      </trkpt>
      <trkpt lat="46.9632" lon="7.2935">
        <ele>546.59997558594</ele>
        <time>2022-03-19T10:07:30.937Z</time>
      </trkpt>
      <trkpt lat="46.96331" lon="7.29388">
        <ele>542.29998779297</ele>
        <time>2022-03-19T10:07:36.875Z</time>
      </trkpt>
      <trkpt lat="46.96336" lon="7.29405">
        <ele>540.09997558594</ele>
        <time>2022-03-19T10:07:39.539Z</time>
      </trkpt>
      <trkpt lat="46.9634" lon="7.29414">
        <ele>538.89999389648</ele>
        <time>2022-03-19T10:07:41.084Z</time>
      </trkpt>
      <trkpt lat="46.96346" lon="7.29423">
        <ele>537.69998168945</ele>
        <time>2022-03-19T10:07:42.894Z</time>
      </trkpt>
      <trkpt lat="46.96351" lon="7.2943">
        <ele>537</ele>
        <time>2022-03-19T10:07:44.352Z</time>
      </trkpt>
      <trkpt lat="46.96356" lon="7.29435">
        <ele>536.09997558594</ele>
        <time>2022-03-19T10:07:45.628Z</time>
      </trkpt>
      <trkpt lat="46.9636" lon="7.29437">
        <ele>535.69998168945</ele>
        <time>2022-03-19T10:07:46.519Z</time>
      </trkpt>
      <trkpt lat="46.9636" lon="7.29441">
        <ele>535.39999389648</ele>
        <time>2022-03-19T10:07:47.095Z</time>
      </trkpt>
      <trkpt lat="46.9636" lon="7.29446">
        <ele>534.89999389648</ele>
        <time>2022-03-19T10:07:47.814Z</time>
      </trkpt>
      <trkpt lat="46.9636" lon="7.29451">
        <ele>534.39999389648</ele>
        <time>2022-03-19T10:07:48.534Z</time>
      </trkpt>
      <trkpt lat="46.96362" lon="7.2946">
        <ele>533.5</ele>
        <time>2022-03-19T10:07:49.895Z</time>
      </trkpt>
      <trkpt lat="46.96365" lon="7.29469">
        <ele>532.69998168945</ele>
        <time>2022-03-19T10:07:51.337Z</time>
      </trkpt>
      <trkpt lat="46.9637" lon="7.29481">
        <ele>531.5</ele>
        <time>2022-03-19T10:07:53.359Z</time>
      </trkpt>
      <trkpt lat="46.96375" lon="7.29489">
        <ele>530.79998779297</ele>
        <time>2022-03-19T10:07:54.920Z</time>
      </trkpt>
      <trkpt lat="46.96378" lon="7.29492">
        <ele>530.5</ele>
        <time>2022-03-19T10:07:55.686Z</time>
      </trkpt>
      <trkpt lat="46.96381" lon="7.29494">
        <ele>530.09997558594</ele>
        <time>2022-03-19T10:07:56.381Z</time>
      </trkpt>
      <trkpt lat="46.96387" lon="7.29497">
        <ele>529.29998779297</ele>
        <time>2022-03-19T10:07:57.717Z</time>
      </trkpt>
      <trkpt lat="46.96391" lon="7.29498">
        <ele>528.79998779297</ele>
        <time>2022-03-19T10:07:58.573Z</time>
      </trkpt>
      <trkpt lat="46.96406" lon="7.29501">
        <ele>526.89999389648</ele>
        <time>2022-03-19T10:08:01.764Z</time>
      </trkpt>
      <trkpt lat="46.96418" lon="7.29504">
        <ele>525.5</ele>
        <time>2022-03-19T10:08:04.331Z</time>
      </trkpt>
      <trkpt lat="46.9643" lon="7.29507">
        <ele>524.29998779297</ele>
        <time>2022-03-19T10:08:06.897Z</time>
      </trkpt>
      <trkpt lat="46.96439" lon="7.29511">
        <ele>523.19998168945</ele>
        <time>2022-03-19T10:08:08.880Z</time>
      </trkpt>
      <trkpt lat="46.96446" lon="7.29516">
        <ele>522.29998779297</ele>
        <time>2022-03-19T10:08:10.522Z</time>
      </trkpt>
      <trkpt lat="46.96453" lon="7.29526">
        <ele>520.79998779297</ele>
        <time>2022-03-19T10:08:12.583Z</time>
      </trkpt>
      <trkpt lat="46.96462" lon="7.29534">
        <ele>519.5</ele>
        <time>2022-03-19T10:08:14.802Z</time>
      </trkpt>
      <trkpt lat="46.96471" lon="7.2954">
        <ele>518.39999389648</ele>
        <time>2022-03-19T10:08:16.886Z</time>
      </trkpt>
      <trkpt lat="46.96484" lon="7.29546">
        <ele>516.69998168945</ele>
        <time>2022-03-19T10:08:19.760Z</time>
      </trkpt>
      <trkpt lat="46.96493" lon="7.29553">
        <ele>515.39999389648</ele>
        <time>2022-03-19T10:08:21.908Z</time>
      </trkpt>
      <trkpt lat="46.96503" lon="7.29564">
        <ele>513.69998168945</ele>
        <time>2022-03-19T10:08:24.544Z</time>
      </trkpt>
      <trkpt lat="46.96528" lon="7.29596">
        <ele>509.59999084473</ele>
        <time>2022-03-19T10:08:31.542Z</time>
      </trkpt>
      <trkpt lat="46.96531" lon="7.29602">
        <ele>509</ele>
        <time>2022-03-19T10:08:32.612Z</time>
      </trkpt>
      <trkpt lat="46.96535" lon="7.29609">
        <ele>508.39999389648</ele>
        <time>2022-03-19T10:08:33.926Z</time>
      </trkpt>
      <trkpt lat="46.96538" lon="7.29615">
        <ele>508</ele>
        <time>2022-03-19T10:08:34.996Z</time>
      </trkpt>
      <trkpt lat="46.96538" lon="7.29619">
        <ele>507.69999694824</ele>
        <time>2022-03-19T10:08:35.571Z</time>
      </trkpt>
      <trkpt lat="46.96539" lon="7.29622">
        <ele>507.5</ele>
        <time>2022-03-19T10:08:36.052Z</time>
      </trkpt>
      <trkpt lat="46.96539" lon="7.29626">
        <ele>507.29998779297</ele>
        <time>2022-03-19T10:08:36.627Z</time>
      </trkpt>
      <trkpt lat="46.96538" lon="7.29631">
        <ele>507.09999084473</ele>
        <time>2022-03-19T10:08:37.373Z</time>
      </trkpt>
      <trkpt lat="46.96536" lon="7.29635">
        <ele>507</ele>
        <time>2022-03-19T10:08:38.282Z</time>
      </trkpt>
      <trkpt lat="46.96534" lon="7.29638">
        <ele>507</ele>
        <time>2022-03-19T10:08:40.924Z</time>
      </trkpt>
      <trkpt lat="46.9653" lon="7.29641">
        <ele>506.89999389648</ele>
        <time>2022-03-19T10:08:42.232Z</time>
      </trkpt>
      <trkpt lat="46.96525" lon="7.29644">
        <ele>506.89999389648</ele>
        <time>2022-03-19T10:08:47.219Z</time>
      </trkpt>
      <trkpt lat="46.96518" lon="7.29648">
        <ele>506.79998779297</ele>
        <time>2022-03-19T10:08:49.655Z</time>
      </trkpt>
      <trkpt lat="46.96513" lon="7.2965">
        <ele>506.79998779297</ele>
        <time>2022-03-19T10:08:54.439Z</time>
      </trkpt>
      <trkpt lat="46.96509" lon="7.29651">
        <ele>506.89999389648</ele>
        <time>2022-03-19T10:08:59.276Z</time>
      </trkpt>
      <trkpt lat="46.96504" lon="7.29652">
        <ele>507</ele>
        <time>2022-03-19T10:09:04.967Z</time>
      </trkpt>
      <trkpt lat="46.96501" lon="7.29652">
        <ele>507.19999694824</ele>
        <time>2022-03-19T10:09:10.402Z</time>
      </trkpt>
      <trkpt lat="46.96496" lon="7.29652">
        <ele>507.39999389648</ele>
        <time>2022-03-19T10:09:17.685Z</time>
      </trkpt>
      <trkpt lat="46.96491" lon="7.2965">
        <ele>507.5</ele>
        <time>2022-03-19T10:09:23.495Z</time>
      </trkpt>
      <trkpt lat="46.96474" lon="7.29643">
        <ele>508.29998779297</ele>
        <time>2022-03-19T10:09:51.143Z</time>
      </trkpt>
      <trkpt lat="46.96467" lon="7.29641">
        <ele>508.79998779297</ele>
        <time>2022-03-19T10:10:04.399Z</time>
      </trkpt>
      <trkpt lat="46.96461" lon="7.2964">
        <ele>509</ele>
        <time>2022-03-19T10:10:12.400Z</time>
      </trkpt>
      <trkpt lat="46.96453" lon="7.29639">
        <ele>509.39999389648</ele>
        <time>2022-03-19T10:10:25.342Z</time>
      </trkpt>
      <trkpt lat="46.96445" lon="7.29639">
        <ele>509.69999694824</ele>
        <time>2022-03-19T10:10:36.589Z</time>
      </trkpt>
      <trkpt lat="46.96439" lon="7.2964">
        <ele>509.89999389648</ele>
        <time>2022-03-19T10:10:44.590Z</time>
      </trkpt>
      <trkpt lat="46.96429" lon="7.29643">
        <ele>510.29998779297</ele>
        <time>2022-03-19T10:10:59.286Z</time>
      </trkpt>
      <trkpt lat="46.96422" lon="7.29646">
        <ele>510.69999694824</ele>
        <time>2022-03-19T10:11:11.442Z</time>
      </trkpt>
      <trkpt lat="46.96413" lon="7.2965">
        <ele>511</ele>
        <time>2022-03-19T10:11:23.706Z</time>
      </trkpt>
      <trkpt lat="46.96398" lon="7.29659">
        <ele>511.79998779297</ele>
        <time>2022-03-19T10:11:49.754Z</time>
      </trkpt>
      <trkpt lat="46.9639" lon="7.29664">
        <ele>511.89999389648</ele>
        <time>2022-03-19T10:11:58.726Z</time>
      </trkpt>
      <trkpt lat="46.96386" lon="7.29667">
        <ele>512</ele>
        <time>2022-03-19T10:12:03.936Z</time>
      </trkpt>
      <trkpt lat="46.96383" lon="7.2967">
        <ele>511.89999389648</ele>
        <time>2022-03-19T10:12:04.933Z</time>
      </trkpt>
      <trkpt lat="46.96381" lon="7.29673">
        <ele>511.79998779297</ele>
        <time>2022-03-19T10:12:05.661Z</time>
      </trkpt>
      <trkpt lat="46.96379" lon="7.29678">
        <ele>511.59999084473</ele>
        <time>2022-03-19T10:12:06.531Z</time>
      </trkpt>
      <trkpt lat="46.96379" lon="7.29683">
        <ele>511.39999389648</ele>
        <time>2022-03-19T10:12:07.233Z</time>
      </trkpt>
      <trkpt lat="46.96379" lon="7.29687">
        <ele>511.29998779297</ele>
        <time>2022-03-19T10:12:07.915Z</time>
      </trkpt>
      <trkpt lat="46.96379" lon="7.29693">
        <ele>511.19999694824</ele>
        <time>2022-03-19T10:12:09.079Z</time>
      </trkpt>
      <trkpt lat="46.9638" lon="7.29697">
        <ele>511.09999084473</ele>
        <time>2022-03-19T10:12:09.822Z</time>
      </trkpt>
      <trkpt lat="46.96383" lon="7.29703">
        <ele>510.89999389648</ele>
        <time>2022-03-19T10:12:11.058Z</time>
      </trkpt>
      <trkpt lat="46.96386" lon="7.29707">
        <ele>510.69999694824</ele>
        <time>2022-03-19T10:12:11.960Z</time>
      </trkpt>
      <trkpt lat="46.96391" lon="7.29712">
        <ele>510.69999694824</ele>
        <time>2022-03-19T10:12:17.547Z</time>
      </trkpt>
      <trkpt lat="46.96408" lon="7.29721">
        <ele>510.39999389648</ele>
        <time>2022-03-19T10:12:23.173Z</time>
      </trkpt>
      <trkpt lat="46.96411" lon="7.29724">
        <ele>510.39999389648</ele>
        <time>2022-03-19T10:12:26.525Z</time>
      </trkpt>
      <trkpt lat="46.96413" lon="7.29726">
        <ele>510.29998779297</ele>
        <time>2022-03-19T10:12:27.104Z</time>
      </trkpt>
      <trkpt lat="46.96415" lon="7.29729">
        <ele>510.19999694824</ele>
        <time>2022-03-19T10:12:27.832Z</time>
      </trkpt>
      <trkpt lat="46.96416" lon="7.29733">
        <ele>510</ele>
        <time>2022-03-19T10:12:28.445Z</time>
      </trkpt>
      <trkpt lat="46.96417" lon="7.29737">
        <ele>509.69999694824</ele>
        <time>2022-03-19T10:12:29.058Z</time>
      </trkpt>
      <trkpt lat="46.96417" lon="7.29742">
        <ele>509.5</ele>
        <time>2022-03-19T10:12:29.760Z</time>
      </trkpt>
      <trkpt lat="46.96417" lon="7.29746">
        <ele>509.19999694824</ele>
        <time>2022-03-19T10:12:30.335Z</time>
      </trkpt>
      <trkpt lat="46.96415" lon="7.2975">
        <ele>508.89999389648</ele>
        <time>2022-03-19T10:12:31.049Z</time>
      </trkpt>
      <trkpt lat="46.96414" lon="7.29754">
        <ele>508.59999084473</ele>
        <time>2022-03-19T10:12:31.661Z</time>
      </trkpt>
      <trkpt lat="46.96411" lon="7.29757">
        <ele>508.39999389648</ele>
        <time>2022-03-19T10:12:32.431Z</time>
      </trkpt>
      <trkpt lat="46.96408" lon="7.29759">
        <ele>508.09999084473</ele>
        <time>2022-03-19T10:12:33.125Z</time>
      </trkpt>
      <trkpt lat="46.96404" lon="7.29761">
        <ele>507.69999694824</ele>
        <time>2022-03-19T10:12:34.016Z</time>
      </trkpt>
      <trkpt lat="46.96383" lon="7.29767">
        <ele>506.5</ele>
        <time>2022-03-19T10:12:38.509Z</time>
      </trkpt>
      <trkpt lat="46.96376" lon="7.29769">
        <ele>506.29998779297</ele>
        <time>2022-03-19T10:12:40.456Z</time>
      </trkpt>
      <trkpt lat="46.96366" lon="7.29774">
        <ele>505.89999389648</ele>
        <time>2022-03-19T10:12:43.067Z</time>
      </trkpt>
      <trkpt lat="46.96362" lon="7.29777">
        <ele>505.69999694824</ele>
        <time>2022-03-19T10:12:44.110Z</time>
      </trkpt>
      <trkpt lat="46.96359" lon="7.29781">
        <ele>505.5</ele>
        <time>2022-03-19T10:12:45.012Z</time>
      </trkpt>
      <trkpt lat="46.96356" lon="7.29786">
        <ele>505.39999389648</ele>
        <time>2022-03-19T10:12:46.339Z</time>
      </trkpt>
      <trkpt lat="46.96349" lon="7.298">
        <ele>505.09999084473</ele>
        <time>2022-03-19T10:12:49.670Z</time>
      </trkpt>
      <trkpt lat="46.96342" lon="7.29819">
        <ele>504.59999084473</ele>
        <time>2022-03-19T10:12:53.455Z</time>
      </trkpt>
      <trkpt lat="46.96331" lon="7.29848">
        <ele>505.09999084473</ele>
        <time>2022-03-19T10:13:19.652Z</time>
      </trkpt>
      <trkpt lat="46.96317" lon="7.29883">
        <ele>506.69999694824</ele>
        <time>2022-03-19T10:14:06.738Z</time>
      </trkpt>
      <trkpt lat="46.96311" lon="7.29894">
        <ele>507.39999389648</ele>
        <time>2022-03-19T10:14:24.977Z</time>
      </trkpt>
      <trkpt lat="46.96299" lon="7.29912">
        <ele>508.69999694824</ele>
        <time>2022-03-19T10:14:58.303Z</time>
      </trkpt>
      <trkpt lat="46.96272" lon="7.29956">
        <ele>513.79998779297</ele>
        <time>2022-03-19T10:17:08.614Z</time>
      </trkpt>
      <trkpt lat="46.96257" lon="7.2998">
        <ele>517</ele>
        <time>2022-03-19T10:18:27.682Z</time>
      </trkpt>
      <trkpt lat="46.96253" lon="7.29987">
        <ele>517.89999389648</ele>
        <time>2022-03-19T10:18:49.863Z</time>
      </trkpt>
      <trkpt lat="46.96253" lon="7.29988">
        <ele>517.89999389648</ele>
        <time>2022-03-19T10:18:50.493Z</time>
      </trkpt>
      <trkpt lat="46.96253" lon="7.29987">
        <ele>517.89999389648</ele>
        <time>2022-03-19T10:18:51.123Z</time>
      </trkpt>
      <trkpt lat="46.96244" lon="7.30002">
        <ele>518.89999389648</ele>
        <time>2022-03-19T10:19:17.097Z</time>
      </trkpt>
      <trkpt lat="46.96236" lon="7.30017">
        <ele>520.09997558594</ele>
        <time>2022-03-19T10:19:46.121Z</time>
      </trkpt>
      <trkpt lat="46.96229" lon="7.30032">
        <ele>521.39999389648</ele>
        <time>2022-03-19T10:20:17.356Z</time>
      </trkpt>
      <trkpt lat="46.96223" lon="7.30048">
        <ele>522.79998779297</ele>
        <time>2022-03-19T10:20:51.357Z</time>
      </trkpt>
      <trkpt lat="46.96213" lon="7.30078">
        <ele>525.79998779297</ele>
        <time>2022-03-19T10:22:10.447Z</time>
      </trkpt>
      <trkpt lat="46.96207" lon="7.30096">
        <ele>527.29998779297</ele>
        <time>2022-03-19T10:22:46.693Z</time>
      </trkpt>
      <trkpt lat="46.96203" lon="7.30118">
        <ele>528.39999389648</ele>
        <time>2022-03-19T10:23:15.724Z</time>
      </trkpt>
      <trkpt lat="46.96199" lon="7.30142">
        <ele>529.89999389648</ele>
        <time>2022-03-19T10:23:52.264Z</time>
      </trkpt>
      <trkpt lat="46.96198" lon="7.30147">
        <ele>530.09997558594</ele>
        <time>2022-03-19T10:23:58.247Z</time>
      </trkpt>
      <trkpt lat="46.96196" lon="7.30156">
        <ele>530.59997558594</ele>
        <time>2022-03-19T10:24:10.953Z</time>
      </trkpt>
      <trkpt lat="46.96193" lon="7.30166">
        <ele>530.79998779297</ele>
        <time>2022-03-19T10:24:20.076Z</time>
      </trkpt>
      <trkpt lat="46.96192" lon="7.30174">
        <ele>530.69998168945</ele>
        <time>2022-03-19T10:24:21.774Z</time>
      </trkpt>
      <trkpt lat="46.9619" lon="7.30188">
        <ele>530.39999389648</ele>
        <time>2022-03-19T10:24:24.365Z</time>
      </trkpt>
      <trkpt lat="46.96189" lon="7.30192">
        <ele>530.19998168945</ele>
        <time>2022-03-19T10:24:24.978Z</time>
      </trkpt>
      <trkpt lat="46.96188" lon="7.30196">
        <ele>530</ele>
        <time>2022-03-19T10:24:25.591Z</time>
      </trkpt>
      <trkpt lat="46.96186" lon="7.30201">
        <ele>529.69998168945</ele>
        <time>2022-03-19T10:24:26.425Z</time>
      </trkpt>
      <trkpt lat="46.96182" lon="7.30206">
        <ele>529.5</ele>
        <time>2022-03-19T10:24:27.722Z</time>
      </trkpt>
      <trkpt lat="46.96178" lon="7.30214">
        <ele>528.89999389648</ele>
        <time>2022-03-19T10:24:29.149Z</time>
      </trkpt>
      <trkpt lat="46.96175" lon="7.30219">
        <ele>528.69998168945</ele>
        <time>2022-03-19T10:24:30.208Z</time>
      </trkpt>
      <trkpt lat="46.96173" lon="7.30223">
        <ele>528.59997558594</ele>
        <time>2022-03-19T10:24:31.118Z</time>
      </trkpt>
      <trkpt lat="46.96172" lon="7.30226">
        <ele>528.5</ele>
        <time>2022-03-19T10:24:31.650Z</time>
      </trkpt>
      <trkpt lat="46.96171" lon="7.3023">
        <ele>528.39999389648</ele>
        <time>2022-03-19T10:24:32.393Z</time>
      </trkpt>
      <trkpt lat="46.96171" lon="7.30234">
        <ele>528.09997558594</ele>
        <time>2022-03-19T10:24:32.968Z</time>
      </trkpt>
      <trkpt lat="46.96171" lon="7.30238">
        <ele>527.79998779297</ele>
        <time>2022-03-19T10:24:33.544Z</time>
      </trkpt>
      <trkpt lat="46.96171" lon="7.30247">
        <ele>526.89999389648</ele>
        <time>2022-03-19T10:24:34.839Z</time>
      </trkpt>
      <trkpt lat="46.96171" lon="7.30251">
        <ele>526.5</ele>
        <time>2022-03-19T10:24:35.414Z</time>
      </trkpt>
      <trkpt lat="46.96168" lon="7.30277">
        <ele>524.69998168945</ele>
        <time>2022-03-19T10:24:39.208Z</time>
      </trkpt>
      <trkpt lat="46.96168" lon="7.30287">
        <ele>524.09997558594</ele>
        <time>2022-03-19T10:24:40.647Z</time>
      </trkpt>
      <trkpt lat="46.96169" lon="7.30292">
        <ele>523.39999389648</ele>
        <time>2022-03-19T10:24:41.397Z</time>
      </trkpt>
      <trkpt lat="46.96172" lon="7.30299">
        <ele>521.39999389648</ele>
        <time>2022-03-19T10:24:42.586Z</time>
      </trkpt>
      <trkpt lat="46.96173" lon="7.30304">
        <ele>520.5</ele>
        <time>2022-03-19T10:24:43.336Z</time>
      </trkpt>
      <trkpt lat="46.96174" lon="7.30309">
        <ele>519.89999389648</ele>
        <time>2022-03-19T10:24:44.085Z</time>
      </trkpt>
      <trkpt lat="46.96174" lon="7.30313">
        <ele>519.19998168945</ele>
        <time>2022-03-19T10:24:44.661Z</time>
      </trkpt>
      <trkpt lat="46.96174" lon="7.30317">
        <ele>519.09997558594</ele>
        <time>2022-03-19T10:24:45.344Z</time>
      </trkpt>
      <trkpt lat="46.96173" lon="7.30325">
        <ele>520.39999389648</ele>
        <time>2022-03-19T10:25:05.104Z</time>
      </trkpt>
      <trkpt lat="46.96173" lon="7.30328">
        <ele>520.89999389648</ele>
        <time>2022-03-19T10:25:12.393Z</time>
      </trkpt>
      <trkpt lat="46.96177" lon="7.30333">
        <ele>520</ele>
        <time>2022-03-19T10:25:13.502Z</time>
      </trkpt>
      <trkpt lat="46.9618" lon="7.30336">
        <ele>519.29998779297</ele>
        <time>2022-03-19T10:25:14.267Z</time>
      </trkpt>
      <trkpt lat="46.96184" lon="7.30339">
        <ele>518</ele>
        <time>2022-03-19T10:25:15.215Z</time>
      </trkpt>
      <trkpt lat="46.96187" lon="7.30342">
        <ele>516.89999389648</ele>
        <time>2022-03-19T10:25:15.980Z</time>
      </trkpt>
      <trkpt lat="46.96191" lon="7.30344">
        <ele>515.59997558594</ele>
        <time>2022-03-19T10:25:16.871Z</time>
      </trkpt>
      <trkpt lat="46.96193" lon="7.30345">
        <ele>514.59997558594</ele>
        <time>2022-03-19T10:25:17.317Z</time>
      </trkpt>
      <trkpt lat="46.96195" lon="7.30345">
        <ele>514.19998168945</ele>
        <time>2022-03-19T10:25:17.739Z</time>
      </trkpt>
      <trkpt lat="46.96196" lon="7.30344">
        <ele>513.79998779297</ele>
        <time>2022-03-19T10:25:17.994Z</time>
      </trkpt>
      <trkpt lat="46.96198" lon="7.30342">
        <ele>512.5</ele>
        <time>2022-03-19T10:25:18.504Z</time>
      </trkpt>
      <trkpt lat="46.96198" lon="7.3034">
        <ele>511.89999389648</ele>
        <time>2022-03-19T10:25:18.792Z</time>
      </trkpt>
      <trkpt lat="46.96198" lon="7.30337">
        <ele>511.09999084473</ele>
        <time>2022-03-19T10:25:19.224Z</time>
      </trkpt>
      <trkpt lat="46.96198" lon="7.30335">
        <ele>511</ele>
        <time>2022-03-19T10:25:19.511Z</time>
      </trkpt>
      <trkpt lat="46.96197" lon="7.30333">
        <ele>510.89999389648</ele>
        <time>2022-03-19T10:25:19.858Z</time>
      </trkpt>
      <trkpt lat="46.96196" lon="7.30332">
        <ele>510.5</ele>
        <time>2022-03-19T10:25:20.113Z</time>
      </trkpt>
      <trkpt lat="46.96197" lon="7.30331">
        <ele>510.19999694824</ele>
        <time>2022-03-19T10:25:20.369Z</time>
      </trkpt>
      <trkpt lat="46.96198" lon="7.3033">
        <ele>509.79998779297</ele>
        <time>2022-03-19T10:25:20.624Z</time>
      </trkpt>
      <trkpt lat="46.96199" lon="7.30331">
        <ele>509.39999389648</ele>
        <time>2022-03-19T10:25:20.879Z</time>
      </trkpt>
      <trkpt lat="46.96201" lon="7.30333">
        <ele>509.09999084473</ele>
        <time>2022-03-19T10:25:21.389Z</time>
      </trkpt>
      <trkpt lat="46.96203" lon="7.30334">
        <ele>508.79998779297</ele>
        <time>2022-03-19T10:25:21.835Z</time>
      </trkpt>
      <trkpt lat="46.96206" lon="7.30335">
        <ele>508.19999694824</ele>
        <time>2022-03-19T10:25:22.484Z</time>
      </trkpt>
      <trkpt lat="46.96208" lon="7.30335">
        <ele>507.19999694824</ele>
        <time>2022-03-19T10:25:22.905Z</time>
      </trkpt>
      <trkpt lat="46.9621" lon="7.30335">
        <ele>506</ele>
        <time>2022-03-19T10:25:23.327Z</time>
      </trkpt>
      <trkpt lat="46.96211" lon="7.30333">
        <ele>505.09999084473</ele>
        <time>2022-03-19T10:25:23.684Z</time>
      </trkpt>
      <trkpt lat="46.96212" lon="7.3033">
        <ele>503.89999389648</ele>
        <time>2022-03-19T10:25:24.164Z</time>
      </trkpt>
      <trkpt lat="46.96213" lon="7.30327">
        <ele>503.09999084473</ele>
        <time>2022-03-19T10:25:24.644Z</time>
      </trkpt>
      <trkpt lat="46.96213" lon="7.30323">
        <ele>502.29998779297</ele>
        <time>2022-03-19T10:25:25.220Z</time>
      </trkpt>
      <trkpt lat="46.96213" lon="7.30319">
        <ele>501.5</ele>
        <time>2022-03-19T10:25:25.795Z</time>
      </trkpt>
      <trkpt lat="46.96213" lon="7.30313">
        <ele>500.39999389648</ele>
        <time>2022-03-19T10:25:26.659Z</time>
      </trkpt>
      <trkpt lat="46.96214" lon="7.30311">
        <ele>499.79998779297</ele>
        <time>2022-03-19T10:25:27.015Z</time>
      </trkpt>
      <trkpt lat="46.96215" lon="7.30309">
        <ele>499.09999084473</ele>
        <time>2022-03-19T10:25:27.372Z</time>
      </trkpt>
      <trkpt lat="46.96216" lon="7.30308">
        <ele>498.59999084473</ele>
        <time>2022-03-19T10:25:27.627Z</time>
      </trkpt>
      <trkpt lat="46.96217" lon="7.30308">
        <ele>498.19999694824</ele>
        <time>2022-03-19T10:25:27.838Z</time>
      </trkpt>
      <trkpt lat="46.96218" lon="7.30309">
        <ele>497.39999389648</ele>
        <time>2022-03-19T10:25:28.093Z</time>
      </trkpt>
      <trkpt lat="46.9622" lon="7.30311">
        <ele>496.69999694824</ele>
        <time>2022-03-19T10:25:28.604Z</time>
      </trkpt>
      <trkpt lat="46.96222" lon="7.30315">
        <ele>496.09999084473</ele>
        <time>2022-03-19T10:25:29.317Z</time>
      </trkpt>
      <trkpt lat="46.96223" lon="7.30319">
        <ele>496</ele>
        <time>2022-03-19T10:25:30.061Z</time>
      </trkpt>
      <trkpt lat="46.96224" lon="7.30323">
        <ele>496.19999694824</ele>
        <time>2022-03-19T10:25:35.411Z</time>
      </trkpt>
      <trkpt lat="46.96224" lon="7.30328">
        <ele>496.5</ele>
        <time>2022-03-19T10:25:42.739Z</time>
      </trkpt>
      <trkpt lat="46.96223" lon="7.30343">
        <ele>496.19999694824</ele>
        <time>2022-03-19T10:25:45.514Z</time>
      </trkpt>
      <trkpt lat="46.96223" lon="7.30346">
        <ele>495.89999389648</ele>
        <time>2022-03-19T10:25:45.946Z</time>
      </trkpt>
      <trkpt lat="46.96224" lon="7.30348">
        <ele>495</ele>
        <time>2022-03-19T10:25:46.303Z</time>
      </trkpt>
      <trkpt lat="46.96225" lon="7.30349">
        <ele>493.79998779297</ele>
        <time>2022-03-19T10:25:46.558Z</time>
      </trkpt>
      <trkpt lat="46.96227" lon="7.30349">
        <ele>493.09999084473</ele>
        <time>2022-03-19T10:25:46.980Z</time>
      </trkpt>
      <trkpt lat="46.96228" lon="7.30349">
        <ele>492.59999084473</ele>
        <time>2022-03-19T10:25:47.190Z</time>
      </trkpt>
      <trkpt lat="46.96229" lon="7.30349">
        <ele>491.29998779297</ele>
        <time>2022-03-19T10:25:47.401Z</time>
      </trkpt>
      <trkpt lat="46.96231" lon="7.30352">
        <ele>489.5</ele>
        <time>2022-03-19T10:25:48.005Z</time>
      </trkpt>
      <trkpt lat="46.96231" lon="7.30354">
        <ele>489.09999084473</ele>
        <time>2022-03-19T10:25:48.292Z</time>
      </trkpt>
      <trkpt lat="46.96231" lon="7.30355">
        <ele>488.59999084473</ele>
        <time>2022-03-19T10:25:48.436Z</time>
      </trkpt>
      <trkpt lat="46.96233" lon="7.30357">
        <ele>487.59999084473</ele>
        <time>2022-03-19T10:25:48.947Z</time>
      </trkpt>
      <trkpt lat="46.96234" lon="7.30358">
        <ele>487</ele>
        <time>2022-03-19T10:25:49.202Z</time>
      </trkpt>
      <trkpt lat="46.96234" lon="7.3036">
        <ele>486.79998779297</ele>
        <time>2022-03-19T10:25:49.490Z</time>
      </trkpt>
      <trkpt lat="46.96234" lon="7.30367">
        <ele>486.69999694824</ele>
        <time>2022-03-19T10:25:50.902Z</time>
      </trkpt>
      <trkpt lat="46.96234" lon="7.30377">
        <ele>485.69999694824</ele>
        <time>2022-03-19T10:25:52.341Z</time>
      </trkpt>
      <trkpt lat="46.96233" lon="7.30383">
        <ele>485</ele>
        <time>2022-03-19T10:25:53.229Z</time>
      </trkpt>
      <trkpt lat="46.96232" lon="7.30386">
        <ele>484.79998779297</ele>
        <time>2022-03-19T10:25:53.710Z</time>
      </trkpt>
      <trkpt lat="46.96231" lon="7.30391">
        <ele>483.89999389648</ele>
        <time>2022-03-19T10:25:54.459Z</time>
      </trkpt>
      <trkpt lat="46.96231" lon="7.30396">
        <ele>483.09999084473</ele>
        <time>2022-03-19T10:25:55.179Z</time>
      </trkpt>
      <trkpt lat="46.9623" lon="7.30401">
        <ele>482.29998779297</ele>
        <time>2022-03-19T10:25:55.928Z</time>
      </trkpt>
      <trkpt lat="46.96228" lon="7.30406">
        <ele>481.79998779297</ele>
        <time>2022-03-19T10:25:56.762Z</time>
      </trkpt>
      <trkpt lat="46.96226" lon="7.30411">
        <ele>481.5</ele>
        <time>2022-03-19T10:25:57.596Z</time>
      </trkpt>
      <trkpt lat="46.96225" lon="7.30415">
        <ele>481.39999389648</ele>
        <time>2022-03-19T10:25:58.339Z</time>
      </trkpt>
      <trkpt lat="46.96224" lon="7.30419">
        <ele>481.5</ele>
        <time>2022-03-19T10:26:02.257Z</time>
      </trkpt>
      <trkpt lat="46.96224" lon="7.30427">
        <ele>481.69999694824</ele>
        <time>2022-03-19T10:26:09.841Z</time>
      </trkpt>
      <trkpt lat="46.96224" lon="7.30433">
        <ele>481.69999694824</ele>
        <time>2022-03-19T10:26:13.620Z</time>
      </trkpt>
      <trkpt lat="46.96224" lon="7.30437">
        <ele>482.89999389648</ele>
        <time>2022-03-19T10:26:23.339Z</time>
      </trkpt>
      <trkpt lat="46.96225" lon="7.30441">
        <ele>483.79998779297</ele>
        <time>2022-03-19T10:26:33.689Z</time>
      </trkpt>
      <trkpt lat="46.96227" lon="7.30445">
        <ele>484.59999084473</ele>
        <time>2022-03-19T10:26:45.737Z</time>
      </trkpt>
      <trkpt lat="46.96229" lon="7.30449">
        <ele>484.59999084473</ele>
        <time>2022-03-19T10:26:48.860Z</time>
      </trkpt>
      <trkpt lat="46.96235" lon="7.30459">
        <ele>483.79998779297</ele>
        <time>2022-03-19T10:26:50.776Z</time>
      </trkpt>
      <trkpt lat="46.96238" lon="7.30463">
        <ele>483.39999389648</ele>
        <time>2022-03-19T10:26:51.631Z</time>
      </trkpt>
      <trkpt lat="46.96243" lon="7.30469">
        <ele>482.69999694824</ele>
        <time>2022-03-19T10:26:52.993Z</time>
      </trkpt>
      <trkpt lat="46.96245" lon="7.30473">
        <ele>482.59999084473</ele>
        <time>2022-03-19T10:26:53.903Z</time>
      </trkpt>
      <trkpt lat="46.96247" lon="7.30476">
        <ele>482.5</ele>
        <time>2022-03-19T10:26:54.631Z</time>
      </trkpt>
      <trkpt lat="46.96249" lon="7.30481">
        <ele>482.39999389648</ele>
        <time>2022-03-19T10:26:55.744Z</time>
      </trkpt>
      <trkpt lat="46.9625" lon="7.30486">
        <ele>482.5</ele>
        <time>2022-03-19T10:27:00.164Z</time>
      </trkpt>
      <trkpt lat="46.96252" lon="7.30496">
        <ele>482.69999694824</ele>
        <time>2022-03-19T10:27:09.006Z</time>
      </trkpt>
      <trkpt lat="46.96252" lon="7.305">
        <ele>482.69999694824</ele>
        <time>2022-03-19T10:27:11.525Z</time>
      </trkpt>
      <trkpt lat="46.96252" lon="7.30504">
        <ele>483</ele>
        <time>2022-03-19T10:27:18.777Z</time>
      </trkpt>
      <trkpt lat="46.96251" lon="7.30509">
        <ele>483.19999694824</ele>
        <time>2022-03-19T10:27:24.760Z</time>
      </trkpt>
      <trkpt lat="46.96251" lon="7.30513">
        <ele>483.29998779297</ele>
        <time>2022-03-19T10:27:28.552Z</time>
      </trkpt>
      <trkpt lat="46.96251" lon="7.30522">
        <ele>483</ele>
        <time>2022-03-19T10:27:29.924Z</time>
      </trkpt>
      <trkpt lat="46.96251" lon="7.30534">
        <ele>482.59999084473</ele>
        <time>2022-03-19T10:27:31.752Z</time>
      </trkpt>
      <trkpt lat="46.96251" lon="7.30537">
        <ele>482.5</ele>
        <time>2022-03-19T10:27:32.210Z</time>
      </trkpt>
      <trkpt lat="46.96252" lon="7.3054">
        <ele>482.29998779297</ele>
        <time>2022-03-19T10:27:32.690Z</time>
      </trkpt>
      <trkpt lat="46.96252" lon="7.30544">
        <ele>482.5</ele>
        <time>2022-03-19T10:27:37.888Z</time>
      </trkpt>
      <trkpt lat="46.96251" lon="7.30548">
        <ele>483.19999694824</ele>
        <time>2022-03-19T10:27:48.238Z</time>
      </trkpt>
      <trkpt lat="46.96249" lon="7.30552">
        <ele>483.59999084473</ele>
        <time>2022-03-19T10:27:58.111Z</time>
      </trkpt>
      <trkpt lat="46.96247" lon="7.30566">
        <ele>483.69999694824</ele>
        <time>2022-03-19T10:28:08.054Z</time>
      </trkpt>
      <trkpt lat="46.96246" lon="7.30572">
        <ele>483.59999084473</ele>
        <time>2022-03-19T10:28:09.261Z</time>
      </trkpt>
      <trkpt lat="46.96244" lon="7.3058">
        <ele>483.39999389648</ele>
        <time>2022-03-19T10:28:10.747Z</time>
      </trkpt>
      <trkpt lat="46.96244" lon="7.30585">
        <ele>483.89999389648</ele>
        <time>2022-03-19T10:28:22.896Z</time>
      </trkpt>
      <trkpt lat="46.96243" lon="7.30589">
        <ele>484.5</ele>
        <time>2022-03-19T10:28:33.245Z</time>
      </trkpt>
      <trkpt lat="46.96243" lon="7.30599">
        <ele>485.09999084473</ele>
        <time>2022-03-19T10:28:47.900Z</time>
      </trkpt>
      <trkpt lat="46.96243" lon="7.30605">
        <ele>485.5</ele>
        <time>2022-03-19T10:28:57.512Z</time>
      </trkpt>
      <trkpt lat="46.96245" lon="7.30621">
        <ele>485.5</ele>
        <time>2022-03-19T10:29:07.758Z</time>
      </trkpt>
      <trkpt lat="46.96245" lon="7.30624">
        <ele>485.59999084473</ele>
        <time>2022-03-19T10:29:11.037Z</time>
      </trkpt>
      <trkpt lat="46.96244" lon="7.30628">
        <ele>485.89999389648</ele>
        <time>2022-03-19T10:29:18.239Z</time>
      </trkpt>
      <trkpt lat="46.96242" lon="7.30632">
        <ele>486.09999084473</ele>
        <time>2022-03-19T10:29:24.047Z</time>
      </trkpt>
      <trkpt lat="46.96241" lon="7.30635">
        <ele>486.29998779297</ele>
        <time>2022-03-19T10:29:28.933Z</time>
      </trkpt>
      <trkpt lat="46.96237" lon="7.30649">
        <ele>486.89999389648</ele>
        <time>2022-03-19T10:29:46.565Z</time>
      </trkpt>
      <trkpt lat="46.96237" lon="7.30653">
        <ele>486.89999389648</ele>
        <time>2022-03-19T10:29:49.085Z</time>
      </trkpt>
      <trkpt lat="46.96238" lon="7.30659">
        <ele>486.39999389648</ele>
        <time>2022-03-19T10:29:49.974Z</time>
      </trkpt>
      <trkpt lat="46.96239" lon="7.30665">
        <ele>485.09999084473</ele>
        <time>2022-03-19T10:29:50.862Z</time>
      </trkpt>
      <trkpt lat="46.9624" lon="7.30668">
        <ele>484.29998779297</ele>
        <time>2022-03-19T10:29:51.343Z</time>
      </trkpt>
      <trkpt lat="46.9624" lon="7.3067">
        <ele>483.69999694824</ele>
        <time>2022-03-19T10:29:51.631Z</time>
      </trkpt>
      <trkpt lat="46.96239" lon="7.30671">
        <ele>483.39999389648</ele>
        <time>2022-03-19T10:29:51.886Z</time>
      </trkpt>
      <trkpt lat="46.96237" lon="7.30671">
        <ele>483</ele>
        <time>2022-03-19T10:29:52.307Z</time>
      </trkpt>
      <trkpt lat="46.96234" lon="7.30671">
        <ele>482.5</ele>
        <time>2022-03-19T10:29:52.940Z</time>
      </trkpt>
      <trkpt lat="46.96231" lon="7.30671">
        <ele>482.19999694824</ele>
        <time>2022-03-19T10:29:53.572Z</time>
      </trkpt>
      <trkpt lat="46.96229" lon="7.30671">
        <ele>481.89999389648</ele>
        <time>2022-03-19T10:29:53.994Z</time>
      </trkpt>
      <trkpt lat="46.96223" lon="7.3067">
        <ele>481.5</ele>
        <time>2022-03-19T10:29:55.164Z</time>
      </trkpt>
      <trkpt lat="46.96219" lon="7.3067">
        <ele>481.59999084473</ele>
        <time>2022-03-19T10:29:59.952Z</time>
      </trkpt>
      <trkpt lat="46.96215" lon="7.3067">
        <ele>481.59999084473</ele>
        <time>2022-03-19T10:30:03.644Z</time>
      </trkpt>
      <trkpt lat="46.9621" lon="7.30672">
        <ele>481.79998779297</ele>
        <time>2022-03-19T10:30:11.043Z</time>
      </trkpt>
      <trkpt lat="46.96193" lon="7.30678">
        <ele>481.39999389648</ele>
        <time>2022-03-19T10:30:16.098Z</time>
      </trkpt>
      <trkpt lat="46.96188" lon="7.30678">
        <ele>481.39999389648</ele>
        <time>2022-03-19T10:30:20.713Z</time>
      </trkpt>
      <trkpt lat="46.96162" lon="7.30679">
        <ele>482.39999389648</ele>
        <time>2022-03-19T10:30:57.768Z</time>
      </trkpt>
      <trkpt lat="46.96152" lon="7.3068">
        <ele>482.5</ele>
        <time>2022-03-19T10:31:07.950Z</time>
      </trkpt>
      <trkpt lat="46.96144" lon="7.30681">
        <ele>482.59999084473</ele>
        <time>2022-03-19T10:31:16.314Z</time>
      </trkpt>
      <trkpt lat="46.96138" lon="7.30681">
        <ele>482.79998779297</ele>
        <time>2022-03-19T10:31:24.286Z</time>
      </trkpt>
      <trkpt lat="46.96125" lon="7.30681">
        <ele>483.19999694824</ele>
        <time>2022-03-19T10:31:40.993Z</time>
      </trkpt>
      <trkpt lat="46.96121" lon="7.30681">
        <ele>483.29998779297</ele>
        <time>2022-03-19T10:31:45.782Z</time>
      </trkpt>
      <trkpt lat="46.9611" lon="7.30685">
        <ele>483.69999694824</ele>
        <time>2022-03-19T10:32:01.239Z</time>
      </trkpt>
      <trkpt lat="46.96092" lon="7.30695">
        <ele>484.5</ele>
        <time>2022-03-19T10:32:29.927Z</time>
      </trkpt>
      <trkpt lat="46.96085" lon="7.30696">
        <ele>484.69999694824</ele>
        <time>2022-03-19T10:32:38.705Z</time>
      </trkpt>
      <trkpt lat="46.96079" lon="7.30693">
        <ele>484.79998779297</ele>
        <time>2022-03-19T10:32:45.544Z</time>
      </trkpt>
      <trkpt lat="46.96066" lon="7.30685">
        <ele>485.29998779297</ele>
        <time>2022-03-19T10:33:04.819Z</time>
      </trkpt>
      <trkpt lat="46.96057" lon="7.30678">
        <ele>486.09999084473</ele>
        <time>2022-03-19T10:33:25.041Z</time>
      </trkpt>
      <trkpt lat="46.96054" lon="7.30687">
        <ele>486.09999084473</ele>
        <time>2022-03-19T10:33:31.350Z</time>
      </trkpt>
      <trkpt lat="46.96055" lon="7.30695">
        <ele>486.29998779297</ele>
        <time>2022-03-19T10:33:38.997Z</time>
      </trkpt>
      <trkpt lat="46.96057" lon="7.30703">
        <ele>486.39999389648</ele>
        <time>2022-03-19T10:33:45.367Z</time>
      </trkpt>
      <trkpt lat="46.96064" lon="7.30713">
        <ele>486.59999084473</ele>
        <time>2022-03-19T10:33:56.471Z</time>
      </trkpt>
      <trkpt lat="46.96074" lon="7.30728">
        <ele>487.29998779297</ele>
        <time>2022-03-19T10:34:19.404Z</time>
      </trkpt>
      <trkpt lat="46.96083" lon="7.3074">
        <ele>487.5</ele>
        <time>2022-03-19T10:34:32.626Z</time>
      </trkpt>
      <trkpt lat="46.96089" lon="7.30746">
        <ele>488</ele>
        <time>2022-03-19T10:34:45.999Z</time>
      </trkpt>
      <trkpt lat="46.96095" lon="7.30749">
        <ele>488.59999084473</ele>
        <time>2022-03-19T10:35:00.460Z</time>
      </trkpt>
      <trkpt lat="46.96104" lon="7.30748">
        <ele>489.59999084473</ele>
        <time>2022-03-19T10:35:24.670Z</time>
      </trkpt>
      <trkpt lat="46.96113" lon="7.30749">
        <ele>490</ele>
        <time>2022-03-19T10:35:38.693Z</time>
      </trkpt>
      <trkpt lat="46.96122" lon="7.30753">
        <ele>490.79998779297</ele>
        <time>2022-03-19T10:35:58.398Z</time>
      </trkpt>
      <trkpt lat="46.96131" lon="7.30759">
        <ele>491.79998779297</ele>
        <time>2022-03-19T10:36:22.395Z</time>
      </trkpt>
      <trkpt lat="46.96145" lon="7.30765">
        <ele>492.69999694824</ele>
        <time>2022-03-19T10:36:47.891Z</time>
      </trkpt>
      <trkpt lat="46.96154" lon="7.30767">
        <ele>492.79998779297</ele>
        <time>2022-03-19T10:36:57.232Z</time>
      </trkpt>
      <trkpt lat="46.9616" lon="7.30768">
        <ele>493.29998779297</ele>
        <time>2022-03-19T10:37:09.645Z</time>
      </trkpt>
      <trkpt lat="46.96166" lon="7.30769">
        <ele>493.89999389648</ele>
        <time>2022-03-19T10:37:24.049Z</time>
      </trkpt>
      <trkpt lat="46.96173" lon="7.30772">
        <ele>495</ele>
        <time>2022-03-19T10:37:50.014Z</time>
      </trkpt>
      <trkpt lat="46.96177" lon="7.30776">
        <ele>495.5</ele>
        <time>2022-03-19T10:38:02.017Z</time>
      </trkpt>
      <trkpt lat="46.96179" lon="7.3078">
        <ele>495.79998779297</ele>
        <time>2022-03-19T10:38:09.330Z</time>
      </trkpt>
      <trkpt lat="46.96185" lon="7.30796">
        <ele>496.09999084473</ele>
        <time>2022-03-19T10:38:24.084Z</time>
      </trkpt>
      <trkpt lat="46.96188" lon="7.30804">
        <ele>495.69999694824</ele>
        <time>2022-03-19T10:38:25.310Z</time>
      </trkpt>
      <trkpt lat="46.9619" lon="7.30808">
        <ele>495.39999389648</ele>
        <time>2022-03-19T10:38:26.023Z</time>
      </trkpt>
      <trkpt lat="46.96193" lon="7.30813">
        <ele>494.89999389648</ele>
        <time>2022-03-19T10:38:26.981Z</time>
      </trkpt>
      <trkpt lat="46.96195" lon="7.3082">
        <ele>494.39999389648</ele>
        <time>2022-03-19T10:38:28.073Z</time>
      </trkpt>
      <trkpt lat="46.96201" lon="7.30832">
        <ele>493.5</ele>
        <time>2022-03-19T10:38:30.213Z</time>
      </trkpt>
      <trkpt lat="46.96206" lon="7.3084">
        <ele>492.79998779297</ele>
        <time>2022-03-19T10:38:31.774Z</time>
      </trkpt>
      <trkpt lat="46.96209" lon="7.30847">
        <ele>492.5</ele>
        <time>2022-03-19T10:38:32.988Z</time>
      </trkpt>
      <trkpt lat="46.96211" lon="7.30852">
        <ele>492.29998779297</ele>
        <time>2022-03-19T10:38:33.858Z</time>
      </trkpt>
      <trkpt lat="46.96212" lon="7.30859">
        <ele>492.09999084473</ele>
        <time>2022-03-19T10:38:35.028Z</time>
      </trkpt>
      <trkpt lat="46.96217" lon="7.30884">
        <ele>491.79998779297</ele>
        <time>2022-03-19T10:38:40.544Z</time>
      </trkpt>
      <trkpt lat="46.96219" lon="7.30896">
        <ele>492.09999084473</ele>
        <time>2022-03-19T10:38:52.087Z</time>
      </trkpt>
      <trkpt lat="46.96231" lon="7.30928">
        <ele>490.39999389648</ele>
        <time>2022-03-19T10:38:57.341Z</time>
      </trkpt>
      <trkpt lat="46.96245" lon="7.30969">
        <ele>488.19999694824</ele>
        <time>2022-03-19T10:39:03.937Z</time>
      </trkpt>
      <trkpt lat="46.96255" lon="7.31005">
        <ele>486.59999084473</ele>
        <time>2022-03-19T10:39:09.319Z</time>
      </trkpt>
      <trkpt lat="46.96258" lon="7.31019">
        <ele>486.39999389648</ele>
        <time>2022-03-19T10:39:12.313Z</time>
      </trkpt>
      <trkpt lat="46.9626" lon="7.31032">
        <ele>486.59999084473</ele>
        <time>2022-03-19T10:39:22.824Z</time>
      </trkpt>
      <trkpt lat="46.96264" lon="7.31051">
        <ele>486.39999389648</ele>
        <time>2022-03-19T10:39:27.146Z</time>
      </trkpt>
      <trkpt lat="46.96266" lon="7.31067">
        <ele>485.5</ele>
        <time>2022-03-19T10:39:29.486Z</time>
      </trkpt>
      <trkpt lat="46.96268" lon="7.31077">
        <ele>485</ele>
        <time>2022-03-19T10:39:30.986Z</time>
      </trkpt>
      <trkpt lat="46.96272" lon="7.31089">
        <ele>484.39999389648</ele>
        <time>2022-03-19T10:39:32.757Z</time>
      </trkpt>
      <trkpt lat="46.96278" lon="7.31107">
        <ele>484.19999694824</ele>
        <time>2022-03-19T10:39:37.117Z</time>
      </trkpt>
      <trkpt lat="46.96281" lon="7.31116">
        <ele>484</ele>
        <time>2022-03-19T10:39:38.960Z</time>
      </trkpt>
      <trkpt lat="46.96282" lon="7.31122">
        <ele>484.09999084473</ele>
        <time>2022-03-19T10:39:43.931Z</time>
      </trkpt>
      <trkpt lat="46.96284" lon="7.31133">
        <ele>483.79998779297</ele>
        <time>2022-03-19T10:39:45.836Z</time>
      </trkpt>
      <trkpt lat="46.96286" lon="7.31145">
        <ele>483.79998779297</ele>
        <time>2022-03-19T10:39:53.617Z</time>
      </trkpt>
      <trkpt lat="46.96287" lon="7.31156">
        <ele>484</ele>
        <time>2022-03-19T10:40:02.838Z</time>
      </trkpt>
      <trkpt lat="46.96288" lon="7.31161">
        <ele>483.89999389648</ele>
        <time>2022-03-19T10:40:03.808Z</time>
      </trkpt>
      <trkpt lat="46.9629" lon="7.31169">
        <ele>483.89999389648</ele>
        <time>2022-03-19T10:40:09.174Z</time>
      </trkpt>
      <trkpt lat="46.96297" lon="7.31194">
        <ele>484.29998779297</ele>
        <time>2022-03-19T10:40:30.416Z</time>
      </trkpt>
      <trkpt lat="46.96298" lon="7.31202">
        <ele>484.39999389648</ele>
        <time>2022-03-19T10:40:36.551Z</time>
      </trkpt>
      <trkpt lat="46.96301" lon="7.31235">
        <ele>484.09999084473</ele>
        <time>2022-03-19T10:40:43.929Z</time>
      </trkpt>
      <trkpt lat="46.96302" lon="7.3124">
        <ele>484.09999084473</ele>
        <time>2022-03-19T10:40:47.211Z</time>
      </trkpt>
      <trkpt lat="46.96305" lon="7.31246">
        <ele>484</ele>
        <time>2022-03-19T10:40:48.733Z</time>
      </trkpt>
      <trkpt lat="46.96307" lon="7.31248">
        <ele>483.89999389648</ele>
        <time>2022-03-19T10:40:49.312Z</time>
      </trkpt>
      <trkpt lat="46.96308" lon="7.3125">
        <ele>483.89999389648</ele>
        <time>2022-03-19T10:40:50.874Z</time>
      </trkpt>
      <trkpt lat="46.96311" lon="7.31252">
        <ele>483.79998779297</ele>
        <time>2022-03-19T10:40:51.752Z</time>
      </trkpt>
      <trkpt lat="46.96313" lon="7.31253">
        <ele>483.79998779297</ele>
        <time>2022-03-19T10:40:53.702Z</time>
      </trkpt>
      <trkpt lat="46.96317" lon="7.31255">
        <ele>483.69999694824</ele>
        <time>2022-03-19T10:40:54.914Z</time>
      </trkpt>
      <trkpt lat="46.9633" lon="7.31258">
        <ele>483.09999084473</ele>
        <time>2022-03-19T10:40:57.938Z</time>
      </trkpt>
      <trkpt lat="46.96337" lon="7.3126">
        <ele>482.69999694824</ele>
        <time>2022-03-19T10:40:59.436Z</time>
      </trkpt>
      <trkpt lat="46.96345" lon="7.31262">
        <ele>482.39999389648</ele>
        <time>2022-03-19T10:41:01.459Z</time>
      </trkpt>
      <trkpt lat="46.96351" lon="7.31265">
        <ele>482.29998779297</ele>
        <time>2022-03-19T10:41:03.452Z</time>
      </trkpt>
      <trkpt lat="46.96358" lon="7.31269">
        <ele>482.09999084473</ele>
        <time>2022-03-19T10:41:05.535Z</time>
      </trkpt>
      <trkpt lat="46.96363" lon="7.31272">
        <ele>482</ele>
        <time>2022-03-19T10:41:07.179Z</time>
      </trkpt>
      <trkpt lat="46.96367" lon="7.31275">
        <ele>481.89999389648</ele>
        <time>2022-03-19T10:41:08.487Z</time>
      </trkpt>
      <trkpt lat="46.96371" lon="7.31279">
        <ele>481.79998779297</ele>
        <time>2022-03-19T10:41:09.923Z</time>
      </trkpt>
      <trkpt lat="46.96374" lon="7.31283">
        <ele>481.69999694824</ele>
        <time>2022-03-19T10:41:11.073Z</time>
      </trkpt>
      <trkpt lat="46.96384" lon="7.31296">
        <ele>481.69999694824</ele>
        <time>2022-03-19T10:41:23.411Z</time>
      </trkpt>
      <trkpt lat="46.96393" lon="7.3131">
        <ele>481.39999389648</ele>
        <time>2022-03-19T10:41:27.206Z</time>
      </trkpt>
      <trkpt lat="46.96402" lon="7.31327">
        <ele>481.5</ele>
        <time>2022-03-19T10:41:41.660Z</time>
      </trkpt>
      <trkpt lat="46.96419" lon="7.31358">
        <ele>481.79998779297</ele>
        <time>2022-03-19T10:42:09.531Z</time>
      </trkpt>
      <trkpt lat="46.96427" lon="7.31372">
        <ele>482</ele>
        <time>2022-03-19T10:42:23.015Z</time>
      </trkpt>
      <trkpt lat="46.96436" lon="7.31384">
        <ele>482.39999389648</ele>
        <time>2022-03-19T10:42:39.084Z</time>
      </trkpt>
      <trkpt lat="46.96441" lon="7.31392">
        <ele>482.79998779297</ele>
        <time>2022-03-19T10:42:51.356Z</time>
      </trkpt>
      <trkpt lat="46.96442" lon="7.31395">
        <ele>482.89999389648</ele>
        <time>2022-03-19T10:42:54.873Z</time>
      </trkpt>
      <trkpt lat="46.96443" lon="7.31398">
        <ele>483</ele>
        <time>2022-03-19T10:42:58.390Z</time>
      </trkpt>
      <trkpt lat="46.96444" lon="7.314">
        <ele>483.09999084473</ele>
        <time>2022-03-19T10:43:01.294Z</time>
      </trkpt>
      <trkpt lat="46.96446" lon="7.31405">
        <ele>483.19999694824</ele>
        <time>2022-03-19T10:43:06.044Z</time>
      </trkpt>
      <trkpt lat="46.96453" lon="7.31427">
        <ele>484.29998779297</ele>
        <time>2022-03-19T10:43:35.998Z</time>
      </trkpt>
      <trkpt lat="46.96458" lon="7.31442">
        <ele>485.5</ele>
        <time>2022-03-19T10:44:04.841Z</time>
      </trkpt>
      <trkpt lat="46.96461" lon="7.31457">
        <ele>486.79998779297</ele>
        <time>2022-03-19T10:44:37.377Z</time>
      </trkpt>
      <trkpt lat="46.96477" lon="7.31509">
        <ele>494.29998779297</ele>
        <time>2022-03-19T10:46:55.958Z</time>
      </trkpt>
      <trkpt lat="46.96479" lon="7.31519">
        <ele>495.5</ele>
        <time>2022-03-19T10:47:21.275Z</time>
      </trkpt>
      <trkpt lat="46.96481" lon="7.31531">
        <ele>496.29998779297</ele>
        <time>2022-03-19T10:47:40.550Z</time>
      </trkpt>
      <trkpt lat="46.96484" lon="7.31554">
        <ele>497.5</ele>
        <time>2022-03-19T10:48:11.415Z</time>
      </trkpt>
      <trkpt lat="46.96484" lon="7.31563">
        <ele>497.89999389648</ele>
        <time>2022-03-19T10:48:22.418Z</time>
      </trkpt>
      <trkpt lat="46.96485" lon="7.31572">
        <ele>498.79998779297</ele>
        <time>2022-03-19T10:48:44.571Z</time>
      </trkpt>
      <trkpt lat="46.96485" lon="7.31581">
        <ele>501</ele>
        <time>2022-03-19T10:49:06.437Z</time>
      </trkpt>
      <trkpt lat="46.96485" lon="7.31626">
        <ele>504.89999389648</ele>
        <time>2022-03-19T10:50:46.455Z</time>
      </trkpt>
      <trkpt lat="46.96485" lon="7.31632">
        <ele>505.39999389648</ele>
        <time>2022-03-19T10:50:58.981Z</time>
      </trkpt>
      <trkpt lat="46.96481" lon="7.31664">
        <ele>508.89999389648</ele>
        <time>2022-03-19T10:52:18.019Z</time>
      </trkpt>
      <trkpt lat="46.9648" lon="7.31678">
        <ele>510.69999694824</ele>
        <time>2022-03-19T10:52:52.218Z</time>
      </trkpt>
      <trkpt lat="46.96477" lon="7.31708">
        <ele>514.19998168945</ele>
        <time>2022-03-19T10:54:05.882Z</time>
      </trkpt>
      <trkpt lat="46.96475" lon="7.31718">
        <ele>515.59997558594</ele>
        <time>2022-03-19T10:54:31.199Z</time>
      </trkpt>
      <trkpt lat="46.96472" lon="7.31728">
        <ele>517.09997558594</ele>
        <time>2022-03-19T10:54:57.738Z</time>
      </trkpt>
      <trkpt lat="46.9647" lon="7.31735">
        <ele>518</ele>
        <time>2022-03-19T10:55:16.175Z</time>
      </trkpt>
      <trkpt lat="46.96466" lon="7.31741">
        <ele>519.09997558594</ele>
        <time>2022-03-19T10:55:36.553Z</time>
      </trkpt>
      <trkpt lat="46.96463" lon="7.31745">
        <ele>519.79998779297</ele>
        <time>2022-03-19T10:55:50.992Z</time>
      </trkpt>
      <trkpt lat="46.9646" lon="7.31747">
        <ele>520.59997558594</ele>
        <time>2022-03-19T10:56:02.726Z</time>
      </trkpt>
      <trkpt lat="46.96454" lon="7.3175">
        <ele>521.59997558594</ele>
        <time>2022-03-19T10:56:25.295Z</time>
      </trkpt>
      <trkpt lat="46.9645" lon="7.31751">
        <ele>522.39999389648</ele>
        <time>2022-03-19T10:56:39.741Z</time>
      </trkpt>
      <trkpt lat="46.96444" lon="7.31751">
        <ele>523.29998779297</ele>
        <time>2022-03-19T10:57:01.101Z</time>
      </trkpt>
      <trkpt lat="46.96441" lon="7.31752">
        <ele>523.79998779297</ele>
        <time>2022-03-19T10:57:12.054Z</time>
      </trkpt>
      <trkpt lat="46.96429" lon="7.31755">
        <ele>525.09997558594</ele>
        <time>2022-03-19T10:57:43.342Z</time>
      </trkpt>
      <trkpt lat="46.96423" lon="7.31757">
        <ele>526.59997558594</ele>
        <time>2022-03-19T10:58:05.247Z</time>
      </trkpt>
      <trkpt lat="46.96409" lon="7.31755">
        <ele>529.09997558594</ele>
        <time>2022-03-19T10:58:55.324Z</time>
      </trkpt>
      <trkpt lat="46.96398" lon="7.31754">
        <ele>531.5</ele>
        <time>2022-03-19T10:59:34.559Z</time>
      </trkpt>
      <trkpt lat="46.96393" lon="7.31752">
        <ele>532.69998168945</ele>
        <time>2022-03-19T10:59:53.010Z</time>
      </trkpt>
      <trkpt lat="46.96388" lon="7.3175">
        <ele>533.39999389648</ele>
        <time>2022-03-19T11:00:11.461Z</time>
      </trkpt>
      <trkpt lat="46.96383" lon="7.31749">
        <ele>533.59997558594</ele>
        <time>2022-03-19T11:00:18.773Z</time>
      </trkpt>
      <trkpt lat="46.96378" lon="7.31748">
        <ele>534.19998168945</ele>
        <time>2022-03-19T11:00:33.619Z</time>
      </trkpt>
      <trkpt lat="46.96376" lon="7.31755">
        <ele>533.79998779297</ele>
        <time>2022-03-19T11:00:34.711Z</time>
      </trkpt>
      <trkpt lat="46.96373" lon="7.31758">
        <ele>533.79998779297</ele>
        <time>2022-03-19T11:00:38.063Z</time>
      </trkpt>
      <trkpt lat="46.96369" lon="7.31758">
        <ele>533.79998779297</ele>
        <time>2022-03-19T11:00:41.755Z</time>
      </trkpt>
      <trkpt lat="46.96366" lon="7.31756">
        <ele>533.69998168945</ele>
        <time>2022-03-19T11:00:42.634Z</time>
      </trkpt>
      <trkpt lat="46.96364" lon="7.31755">
        <ele>533.69998168945</ele>
        <time>2022-03-19T11:00:44.584Z</time>
      </trkpt>
      <trkpt lat="46.96361" lon="7.31756">
        <ele>533.59997558594</ele>
        <time>2022-03-19T11:00:45.386Z</time>
      </trkpt>
      <trkpt lat="46.96357" lon="7.3176">
        <ele>533.19998168945</ele>
        <time>2022-03-19T11:00:46.407Z</time>
      </trkpt>
      <trkpt lat="46.96347" lon="7.31764">
        <ele>532.59997558594</ele>
        <time>2022-03-19T11:00:48.552Z</time>
      </trkpt>
      <trkpt lat="46.96342" lon="7.31765">
        <ele>532.19998168945</ele>
        <time>2022-03-19T11:00:49.615Z</time>
      </trkpt>
      <trkpt lat="46.96338" lon="7.31767">
        <ele>531.89999389648</ele>
        <time>2022-03-19T11:00:50.506Z</time>
      </trkpt>
      <trkpt lat="46.96335" lon="7.31771">
        <ele>531.19998168945</ele>
        <time>2022-03-19T11:00:51.362Z</time>
      </trkpt>
      <trkpt lat="46.96327" lon="7.31779">
        <ele>528.69998168945</ele>
        <time>2022-03-19T11:00:53.403Z</time>
      </trkpt>
      <trkpt lat="46.96323" lon="7.31782">
        <ele>527.69998168945</ele>
        <time>2022-03-19T11:00:54.351Z</time>
      </trkpt>
      <trkpt lat="46.96319" lon="7.31783">
        <ele>527</ele>
        <time>2022-03-19T11:00:55.206Z</time>
      </trkpt>
      <trkpt lat="46.96315" lon="7.31783">
        <ele>526.29998779297</ele>
        <time>2022-03-19T11:00:56.050Z</time>
      </trkpt>
      <trkpt lat="46.96309" lon="7.31781">
        <ele>525.69998168945</ele>
        <time>2022-03-19T11:00:57.347Z</time>
      </trkpt>
      <trkpt lat="46.96304" lon="7.31778">
        <ele>525.09997558594</ele>
        <time>2022-03-19T11:00:58.486Z</time>
      </trkpt>
      <trkpt lat="46.96292" lon="7.31775">
        <ele>524.19998168945</ele>
        <time>2022-03-19T11:01:01.052Z</time>
      </trkpt>
      <trkpt lat="46.96287" lon="7.31775">
        <ele>523.79998779297</ele>
        <time>2022-03-19T11:01:02.106Z</time>
      </trkpt>
      <trkpt lat="46.96284" lon="7.31775">
        <ele>523</ele>
        <time>2022-03-19T11:01:02.739Z</time>
      </trkpt>
      <trkpt lat="46.9628" lon="7.31776">
        <ele>522.09997558594</ele>
        <time>2022-03-19T11:01:03.594Z</time>
      </trkpt>
      <trkpt lat="46.96277" lon="7.31778">
        <ele>521.59997558594</ele>
        <time>2022-03-19T11:01:04.289Z</time>
      </trkpt>
      <trkpt lat="46.96273" lon="7.31781">
        <ele>520.5</ele>
        <time>2022-03-19T11:01:05.236Z</time>
      </trkpt>
      <trkpt lat="46.96271" lon="7.31783">
        <ele>519.59997558594</ele>
        <time>2022-03-19T11:01:05.747Z</time>
      </trkpt>
      <trkpt lat="46.96269" lon="7.31784">
        <ele>519</ele>
        <time>2022-03-19T11:01:06.192Z</time>
      </trkpt>
      <trkpt lat="46.96268" lon="7.31786">
        <ele>518.19998168945</ele>
        <time>2022-03-19T11:01:06.549Z</time>
      </trkpt>
      <trkpt lat="46.96267" lon="7.31801">
        <ele>518.09997558594</ele>
        <time>2022-03-19T11:01:10.044Z</time>
      </trkpt>
      <trkpt lat="46.96267" lon="7.31803">
        <ele>517.79998779297</ele>
        <time>2022-03-19T11:01:10.332Z</time>
      </trkpt>
      <trkpt lat="46.96268" lon="7.31806">
        <ele>518.09997558594</ele>
        <time>2022-03-19T11:01:18.240Z</time>
      </trkpt>
      <trkpt lat="46.9627" lon="7.31809">
        <ele>518.89999389648</ele>
        <time>2022-03-19T11:01:28.430Z</time>
      </trkpt>
      <trkpt lat="46.96272" lon="7.31814">
        <ele>520.19998168945</ele>
        <time>2022-03-19T11:01:42.510Z</time>
      </trkpt>
      <trkpt lat="46.96273" lon="7.31817">
        <ele>520.5</ele>
        <time>2022-03-19T11:01:50.420Z</time>
      </trkpt>
      <trkpt lat="46.96273" lon="7.31823">
        <ele>520.69998168945</ele>
        <time>2022-03-19T11:01:56.979Z</time>
      </trkpt>
      <trkpt lat="46.96273" lon="7.31828">
        <ele>520.89999389648</ele>
        <time>2022-03-19T11:02:02.815Z</time>
      </trkpt>
      <trkpt lat="46.96273" lon="7.31834">
        <ele>521.5</ele>
        <time>2022-03-19T11:02:17.393Z</time>
      </trkpt>
      <trkpt lat="46.96274" lon="7.31837">
        <ele>521.29998779297</ele>
        <time>2022-03-19T11:02:17.873Z</time>
      </trkpt>
      <trkpt lat="46.96276" lon="7.31841">
        <ele>521</ele>
        <time>2022-03-19T11:02:18.587Z</time>
      </trkpt>
      <trkpt lat="46.9628" lon="7.31846">
        <ele>520.79998779297</ele>
        <time>2022-03-19T11:02:19.884Z</time>
      </trkpt>
      <trkpt lat="46.96283" lon="7.31855">
        <ele>521.5</ele>
        <time>2022-03-19T11:02:36.684Z</time>
      </trkpt>
      <trkpt lat="46.96285" lon="7.31859">
        <ele>522.19998168945</ele>
        <time>2022-03-19T11:02:48.732Z</time>
      </trkpt>
      <trkpt lat="46.96286" lon="7.31866">
        <ele>523</ele>
        <time>2022-03-19T11:03:06.107Z</time>
      </trkpt>
      <trkpt lat="46.96287" lon="7.31873">
        <ele>524.69998168945</ele>
        <time>2022-03-19T11:03:23.483Z</time>
      </trkpt>
      <trkpt lat="46.96288" lon="7.31879">
        <ele>525.89999389648</ele>
        <time>2022-03-19T11:03:38.489Z</time>
      </trkpt>
      <trkpt lat="46.96291" lon="7.31887">
        <ele>527.19998168945</ele>
        <time>2022-03-19T11:04:00.667Z</time>
      </trkpt>
      <trkpt lat="46.96294" lon="7.31897">
        <ele>528.79998779297</ele>
        <time>2022-03-19T11:04:27.207Z</time>
      </trkpt>
      <trkpt lat="46.96296" lon="7.31908">
        <ele>530.39999389648</ele>
        <time>2022-03-19T11:04:54.864Z</time>
      </trkpt>
      <trkpt lat="46.96296" lon="7.31913">
        <ele>530.69998168945</ele>
        <time>2022-03-19T11:05:02.191Z</time>
      </trkpt>
      <trkpt lat="46.96295" lon="7.31915">
        <ele>530.89999389648</ele>
        <time>2022-03-19T11:05:07.129Z</time>
      </trkpt>
      <trkpt lat="46.96292" lon="7.31916">
        <ele>531.5</ele>
        <time>2022-03-19T11:05:18.081Z</time>
      </trkpt>
      <trkpt lat="46.96286" lon="7.31913">
        <ele>533.09997558594</ele>
        <time>2022-03-19T11:05:40.651Z</time>
      </trkpt>
      <trkpt lat="46.9628" lon="7.31908">
        <ele>535</ele>
        <time>2022-03-19T11:06:05.224Z</time>
      </trkpt>
      <trkpt lat="46.96272" lon="7.319">
        <ele>536.19998168945</ele>
        <time>2022-03-19T11:06:35.526Z</time>
      </trkpt>
      <trkpt lat="46.96263" lon="7.31893">
        <ele>537.09997558594</ele>
        <time>2022-03-19T11:06:57.484Z</time>
      </trkpt>
      <trkpt lat="46.96256" lon="7.31888">
        <ele>537.29998779297</ele>
        <time>2022-03-19T11:07:06.883Z</time>
      </trkpt>
      <trkpt lat="46.96233" lon="7.31879">
        <ele>538.19998168945</ele>
        <time>2022-03-19T11:07:40.494Z</time>
      </trkpt>
      <trkpt lat="46.96227" lon="7.31875">
        <ele>539</ele>
        <time>2022-03-19T11:08:00.476Z</time>
      </trkpt>
      <trkpt lat="46.96222" lon="7.31871">
        <ele>540.09997558594</ele>
        <time>2022-03-19T11:08:20.756Z</time>
      </trkpt>
      <trkpt lat="46.96217" lon="7.31863">
        <ele>542.19998168945</ele>
        <time>2022-03-19T11:08:47.112Z</time>
      </trkpt>
      <trkpt lat="46.96207" lon="7.31855">
        <ele>544.69998168945</ele>
        <time>2022-03-19T11:09:27.672Z</time>
      </trkpt>
      <trkpt lat="46.96202" lon="7.31854">
        <ele>545.79998779297</ele>
        <time>2022-03-19T11:09:45.637Z</time>
      </trkpt>
      <trkpt lat="46.96196" lon="7.31853">
        <ele>547</ele>
        <time>2022-03-19T11:10:07.135Z</time>
      </trkpt>
      <trkpt lat="46.9619" lon="7.31853">
        <ele>548.19998168945</ele>
        <time>2022-03-19T11:10:28.495Z</time>
      </trkpt>
      <trkpt lat="46.9619" lon="7.31857">
        <ele>547.79998779297</ele>
        <time>2022-03-19T11:10:29.071Z</time>
      </trkpt>
      <trkpt lat="46.96192" lon="7.31866">
        <ele>545.89999389648</ele>
        <time>2022-03-19T11:10:30.432Z</time>
      </trkpt>
      <trkpt lat="46.96193" lon="7.31877">
        <ele>543.89999389648</ele>
        <time>2022-03-19T11:10:32.029Z</time>
      </trkpt>
      <trkpt lat="46.96193" lon="7.31889">
        <ele>542.5</ele>
        <time>2022-03-19T11:10:33.756Z</time>
      </trkpt>
      <trkpt lat="46.96193" lon="7.31896">
        <ele>541.79998779297</ele>
        <time>2022-03-19T11:10:34.763Z</time>
      </trkpt>
      <trkpt lat="46.96192" lon="7.31901">
        <ele>541.5</ele>
        <time>2022-03-19T11:10:35.513Z</time>
      </trkpt>
      <trkpt lat="46.96188" lon="7.31903">
        <ele>541.09997558594</ele>
        <time>2022-03-19T11:10:36.404Z</time>
      </trkpt>
      <trkpt lat="46.96185" lon="7.31904">
        <ele>540.69998168945</ele>
        <time>2022-03-19T11:10:37.052Z</time>
      </trkpt>
      <trkpt lat="46.96175" lon="7.31902">
        <ele>540.09997558594</ele>
        <time>2022-03-19T11:10:39.114Z</time>
      </trkpt>
      <trkpt lat="46.96164" lon="7.31898">
        <ele>537.69998168945</ele>
        <time>2022-03-19T11:10:41.504Z</time>
      </trkpt>
      <trkpt lat="46.96157" lon="7.31896">
        <ele>537.79998779297</ele>
        <time>2022-03-19T11:10:49.056Z</time>
      </trkpt>
      <trkpt lat="46.96153" lon="7.31896">
        <ele>537.69998168945</ele>
        <time>2022-03-19T11:10:50.185Z</time>
      </trkpt>
      <trkpt lat="46.96149" lon="7.31896">
        <ele>537.39999389648</ele>
        <time>2022-03-19T11:10:51.028Z</time>
      </trkpt>
      <trkpt lat="46.96147" lon="7.31898">
        <ele>537.39999389648</ele>
        <time>2022-03-19T11:10:53.263Z</time>
      </trkpt>
      <trkpt lat="46.96144" lon="7.31903">
        <ele>537.69998168945</ele>
        <time>2022-03-19T11:11:01.456Z</time>
      </trkpt>
      <trkpt lat="46.96134" lon="7.31911">
        <ele>535.69998168945</ele>
        <time>2022-03-19T11:11:03.858Z</time>
      </trkpt>
      <trkpt lat="46.9613" lon="7.31915">
        <ele>534.29998779297</ele>
        <time>2022-03-19T11:11:04.879Z</time>
      </trkpt>
      <trkpt lat="46.96124" lon="7.31915">
        <ele>533.69998168945</ele>
        <time>2022-03-19T11:11:06.144Z</time>
      </trkpt>
      <trkpt lat="46.96119" lon="7.31915">
        <ele>533.39999389648</ele>
        <time>2022-03-19T11:11:07.161Z</time>
      </trkpt>
      <trkpt lat="46.96108" lon="7.31913">
        <ele>533.69998168945</ele>
        <time>2022-03-19T11:11:20.764Z</time>
      </trkpt>
      <trkpt lat="46.96103" lon="7.31914">
        <ele>534.59997558594</ele>
        <time>2022-03-19T11:11:38.729Z</time>
      </trkpt>
      <trkpt lat="46.96098" lon="7.31915">
        <ele>534.19998168945</ele>
        <time>2022-03-19T11:11:39.793Z</time>
      </trkpt>
      <trkpt lat="46.96093" lon="7.31919">
        <ele>533.69998168945</ele>
        <time>2022-03-19T11:11:40.994Z</time>
      </trkpt>
      <trkpt lat="46.9609" lon="7.31922">
        <ele>533</ele>
        <time>2022-03-19T11:11:41.759Z</time>
      </trkpt>
      <trkpt lat="46.96089" lon="7.31927">
        <ele>531.19998168945</ele>
        <time>2022-03-19T11:11:42.509Z</time>
      </trkpt>
      <trkpt lat="46.96088" lon="7.31934">
        <ele>529.5</ele>
        <time>2022-03-19T11:11:43.538Z</time>
      </trkpt>
      <trkpt lat="46.96089" lon="7.31941">
        <ele>527.79998779297</ele>
        <time>2022-03-19T11:11:44.567Z</time>
      </trkpt>
      <trkpt lat="46.96089" lon="7.31946">
        <ele>526.5</ele>
        <time>2022-03-19T11:11:45.286Z</time>
      </trkpt>
      <trkpt lat="46.96091" lon="7.31952">
        <ele>526.29998779297</ele>
        <time>2022-03-19T11:11:46.350Z</time>
      </trkpt>
      <trkpt lat="46.96099" lon="7.31958">
        <ele>526</ele>
        <time>2022-03-19T11:11:48.672Z</time>
      </trkpt>
      <trkpt lat="46.96105" lon="7.31957">
        <ele>526.39999389648</ele>
        <time>2022-03-19T11:11:59.578Z</time>
      </trkpt>
      <trkpt lat="46.96112" lon="7.31958">
        <ele>526.5</ele>
        <time>2022-03-19T11:12:07.041Z</time>
      </trkpt>
      <trkpt lat="46.96117" lon="7.31961">
        <ele>526.89999389648</ele>
        <time>2022-03-19T11:12:17.390Z</time>
      </trkpt>
      <trkpt lat="46.96122" lon="7.31964">
        <ele>526.69998168945</ele>
        <time>2022-03-19T11:12:18.736Z</time>
      </trkpt>
      <trkpt lat="46.96138" lon="7.31972">
        <ele>526.29998779297</ele>
        <time>2022-03-19T11:12:23.580Z</time>
      </trkpt>
      <trkpt lat="46.96144" lon="7.31974">
        <ele>526.5</ele>
        <time>2022-03-19T11:12:31.667Z</time>
      </trkpt>
      <trkpt lat="46.96148" lon="7.31976">
        <ele>526.59997558594</ele>
        <time>2022-03-19T11:12:36.647Z</time>
      </trkpt>
      <trkpt lat="46.96152" lon="7.31979">
        <ele>526.59997558594</ele>
        <time>2022-03-19T11:12:40.795Z</time>
      </trkpt>
      <trkpt lat="46.96148" lon="7.31982">
        <ele>527.29998779297</ele>
        <time>2022-03-19T11:12:56.792Z</time>
      </trkpt>
      <trkpt lat="46.96146" lon="7.31984">
        <ele>527.79998779297</ele>
        <time>2022-03-19T11:13:05.412Z</time>
      </trkpt>
      <trkpt lat="46.96143" lon="7.31987">
        <ele>528.69998168945</ele>
        <time>2022-03-19T11:13:18.342Z</time>
      </trkpt>
      <trkpt lat="46.96138" lon="7.31996">
        <ele>531.69998168945</ele>
        <time>2022-03-19T11:13:46.538Z</time>
      </trkpt>
      <trkpt lat="46.96137" lon="7.32001">
        <ele>532.59997558594</ele>
        <time>2022-03-19T11:13:59.197Z</time>
      </trkpt>
      <trkpt lat="46.96134" lon="7.32011">
        <ele>534.89999389648</ele>
        <time>2022-03-19T11:14:25.738Z</time>
      </trkpt>
      <trkpt lat="46.96132" lon="7.32016">
        <ele>536.39999389648</ele>
        <time>2022-03-19T11:14:39.819Z</time>
      </trkpt>
      <trkpt lat="46.96129" lon="7.3202">
        <ele>537.59997558594</ele>
        <time>2022-03-19T11:14:54.259Z</time>
      </trkpt>
      <trkpt lat="46.96124" lon="7.32026">
        <ele>539.59997558594</ele>
        <time>2022-03-19T11:15:17.266Z</time>
      </trkpt>
      <trkpt lat="46.96121" lon="7.32031">
        <ele>541.09997558594</ele>
        <time>2022-03-19T11:15:33.442Z</time>
      </trkpt>
      <trkpt lat="46.96118" lon="7.32037">
        <ele>542.79998779297</ele>
        <time>2022-03-19T11:15:51.513Z</time>
      </trkpt>
      <trkpt lat="46.96114" lon="7.32044">
        <ele>544.5</ele>
        <time>2022-03-19T11:16:13.695Z</time>
      </trkpt>
      <trkpt lat="46.96111" lon="7.32053">
        <ele>545.59997558594</ele>
        <time>2022-03-19T11:16:38.031Z</time>
      </trkpt>
      <trkpt lat="46.96108" lon="7.32059">
        <ele>546.59997558594</ele>
        <time>2022-03-19T11:16:56.103Z</time>
      </trkpt>
      <trkpt lat="46.96106" lon="7.32068">
        <ele>548.09997558594</ele>
        <time>2022-03-19T11:17:19.100Z</time>
      </trkpt>
      <trkpt lat="46.96101" lon="7.3208">
        <ele>549.29998779297</ele>
        <time>2022-03-19T11:17:49.572Z</time>
      </trkpt>
      <trkpt lat="46.96096" lon="7.32088">
        <ele>550.89999389648</ele>
        <time>2022-03-19T11:18:15.928Z</time>
      </trkpt>
      <trkpt lat="46.96092" lon="7.32098">
        <ele>552.29998779297</ele>
        <time>2022-03-19T11:18:44.090Z</time>
      </trkpt>
      <trkpt lat="46.96087" lon="7.32108">
        <ele>553.5</ele>
        <time>2022-03-19T11:19:14.210Z</time>
      </trkpt>
      <trkpt lat="46.96082" lon="7.32117">
        <ele>554.79998779297</ele>
        <time>2022-03-19T11:19:42.406Z</time>
      </trkpt>
      <trkpt lat="46.96081" lon="7.32119">
        <ele>555</ele>
        <time>2022-03-19T11:19:47.343Z</time>
      </trkpt>
      <trkpt lat="46.96067" lon="7.32124">
        <ele>557</ele>
        <time>2022-03-19T11:20:38.642Z</time>
      </trkpt>
      <trkpt lat="46.96059" lon="7.32126">
        <ele>558.5</ele>
        <time>2022-03-19T11:21:07.533Z</time>
      </trkpt>
      <trkpt lat="46.9605" lon="7.32125">
        <ele>560.69998168945</ele>
        <time>2022-03-19T11:21:39.665Z</time>
      </trkpt>
      <trkpt lat="46.96044" lon="7.32124">
        <ele>562.19998168945</ele>
        <time>2022-03-19T11:22:01.163Z</time>
      </trkpt>
      <trkpt lat="46.96039" lon="7.32125">
        <ele>563.19998168945</ele>
        <time>2022-03-19T11:22:19.128Z</time>
      </trkpt>
      <trkpt lat="46.96035" lon="7.32126">
        <ele>564.09997558594</ele>
        <time>2022-03-19T11:22:33.574Z</time>
      </trkpt>
      <trkpt lat="46.96032" lon="7.32129">
        <ele>565.39999389648</ele>
        <time>2022-03-19T11:22:46.504Z</time>
      </trkpt>
      <trkpt lat="46.96028" lon="7.32135">
        <ele>566.89999389648</ele>
        <time>2022-03-19T11:23:06.883Z</time>
      </trkpt>
      <trkpt lat="46.96026" lon="7.3214">
        <ele>567.89999389648</ele>
        <time>2022-03-19T11:23:20.965Z</time>
      </trkpt>
      <trkpt lat="46.96023" lon="7.32149">
        <ele>570.19998168945</ele>
        <time>2022-03-19T11:23:45.301Z</time>
      </trkpt>
      <trkpt lat="46.96021" lon="7.32156">
        <ele>571.89999389648</ele>
        <time>2022-03-19T11:24:03.739Z</time>
      </trkpt>
      <trkpt lat="46.96018" lon="7.32161">
        <ele>573</ele>
        <time>2022-03-19T11:24:19.915Z</time>
      </trkpt>
      <trkpt lat="46.96015" lon="7.32164">
        <ele>574.09997558594</ele>
        <time>2022-03-19T11:24:32.845Z</time>
      </trkpt>
      <trkpt lat="46.96012" lon="7.32165">
        <ele>575</ele>
        <time>2022-03-19T11:24:43.798Z</time>
      </trkpt>
      <trkpt lat="46.9601" lon="7.32166">
        <ele>575.79998779297</ele>
        <time>2022-03-19T11:24:51.321Z</time>
      </trkpt>
      <trkpt lat="46.96007" lon="7.32164">
        <ele>576.59997558594</ele>
        <time>2022-03-19T11:25:03.055Z</time>
      </trkpt>
      <trkpt lat="46.96004" lon="7.32161">
        <ele>577.29998779297</ele>
        <time>2022-03-19T11:25:15.985Z</time>
      </trkpt>
      <trkpt lat="46.96001" lon="7.32154">
        <ele>578.89999389648</ele>
        <time>2022-03-19T11:25:36.068Z</time>
      </trkpt>
      <trkpt lat="46.95997" lon="7.32146">
        <ele>581.19998168945</ele>
        <time>2022-03-19T11:26:00.164Z</time>
      </trkpt>
      <trkpt lat="46.95992" lon="7.32141">
        <ele>582.59997558594</ele>
        <time>2022-03-19T11:26:21.715Z</time>
      </trkpt>
      <trkpt lat="46.95985" lon="7.32136">
        <ele>585.29998779297</ele>
        <time>2022-03-19T11:26:49.438Z</time>
      </trkpt>
      <trkpt lat="46.95976" lon="7.32133">
        <ele>587.89999389648</ele>
        <time>2022-03-19T11:27:22.297Z</time>
      </trkpt>
      <trkpt lat="46.95964" lon="7.32131">
        <ele>591.59997558594</ele>
        <time>2022-03-19T11:28:05.292Z</time>
      </trkpt>
      <trkpt lat="46.95951" lon="7.32127">
        <ele>595.09997558594</ele>
        <time>2022-03-19T11:28:52.582Z</time>
      </trkpt>
      <trkpt lat="46.95937" lon="7.32125">
        <ele>598.79998779297</ele>
        <time>2022-03-19T11:29:42.658Z</time>
      </trkpt>
      <trkpt lat="46.95927" lon="7.32128">
        <ele>600.29998779297</ele>
        <time>2022-03-19T11:30:18.997Z</time>
      </trkpt>
      <trkpt lat="46.95923" lon="7.32127">
        <ele>600.69998168945</ele>
        <time>2022-03-19T11:30:28.603Z</time>
      </trkpt>
      <trkpt lat="46.95915" lon="7.32119">
        <ele>602.09997558594</ele>
        <time>2022-03-19T11:31:03.084Z</time>
      </trkpt>
      <trkpt lat="46.95904" lon="7.32111">
        <ele>603.39999389648</ele>
        <time>2022-03-19T11:31:34.344Z</time>
      </trkpt>
      <trkpt lat="46.95887" lon="7.32103">
        <ele>604.5</ele>
        <time>2022-03-19T11:32:05.532Z</time>
      </trkpt>
      <trkpt lat="46.95872" lon="7.32101">
        <ele>604.59997558594</ele>
        <time>2022-03-19T11:32:20.333Z</time>
      </trkpt>
      <trkpt lat="46.95857" lon="7.32099">
        <ele>604.19998168945</ele>
        <time>2022-03-19T11:32:24.513Z</time>
      </trkpt>
      <trkpt lat="46.95844" lon="7.32096">
        <ele>603.09997558594</ele>
        <time>2022-03-19T11:32:27.287Z</time>
      </trkpt>
      <trkpt lat="46.95837" lon="7.32098">
        <ele>602.19998168945</ele>
        <time>2022-03-19T11:32:28.791Z</time>
      </trkpt>
      <trkpt lat="46.95831" lon="7.32104">
        <ele>601.59997558594</ele>
        <time>2022-03-19T11:32:30.322Z</time>
      </trkpt>
      <trkpt lat="46.95826" lon="7.32116">
        <ele>600.79998779297</ele>
        <time>2022-03-19T11:32:32.345Z</time>
      </trkpt>
      <trkpt lat="46.95822" lon="7.32131">
        <ele>600</ele>
        <time>2022-03-19T11:32:34.663Z</time>
      </trkpt>
      <trkpt lat="46.95819" lon="7.32145">
        <ele>599.59997558594</ele>
        <time>2022-03-19T11:32:37.088Z</time>
      </trkpt>
      <trkpt lat="46.95818" lon="7.32158">
        <ele>599</ele>
        <time>2022-03-19T11:32:38.971Z</time>
      </trkpt>
      <trkpt lat="46.95803" lon="7.32189">
        <ele>599.59997558594</ele>
        <time>2022-03-19T11:33:09.345Z</time>
      </trkpt>
      <trkpt lat="46.95795" lon="7.32206">
        <ele>600</ele>
        <time>2022-03-19T11:33:26.923Z</time>
      </trkpt>
      <trkpt lat="46.95791" lon="7.32218">
        <ele>600.39999389648</ele>
        <time>2022-03-19T11:33:40.990Z</time>
      </trkpt>
      <trkpt lat="46.95785" lon="7.32237">
        <ele>600.89999389648</ele>
        <time>2022-03-19T11:34:00.399Z</time>
      </trkpt>
      <trkpt lat="46.95782" lon="7.32248">
        <ele>601.19998168945</ele>
        <time>2022-03-19T11:34:11.703Z</time>
      </trkpt>
      <trkpt lat="46.95775" lon="7.32265">
        <ele>601.5</ele>
        <time>2022-03-19T11:34:27.392Z</time>
      </trkpt>
      <trkpt lat="46.95769" lon="7.32287">
        <ele>602.19998168945</ele>
        <time>2022-03-19T11:34:52.122Z</time>
      </trkpt>
      <trkpt lat="46.95764" lon="7.32305">
        <ele>602.79998779297</ele>
        <time>2022-03-19T11:35:12.880Z</time>
      </trkpt>
      <trkpt lat="46.95758" lon="7.32321">
        <ele>604.09997558594</ele>
        <time>2022-03-19T11:35:44.105Z</time>
      </trkpt>
      <trkpt lat="46.95751" lon="7.32339">
        <ele>606</ele>
        <time>2022-03-19T11:36:34.443Z</time>
      </trkpt>
      <trkpt lat="46.95749" lon="7.32346">
        <ele>606.19998168945</ele>
        <time>2022-03-19T11:36:41.839Z</time>
      </trkpt>
      <trkpt lat="46.95749" lon="7.32353">
        <ele>606.39999389648</ele>
        <time>2022-03-19T11:36:48.991Z</time>
      </trkpt>
      <trkpt lat="46.95748" lon="7.32362">
        <ele>606.39999389648</ele>
        <time>2022-03-19T11:36:54.736Z</time>
      </trkpt>
      <trkpt lat="46.9575" lon="7.32376">
        <ele>605.79998779297</ele>
        <time>2022-03-19T11:36:56.699Z</time>
      </trkpt>
      <trkpt lat="46.95752" lon="7.32401">
        <ele>603.69998168945</ele>
        <time>2022-03-19T11:37:00.321Z</time>
      </trkpt>
      <trkpt lat="46.95752" lon="7.32411">
        <ele>603.19998168945</ele>
        <time>2022-03-19T11:37:01.760Z</time>
      </trkpt>
      <trkpt lat="46.95751" lon="7.32421">
        <ele>603.29998779297</ele>
        <time>2022-03-19T11:37:09.101Z</time>
      </trkpt>
      <trkpt lat="46.9575" lon="7.32429">
        <ele>603.29998779297</ele>
        <time>2022-03-19T11:37:14.225Z</time>
      </trkpt>
      <trkpt lat="46.95749" lon="7.32438">
        <ele>603.29998779297</ele>
        <time>2022-03-19T11:37:19.969Z</time>
      </trkpt>
      <trkpt lat="46.95746" lon="7.32447">
        <ele>603.29998779297</ele>
        <time>2022-03-19T11:37:26.279Z</time>
      </trkpt>
      <trkpt lat="46.95743" lon="7.32455">
        <ele>603.39999389648</ele>
        <time>2022-03-19T11:37:33.020Z</time>
      </trkpt>
      <trkpt lat="46.95741" lon="7.32458">
        <ele>603.39999389648</ele>
        <time>2022-03-19T11:37:35.662Z</time>
      </trkpt>
      <trkpt lat="46.95739" lon="7.32461">
        <ele>603.5</ele>
        <time>2022-03-19T11:37:39.547Z</time>
      </trkpt>
      <trkpt lat="46.95736" lon="7.32463">
        <ele>603.79998779297</ele>
        <time>2022-03-19T11:37:46.821Z</time>
      </trkpt>
      <trkpt lat="46.95732" lon="7.32464">
        <ele>604.29998779297</ele>
        <time>2022-03-19T11:37:59.409Z</time>
      </trkpt>
      <trkpt lat="46.95726" lon="7.32464">
        <ele>604.79998779297</ele>
        <time>2022-03-19T11:38:11.798Z</time>
      </trkpt>
      <trkpt lat="46.95719" lon="7.32462">
        <ele>605.69998168945</ele>
        <time>2022-03-19T11:38:34.782Z</time>
      </trkpt>
      <trkpt lat="46.95711" lon="7.32458">
        <ele>606.59997558594</ele>
        <time>2022-03-19T11:38:56.435Z</time>
      </trkpt>
      <trkpt lat="46.95691" lon="7.3245">
        <ele>607.59997558594</ele>
        <time>2022-03-19T11:39:29.511Z</time>
      </trkpt>
      <trkpt lat="46.95684" lon="7.32447">
        <ele>607.79998779297</ele>
        <time>2022-03-19T11:39:38.501Z</time>
      </trkpt>
      <trkpt lat="46.95681" lon="7.32446">
        <ele>608</ele>
        <time>2022-03-19T11:39:44.008Z</time>
      </trkpt>
      <trkpt lat="46.95678" lon="7.32446">
        <ele>608.09997558594</ele>
        <time>2022-03-19T11:39:47.993Z</time>
      </trkpt>
      <trkpt lat="46.95676" lon="7.32447">
        <ele>608.09997558594</ele>
        <time>2022-03-19T11:39:49.944Z</time>
      </trkpt>
      <trkpt lat="46.95673" lon="7.32449">
        <ele>608.29998779297</ele>
        <time>2022-03-19T11:39:55.663Z</time>
      </trkpt>
      <trkpt lat="46.95667" lon="7.32454">
        <ele>608.5</ele>
        <time>2022-03-19T11:40:04.336Z</time>
      </trkpt>
      <trkpt lat="46.95662" lon="7.32461">
        <ele>608.79998779297</ele>
        <time>2022-03-19T11:40:14.927Z</time>
      </trkpt>
      <trkpt lat="46.95663" lon="7.32466">
        <ele>608.59997558594</ele>
        <time>2022-03-19T11:40:15.673Z</time>
      </trkpt>
      <trkpt lat="46.95664" lon="7.32472">
        <ele>608.39999389648</ele>
        <time>2022-03-19T11:40:16.626Z</time>
      </trkpt>
      <trkpt lat="46.95665" lon="7.32477">
        <ele>608.29998779297</ele>
        <time>2022-03-19T11:40:17.596Z</time>
      </trkpt>
      <trkpt lat="46.95669" lon="7.32489">
        <ele>607.89999389648</ele>
        <time>2022-03-19T11:40:19.724Z</time>
      </trkpt>
      <trkpt lat="46.95671" lon="7.32495">
        <ele>607.59997558594</ele>
        <time>2022-03-19T11:40:20.610Z</time>
      </trkpt>
      <trkpt lat="46.95673" lon="7.325">
        <ele>607.29998779297</ele>
        <time>2022-03-19T11:40:21.444Z</time>
      </trkpt>
      <trkpt lat="46.95678" lon="7.32512">
        <ele>606.59997558594</ele>
        <time>2022-03-19T11:40:23.467Z</time>
      </trkpt>
      <trkpt lat="46.95684" lon="7.32526">
        <ele>605.79998779297</ele>
        <time>2022-03-19T11:40:25.846Z</time>
      </trkpt>
      <trkpt lat="46.95691" lon="7.32539">
        <ele>605</ele>
        <time>2022-03-19T11:40:28.228Z</time>
      </trkpt>
      <trkpt lat="46.95705" lon="7.32564">
        <ele>603.39999389648</ele>
        <time>2022-03-19T11:40:32.882Z</time>
      </trkpt>
      <trkpt lat="46.95716" lon="7.32581">
        <ele>602</ele>
        <time>2022-03-19T11:40:36.252Z</time>
      </trkpt>
      <trkpt lat="46.9573" lon="7.32601">
        <ele>600</ele>
        <time>2022-03-19T11:40:40.375Z</time>
      </trkpt>
      <trkpt lat="46.95741" lon="7.32618">
        <ele>598.19998168945</ele>
        <time>2022-03-19T11:40:43.745Z</time>
      </trkpt>
      <trkpt lat="46.95747" lon="7.32625">
        <ele>597.79998779297</ele>
        <time>2022-03-19T11:40:45.410Z</time>
      </trkpt>
      <trkpt lat="46.95753" lon="7.32631">
        <ele>597.29998779297</ele>
        <time>2022-03-19T11:40:46.941Z</time>
      </trkpt>
      <trkpt lat="46.9576" lon="7.32634">
        <ele>597.09997558594</ele>
        <time>2022-03-19T11:40:48.946Z</time>
      </trkpt>
      <trkpt lat="46.95768" lon="7.32637">
        <ele>596.89999389648</ele>
        <time>2022-03-19T11:40:51.298Z</time>
      </trkpt>
      <trkpt lat="46.95773" lon="7.32638">
        <ele>596.69998168945</ele>
        <time>2022-03-19T11:40:52.523Z</time>
      </trkpt>
      <trkpt lat="46.95776" lon="7.3264">
        <ele>596.69998168945</ele>
        <time>2022-03-19T11:40:55.565Z</time>
      </trkpt>
      <trkpt lat="46.9578" lon="7.32643">
        <ele>596.69998168945</ele>
        <time>2022-03-19T11:40:59.713Z</time>
      </trkpt>
      <trkpt lat="46.95782" lon="7.32647">
        <ele>596.89999389648</ele>
        <time>2022-03-19T11:41:05.521Z</time>
      </trkpt>
      <trkpt lat="46.95785" lon="7.32654">
        <ele>597.19998168945</ele>
        <time>2022-03-19T11:41:14.819Z</time>
      </trkpt>
      <trkpt lat="46.95787" lon="7.32661">
        <ele>597.5</ele>
        <time>2022-03-19T11:41:23.636Z</time>
      </trkpt>
      <trkpt lat="46.95788" lon="7.32671">
        <ele>597.79998779297</ele>
        <time>2022-03-19T11:41:34.218Z</time>
      </trkpt>
      <trkpt lat="46.9579" lon="7.32683">
        <ele>598.09997558594</ele>
        <time>2022-03-19T11:41:45.762Z</time>
      </trkpt>
      <trkpt lat="46.95792" lon="7.32708">
        <ele>598.39999389648</ele>
        <time>2022-03-19T11:42:04.638Z</time>
      </trkpt>
      <trkpt lat="46.95792" lon="7.32718">
        <ele>598.29998779297</ele>
        <time>2022-03-19T11:42:06.814Z</time>
      </trkpt>
      <trkpt lat="46.95792" lon="7.32729">
        <ele>598.29998779297</ele>
        <time>2022-03-19T11:42:13.743Z</time>
      </trkpt>
      <trkpt lat="46.95792" lon="7.32738">
        <ele>598.39999389648</ele>
        <time>2022-03-19T11:42:20.406Z</time>
      </trkpt>
      <trkpt lat="46.9579" lon="7.32751">
        <ele>597.89999389648</ele>
        <time>2022-03-19T11:42:22.334Z</time>
      </trkpt>
      <trkpt lat="46.958" lon="7.32773">
        <ele>598</ele>
        <time>2022-03-19T11:42:39.876Z</time>
      </trkpt>
      <trkpt lat="46.95804" lon="7.32784">
        <ele>597.79998779297</ele>
        <time>2022-03-19T11:42:42.317Z</time>
      </trkpt>
      <trkpt lat="46.95809" lon="7.32801">
        <ele>596.89999389648</ele>
        <time>2022-03-19T11:42:44.981Z</time>
      </trkpt>
      <trkpt lat="46.95814" lon="7.32823">
        <ele>595.79998779297</ele>
        <time>2022-03-19T11:42:48.317Z</time>
      </trkpt>
      <trkpt lat="46.9582" lon="7.32846">
        <ele>594.59997558594</ele>
        <time>2022-03-19T11:42:51.860Z</time>
      </trkpt>
      <trkpt lat="46.95828" lon="7.32865">
        <ele>593.69998168945</ele>
        <time>2022-03-19T11:42:54.983Z</time>
      </trkpt>
      <trkpt lat="46.95834" lon="7.3288">
        <ele>592.19998168945</ele>
        <time>2022-03-19T11:42:57.485Z</time>
      </trkpt>
      <trkpt lat="46.95845" lon="7.32895">
        <ele>590.29998779297</ele>
        <time>2022-03-19T11:43:00.653Z</time>
      </trkpt>
      <trkpt lat="46.95851" lon="7.32902">
        <ele>589.5</ele>
        <time>2022-03-19T11:43:02.270Z</time>
      </trkpt>
      <trkpt lat="46.95855" lon="7.32906">
        <ele>589</ele>
        <time>2022-03-19T11:43:03.291Z</time>
      </trkpt>
      <trkpt lat="46.9586" lon="7.32909">
        <ele>588.69998168945</ele>
        <time>2022-03-19T11:43:04.430Z</time>
      </trkpt>
      <trkpt lat="46.95865" lon="7.32911">
        <ele>588.5</ele>
        <time>2022-03-19T11:43:05.702Z</time>
      </trkpt>
      <trkpt lat="46.9587" lon="7.32912">
        <ele>588.09997558594</ele>
        <time>2022-03-19T11:43:06.766Z</time>
      </trkpt>
      <trkpt lat="46.95875" lon="7.3291">
        <ele>588</ele>
        <time>2022-03-19T11:43:08.328Z</time>
      </trkpt>
      <trkpt lat="46.9588" lon="7.32907">
        <ele>587.69998168945</ele>
        <time>2022-03-19T11:43:09.468Z</time>
      </trkpt>
      <trkpt lat="46.95888" lon="7.32901">
        <ele>587.59997558594</ele>
        <time>2022-03-19T11:43:12.465Z</time>
      </trkpt>
      <trkpt lat="46.95893" lon="7.32897">
        <ele>587.39999389648</ele>
        <time>2022-03-19T11:43:13.911Z</time>
      </trkpt>
      <trkpt lat="46.95896" lon="7.32906">
        <ele>585.39999389648</ele>
        <time>2022-03-19T11:43:15.353Z</time>
      </trkpt>
      <trkpt lat="46.95898" lon="7.32914">
        <ele>584.09997558594</ele>
        <time>2022-03-19T11:43:16.578Z</time>
      </trkpt>
      <trkpt lat="46.95899" lon="7.32925">
        <ele>582.59997558594</ele>
        <time>2022-03-19T11:43:18.175Z</time>
      </trkpt>
      <trkpt lat="46.95897" lon="7.32935">
        <ele>582</ele>
        <time>2022-03-19T11:43:19.675Z</time>
      </trkpt>
      <trkpt lat="46.95893" lon="7.32949">
        <ele>582.19998168945</ele>
        <time>2022-03-19T11:43:31.289Z</time>
      </trkpt>
      <trkpt lat="46.95893" lon="7.32953">
        <ele>581.79998779297</ele>
        <time>2022-03-19T11:43:31.865Z</time>
      </trkpt>
      <trkpt lat="46.95894" lon="7.32956">
        <ele>581.5</ele>
        <time>2022-03-19T11:43:32.345Z</time>
      </trkpt>
      <trkpt lat="46.959" lon="7.3296">
        <ele>579.29998779297</ele>
        <time>2022-03-19T11:43:33.735Z</time>
      </trkpt>
      <trkpt lat="46.95922" lon="7.32983">
        <ele>571</ele>
        <time>2022-03-19T11:43:39.433Z</time>
      </trkpt>
      <trkpt lat="46.95932" lon="7.32993">
        <ele>567.69998168945</ele>
        <time>2022-03-19T11:43:41.985Z</time>
      </trkpt>
      <trkpt lat="46.95938" lon="7.32996">
        <ele>565.79998779297</ele>
        <time>2022-03-19T11:43:43.322Z</time>
      </trkpt>
      <trkpt lat="46.95946" lon="7.32998">
        <ele>563</ele>
        <time>2022-03-19T11:43:45.033Z</time>
      </trkpt>
      <trkpt lat="46.95951" lon="7.33">
        <ele>560.59997558594</ele>
        <time>2022-03-19T11:43:46.125Z</time>
      </trkpt>
      <trkpt lat="46.95956" lon="7.33006">
        <ele>558.39999389648</ele>
        <time>2022-03-19T11:43:47.488Z</time>
      </trkpt>
      <trkpt lat="46.95962" lon="7.3302">
        <ele>551.19998168945</ele>
        <time>2022-03-19T11:43:49.866Z</time>
      </trkpt>
      <trkpt lat="46.95967" lon="7.33028">
        <ele>546.79998779297</ele>
        <time>2022-03-19T11:43:51.427Z</time>
      </trkpt>
      <trkpt lat="46.95971" lon="7.3303">
        <ele>544.5</ele>
        <time>2022-03-19T11:43:52.318Z</time>
      </trkpt>
      <trkpt lat="46.95974" lon="7.33032">
        <ele>543.09997558594</ele>
        <time>2022-03-19T11:43:53.013Z</time>
      </trkpt>
      <trkpt lat="46.95977" lon="7.33036">
        <ele>541.09997558594</ele>
        <time>2022-03-19T11:43:53.868Z</time>
      </trkpt>
      <trkpt lat="46.9598" lon="7.33045">
        <ele>538.5</ele>
        <time>2022-03-19T11:43:55.309Z</time>
      </trkpt>
      <trkpt lat="46.95984" lon="7.33054">
        <ele>534.59997558594</ele>
        <time>2022-03-19T11:43:56.855Z</time>
      </trkpt>
      <trkpt lat="46.95989" lon="7.3307">
        <ele>528.29998779297</ele>
        <time>2022-03-19T11:43:59.387Z</time>
      </trkpt>
      <trkpt lat="46.95992" lon="7.33082">
        <ele>523.5</ele>
        <time>2022-03-19T11:44:01.226Z</time>
      </trkpt>
      <trkpt lat="46.95993" lon="7.33097">
        <ele>517.59997558594</ele>
        <time>2022-03-19T11:44:03.394Z</time>
      </trkpt>
      <trkpt lat="46.95994" lon="7.33116">
        <ele>509.69999694824</ele>
        <time>2022-03-19T11:44:06.136Z</time>
      </trkpt>
      <trkpt lat="46.95996" lon="7.33125">
        <ele>507</ele>
        <time>2022-03-19T11:44:07.498Z</time>
      </trkpt>
      <trkpt lat="46.96001" lon="7.33129">
        <ele>505.39999389648</ele>
        <time>2022-03-19T11:44:08.699Z</time>
      </trkpt>
      <trkpt lat="46.96009" lon="7.3313">
        <ele>505.09999084473</ele>
        <time>2022-03-19T11:44:10.692Z</time>
      </trkpt>
      <trkpt lat="46.96016" lon="7.33129">
        <ele>504</ele>
        <time>2022-03-19T11:44:12.175Z</time>
      </trkpt>
      <trkpt lat="46.96027" lon="7.33125">
        <ele>501.79998779297</ele>
        <time>2022-03-19T11:44:14.564Z</time>
      </trkpt>
      <trkpt lat="46.96042" lon="7.3312">
        <ele>497.5</ele>
        <time>2022-03-19T11:44:17.808Z</time>
      </trkpt>
      <trkpt lat="46.9604" lon="7.33138">
        <ele>496.79998779297</ele>
        <time>2022-03-19T11:44:20.418Z</time>
      </trkpt>
      <trkpt lat="46.96037" lon="7.33152">
        <ele>496.19999694824</ele>
        <time>2022-03-19T11:44:22.456Z</time>
      </trkpt>
      <trkpt lat="46.96035" lon="7.33168">
        <ele>495.79998779297</ele>
        <time>2022-03-19T11:44:25.249Z</time>
      </trkpt>
      <trkpt lat="46.96033" lon="7.33174">
        <ele>495.79998779297</ele>
        <time>2022-03-19T11:44:29.455Z</time>
      </trkpt>
      <trkpt lat="46.96029" lon="7.33183">
        <ele>495.69999694824</ele>
        <time>2022-03-19T11:44:31.822Z</time>
      </trkpt>
      <trkpt lat="46.96026" lon="7.33192">
        <ele>496.09999084473</ele>
        <time>2022-03-19T11:44:43.506Z</time>
      </trkpt>
      <trkpt lat="46.96025" lon="7.33197">
        <ele>496.29998779297</ele>
        <time>2022-03-19T11:44:49.490Z</time>
      </trkpt>
      <trkpt lat="46.96024" lon="7.33203">
        <ele>496</ele>
        <time>2022-03-19T11:44:50.378Z</time>
      </trkpt>
      <trkpt lat="46.96024" lon="7.33207">
        <ele>495.69999694824</ele>
        <time>2022-03-19T11:44:50.954Z</time>
      </trkpt>
      <trkpt lat="46.96024" lon="7.33214">
        <ele>495.39999389648</ele>
        <time>2022-03-19T11:44:51.905Z</time>
      </trkpt>
      <trkpt lat="46.96023" lon="7.33224">
        <ele>495.5</ele>
        <time>2022-03-19T11:44:59.246Z</time>
      </trkpt>
      <trkpt lat="46.96022" lon="7.33238">
        <ele>495.59999084473</ele>
        <time>2022-03-19T11:45:09.048Z</time>
      </trkpt>
      <trkpt lat="46.9602" lon="7.3325">
        <ele>495.69999694824</ele>
        <time>2022-03-19T11:45:17.777Z</time>
      </trkpt>
      <trkpt lat="46.96019" lon="7.33261">
        <ele>496</ele>
        <time>2022-03-19T11:45:28.748Z</time>
      </trkpt>
      <trkpt lat="46.96017" lon="7.33273">
        <ele>496.19999694824</ele>
        <time>2022-03-19T11:45:38.690Z</time>
      </trkpt>
      <trkpt lat="46.96019" lon="7.33274">
        <ele>496</ele>
        <time>2022-03-19T11:45:39.135Z</time>
      </trkpt>
      <trkpt lat="46.96021" lon="7.33275">
        <ele>495.69999694824</ele>
        <time>2022-03-19T11:45:39.581Z</time>
      </trkpt>
      <trkpt lat="46.96023" lon="7.33278">
        <ele>495.39999389648</ele>
        <time>2022-03-19T11:45:40.184Z</time>
      </trkpt>
      <trkpt lat="46.96025" lon="7.33283">
        <ele>495.09999084473</ele>
        <time>2022-03-19T11:45:41.018Z</time>
      </trkpt>
      <trkpt lat="46.96027" lon="7.33289">
        <ele>494.69999694824</ele>
        <time>2022-03-19T11:45:41.979Z</time>
      </trkpt>
      <trkpt lat="46.96027" lon="7.33295">
        <ele>494.5</ele>
        <time>2022-03-19T11:45:42.893Z</time>
      </trkpt>
      <trkpt lat="46.96026" lon="7.333">
        <ele>494.29998779297</ele>
        <time>2022-03-19T11:45:43.639Z</time>
      </trkpt>
      <trkpt lat="46.96026" lon="7.33305">
        <ele>494.09999084473</ele>
        <time>2022-03-19T11:45:44.341Z</time>
      </trkpt>
      <trkpt lat="46.96023" lon="7.33311">
        <ele>494.09999084473</ele>
        <time>2022-03-19T11:45:49.026Z</time>
      </trkpt>
      <trkpt lat="46.9602" lon="7.33319">
        <ele>494.19999694824</ele>
        <time>2022-03-19T11:45:55.767Z</time>
      </trkpt>
      <trkpt lat="46.96018" lon="7.33324">
        <ele>494.39999389648</ele>
        <time>2022-03-19T11:46:02.174Z</time>
      </trkpt>
      <trkpt lat="46.96017" lon="7.3333">
        <ele>494.59999084473</ele>
        <time>2022-03-19T11:46:08.865Z</time>
      </trkpt>
      <trkpt lat="46.96016" lon="7.33335">
        <ele>494.59999084473</ele>
        <time>2022-03-19T11:46:12.147Z</time>
      </trkpt>
      <trkpt lat="46.96016" lon="7.33354">
        <ele>494</ele>
        <time>2022-03-19T11:46:15.110Z</time>
      </trkpt>
      <trkpt lat="46.96017" lon="7.33365">
        <ele>493.59999084473</ele>
        <time>2022-03-19T11:46:16.744Z</time>
      </trkpt>
      <trkpt lat="46.96018" lon="7.3338">
        <ele>492.89999389648</ele>
        <time>2022-03-19T11:46:18.913Z</time>
      </trkpt>
      <trkpt lat="46.96018" lon="7.33384">
        <ele>492.79998779297</ele>
        <time>2022-03-19T11:46:19.595Z</time>
      </trkpt>
      <trkpt lat="46.96018" lon="7.33404">
        <ele>492.29998779297</ele>
        <time>2022-03-19T11:46:23.009Z</time>
      </trkpt>
      <trkpt lat="46.96019" lon="7.33423">
        <ele>492.29998779297</ele>
        <time>2022-03-19T11:46:35.013Z</time>
      </trkpt>
      <trkpt lat="46.9602" lon="7.33436">
        <ele>492.39999389648</ele>
        <time>2022-03-19T11:46:44.196Z</time>
      </trkpt>
      <trkpt lat="46.96025" lon="7.33453">
        <ele>492.69999694824</ele>
        <time>2022-03-19T11:46:59.098Z</time>
      </trkpt>
      <trkpt lat="46.96026" lon="7.33463">
        <ele>492.89999389648</ele>
        <time>2022-03-19T11:47:07.767Z</time>
      </trkpt>
      <trkpt lat="46.96026" lon="7.3347">
        <ele>493.19999694824</ele>
        <time>2022-03-19T11:47:16.183Z</time>
      </trkpt>
      <trkpt lat="46.96026" lon="7.33476">
        <ele>493.39999389648</ele>
        <time>2022-03-19T11:47:22.741Z</time>
      </trkpt>
      <trkpt lat="46.96026" lon="7.33481">
        <ele>493.5</ele>
        <time>2022-03-19T11:47:27.047Z</time>
      </trkpt>
      <trkpt lat="46.96024" lon="7.33495">
        <ele>494</ele>
        <time>2022-03-19T11:47:42.928Z</time>
      </trkpt>
      <trkpt lat="46.96019" lon="7.33515">
        <ele>494.69999694824</ele>
        <time>2022-03-19T11:48:06.108Z</time>
      </trkpt>
      <trkpt lat="46.96017" lon="7.33525">
        <ele>495</ele>
        <time>2022-03-19T11:48:16.806Z</time>
      </trkpt>
      <trkpt lat="46.96014" lon="7.33537">
        <ele>495.39999389648</ele>
        <time>2022-03-19T11:48:30.510Z</time>
      </trkpt>
      <trkpt lat="46.96011" lon="7.33547">
        <ele>495.79998779297</ele>
        <time>2022-03-19T11:48:42.837Z</time>
      </trkpt>
      <trkpt lat="46.96008" lon="7.33554">
        <ele>495.89999389648</ele>
        <time>2022-03-19T11:48:49.053Z</time>
      </trkpt>
      <trkpt lat="46.96" lon="7.33574">
        <ele>496.19999694824</ele>
        <time>2022-03-19T11:49:06.725Z</time>
      </trkpt>
      <trkpt lat="46.95998" lon="7.33579">
        <ele>496.29998779297</ele>
        <time>2022-03-19T11:49:11.476Z</time>
      </trkpt>
      <trkpt lat="46.95996" lon="7.33587">
        <ele>496.59999084473</ele>
        <time>2022-03-19T11:49:20.959Z</time>
      </trkpt>
      <trkpt lat="46.95994" lon="7.33595">
        <ele>496.79998779297</ele>
        <time>2022-03-19T11:49:28.795Z</time>
      </trkpt>
      <trkpt lat="46.95993" lon="7.33603">
        <ele>497.09999084473</ele>
        <time>2022-03-19T11:49:37.997Z</time>
      </trkpt>
      <trkpt lat="46.95993" lon="7.33611">
        <ele>497.39999389648</ele>
        <time>2022-03-19T11:49:47.104Z</time>
      </trkpt>
      <trkpt lat="46.95993" lon="7.3362">
        <ele>497.69999694824</ele>
        <time>2022-03-19T11:49:56.942Z</time>
      </trkpt>
      <trkpt lat="46.95994" lon="7.33629">
        <ele>498.19999694824</ele>
        <time>2022-03-19T11:50:09.478Z</time>
      </trkpt>
      <trkpt lat="46.95994" lon="7.33638">
        <ele>498.59999084473</ele>
        <time>2022-03-19T11:50:20.481Z</time>
      </trkpt>
      <trkpt lat="46.95995" lon="7.33644">
        <ele>498.89999389648</ele>
        <time>2022-03-19T11:50:28.380Z</time>
      </trkpt>
      <trkpt lat="46.95996" lon="7.33654">
        <ele>499.5</ele>
        <time>2022-03-19T11:50:43.072Z</time>
      </trkpt>
      <trkpt lat="46.95999" lon="7.33666">
        <ele>500.19999694824</ele>
        <time>2022-03-19T11:51:00.629Z</time>
      </trkpt>
      <trkpt lat="46.96" lon="7.33671">
        <ele>500.5</ele>
        <time>2022-03-19T11:51:08.035Z</time>
      </trkpt>
      <trkpt lat="46.96" lon="7.33679">
        <ele>500.69999694824</ele>
        <time>2022-03-19T11:51:15.619Z</time>
      </trkpt>
      <trkpt lat="46.96001" lon="7.33686">
        <ele>501</ele>
        <time>2022-03-19T11:51:24.136Z</time>
      </trkpt>
      <trkpt lat="46.96001" lon="7.33693">
        <ele>501.09999084473</ele>
        <time>2022-03-19T11:51:29.592Z</time>
      </trkpt>
      <trkpt lat="46.96" lon="7.33702">
        <ele>501.29998779297</ele>
        <time>2022-03-19T11:51:37.732Z</time>
      </trkpt>
      <trkpt lat="46.95999" lon="7.33713">
        <ele>501.5</ele>
        <time>2022-03-19T11:51:46.953Z</time>
      </trkpt>
      <trkpt lat="46.95993" lon="7.3374">
        <ele>502.09999084473</ele>
        <time>2022-03-19T11:52:11.920Z</time>
      </trkpt>
      <trkpt lat="46.95988" lon="7.33759">
        <ele>502.59999084473</ele>
        <time>2022-03-19T11:52:31.052Z</time>
      </trkpt>
      <trkpt lat="46.95983" lon="7.33774">
        <ele>502.89999389648</ele>
        <time>2022-03-19T11:52:44.910Z</time>
      </trkpt>
      <trkpt lat="46.95977" lon="7.33784">
        <ele>502.39999389648</ele>
        <time>2022-03-19T11:52:46.835Z</time>
      </trkpt>
      <trkpt lat="46.9597" lon="7.3379">
        <ele>501.59999084473</ele>
        <time>2022-03-19T11:52:48.545Z</time>
      </trkpt>
      <trkpt lat="46.95958" lon="7.33796">
        <ele>500.29998779297</ele>
        <time>2022-03-19T11:52:51.218Z</time>
      </trkpt>
      <trkpt lat="46.95952" lon="7.338">
        <ele>499.79998779297</ele>
        <time>2022-03-19T11:52:52.608Z</time>
      </trkpt>
      <trkpt lat="46.95948" lon="7.33806">
        <ele>499.69999694824</ele>
        <time>2022-03-19T11:52:54.371Z</time>
      </trkpt>
      <trkpt lat="46.95948" lon="7.33817">
        <ele>499.69999694824</ele>
        <time>2022-03-19T11:53:01.300Z</time>
      </trkpt>
      <trkpt lat="46.95951" lon="7.33834">
        <ele>499.69999694824</ele>
        <time>2022-03-19T11:53:12.361Z</time>
      </trkpt>
      <trkpt lat="46.95954" lon="7.33847">
        <ele>499.89999389648</ele>
        <time>2022-03-19T11:53:23.108Z</time>
      </trkpt>
      <trkpt lat="46.95956" lon="7.3386">
        <ele>500.09999084473</ele>
        <time>2022-03-19T11:53:33.619Z</time>
      </trkpt>
      <trkpt lat="46.95958" lon="7.33875">
        <ele>500.59999084473</ele>
        <time>2022-03-19T11:53:50.229Z</time>
      </trkpt>
      <trkpt lat="46.95961" lon="7.33889">
        <ele>501</ele>
        <time>2022-03-19T11:54:04.805Z</time>
      </trkpt>
      <trkpt lat="46.95967" lon="7.33906">
        <ele>500.19999694824</ele>
        <time>2022-03-19T11:54:07.436Z</time>
      </trkpt>
      <trkpt lat="46.95977" lon="7.33927">
        <ele>499.69999694824</ele>
        <time>2022-03-19T11:54:12.180Z</time>
      </trkpt>
      <trkpt lat="46.95985" lon="7.33945">
        <ele>498.79998779297</ele>
        <time>2022-03-19T11:54:15.129Z</time>
      </trkpt>
      <trkpt lat="46.95989" lon="7.33958">
        <ele>498.09999084473</ele>
        <time>2022-03-19T11:54:17.181Z</time>
      </trkpt>
      <trkpt lat="46.95991" lon="7.33966">
        <ele>497.69999694824</ele>
        <time>2022-03-19T11:54:18.407Z</time>
      </trkpt>
      <trkpt lat="46.95991" lon="7.33967">
        <ele>497.69999694824</ele>
        <time>2022-03-19T11:54:19.037Z</time>
      </trkpt>
      <trkpt lat="46.95991" lon="7.33966">
        <ele>497.69999694824</ele>
        <time>2022-03-19T11:54:19.666Z</time>
      </trkpt>
      <trkpt lat="46.95993" lon="7.33973">
        <ele>497.29998779297</ele>
        <time>2022-03-19T11:54:20.758Z</time>
      </trkpt>
      <trkpt lat="46.95995" lon="7.33988">
        <ele>496.5</ele>
        <time>2022-03-19T11:54:22.957Z</time>
      </trkpt>
      <trkpt lat="46.96001" lon="7.34022">
        <ele>494.89999389648</ele>
        <time>2022-03-19T11:54:28.010Z</time>
      </trkpt>
      <trkpt lat="46.96004" lon="7.34046">
        <ele>493.5</ele>
        <time>2022-03-19T11:54:31.521Z</time>
      </trkpt>
      <trkpt lat="46.96006" lon="7.34058">
        <ele>492.79998779297</ele>
        <time>2022-03-19T11:54:33.299Z</time>
      </trkpt>
      <trkpt lat="46.96007" lon="7.34075">
        <ele>492</ele>
        <time>2022-03-19T11:54:35.754Z</time>
      </trkpt>
      <trkpt lat="46.96007" lon="7.3408">
        <ele>491.89999389648</ele>
        <time>2022-03-19T11:54:36.673Z</time>
      </trkpt>
      <trkpt lat="46.96006" lon="7.34085">
        <ele>491.69999694824</ele>
        <time>2022-03-19T11:54:37.419Z</time>
      </trkpt>
      <trkpt lat="46.96005" lon="7.34089">
        <ele>491.69999694824</ele>
        <time>2022-03-19T11:54:40.102Z</time>
      </trkpt>
      <trkpt lat="46.96003" lon="7.34094">
        <ele>491.59999084473</ele>
        <time>2022-03-19T11:54:41.215Z</time>
      </trkpt>
      <trkpt lat="46.96" lon="7.34098">
        <ele>491.5</ele>
        <time>2022-03-19T11:54:42.365Z</time>
      </trkpt>
      <trkpt lat="46.95998" lon="7.34102">
        <ele>491.29998779297</ele>
        <time>2022-03-19T11:54:43.058Z</time>
      </trkpt>
      <trkpt lat="46.95997" lon="7.34105">
        <ele>491.29998779297</ele>
        <time>2022-03-19T11:54:45.161Z</time>
      </trkpt>
      <trkpt lat="46.95997" lon="7.34109">
        <ele>491.29998779297</ele>
        <time>2022-03-19T11:54:47.681Z</time>
      </trkpt>
      <trkpt lat="46.95997" lon="7.34115">
        <ele>491.29998779297</ele>
        <time>2022-03-19T11:54:51.461Z</time>
      </trkpt>
      <trkpt lat="46.95998" lon="7.3412">
        <ele>491.39999389648</ele>
        <time>2022-03-19T11:54:55.882Z</time>
      </trkpt>
      <trkpt lat="46.95999" lon="7.34125">
        <ele>491.39999389648</ele>
        <time>2022-03-19T11:54:59.164Z</time>
      </trkpt>
      <trkpt lat="46.96002" lon="7.34134">
        <ele>491.59999084473</ele>
        <time>2022-03-19T11:55:07.783Z</time>
      </trkpt>
      <trkpt lat="46.96005" lon="7.34143">
        <ele>491.69999694824</ele>
        <time>2022-03-19T11:55:15.068Z</time>
      </trkpt>
      <trkpt lat="46.96007" lon="7.34152">
        <ele>491.19999694824</ele>
        <time>2022-03-19T11:55:16.430Z</time>
      </trkpt>
      <trkpt lat="46.96009" lon="7.34161">
        <ele>490.69999694824</ele>
        <time>2022-03-19T11:55:17.792Z</time>
      </trkpt>
      <trkpt lat="46.96009" lon="7.3417">
        <ele>490.39999389648</ele>
        <time>2022-03-19T11:55:19.164Z</time>
      </trkpt>
      <trkpt lat="46.9601" lon="7.34178">
        <ele>490.29998779297</ele>
        <time>2022-03-19T11:55:20.862Z</time>
      </trkpt>
      <trkpt lat="46.9601" lon="7.34185">
        <ele>490.39999389648</ele>
        <time>2022-03-19T11:55:26.318Z</time>
      </trkpt>
      <trkpt lat="46.96007" lon="7.34217">
        <ele>491.5</ele>
        <time>2022-03-19T11:56:01.872Z</time>
      </trkpt>
      <trkpt lat="46.96006" lon="7.34239">
        <ele>491.19999694824</ele>
        <time>2022-03-19T11:56:06.372Z</time>
      </trkpt>
      <trkpt lat="46.96007" lon="7.34255">
        <ele>491.79998779297</ele>
        <time>2022-03-19T11:56:24.633Z</time>
      </trkpt>
      <trkpt lat="46.96006" lon="7.34265">
        <ele>492.39999389648</ele>
        <time>2022-03-19T11:56:39.326Z</time>
      </trkpt>
      <trkpt lat="46.96005" lon="7.34274">
        <ele>492.89999389648</ele>
        <time>2022-03-19T11:56:51.862Z</time>
      </trkpt>
      <trkpt lat="46.96003" lon="7.34284">
        <ele>493.19999694824</ele>
        <time>2022-03-19T11:57:02.559Z</time>
      </trkpt>
      <trkpt lat="46.96" lon="7.34295">
        <ele>493.79998779297</ele>
        <time>2022-03-19T11:57:18.067Z</time>
      </trkpt>
      <trkpt lat="46.95993" lon="7.34311">
        <ele>495</ele>
        <time>2022-03-19T11:57:47.083Z</time>
      </trkpt>
      <trkpt lat="46.9599" lon="7.34314">
        <ele>495.59999084473</ele>
        <time>2022-03-19T11:58:00.014Z</time>
      </trkpt>
      <trkpt lat="46.95987" lon="7.34315">
        <ele>496.09999084473</ele>
        <time>2022-03-19T11:58:10.966Z</time>
      </trkpt>
      <trkpt lat="46.9598" lon="7.34316">
        <ele>497</ele>
        <time>2022-03-19T11:58:34.171Z</time>
      </trkpt>
      <trkpt lat="46.95972" lon="7.34315">
        <ele>498.69999694824</ele>
        <time>2022-03-19T11:59:02.754Z</time>
      </trkpt>
      <trkpt lat="46.95965" lon="7.34314">
        <ele>500</ele>
        <time>2022-03-19T11:59:27.792Z</time>
      </trkpt>
      <trkpt lat="46.9596" lon="7.34314">
        <ele>500</ele>
        <time>2022-03-19T11:59:32.407Z</time>
      </trkpt>
      <trkpt lat="46.95957" lon="7.34315">
        <ele>499.89999389648</ele>
        <time>2022-03-19T11:59:33.209Z</time>
      </trkpt>
      <trkpt lat="46.95954" lon="7.34316">
        <ele>499.89999389648</ele>
        <time>2022-03-19T11:59:36.049Z</time>
      </trkpt>
      <trkpt lat="46.9595" lon="7.34321">
        <ele>500.19999694824</ele>
        <time>2022-03-19T11:59:44.946Z</time>
      </trkpt>
      <trkpt lat="46.95947" lon="7.34326">
        <ele>500.39999389648</ele>
        <time>2022-03-19T11:59:51.972Z</time>
      </trkpt>
      <trkpt lat="46.95945" lon="7.3433">
        <ele>501</ele>
        <time>2022-03-19T12:00:04.020Z</time>
      </trkpt>
      <trkpt lat="46.95945" lon="7.34335">
        <ele>501.39999389648</ele>
        <time>2022-03-19T12:00:13.861Z</time>
      </trkpt>
      <trkpt lat="46.95946" lon="7.3434">
        <ele>501.5</ele>
        <time>2022-03-19T12:00:18.282Z</time>
      </trkpt>
      <trkpt lat="46.95949" lon="7.34349">
        <ele>501.39999389648</ele>
        <time>2022-03-19T12:00:20.463Z</time>
      </trkpt>
      <trkpt lat="46.95952" lon="7.34361">
        <ele>502.29998779297</ele>
        <time>2022-03-19T12:00:42.068Z</time>
      </trkpt>
      <trkpt lat="46.95954" lon="7.34375">
        <ele>504.5</ele>
        <time>2022-03-19T12:01:16.821Z</time>
      </trkpt>
      <trkpt lat="46.95953" lon="7.34385">
        <ele>505</ele>
        <time>2022-03-19T12:01:29.877Z</time>
      </trkpt>
      <trkpt lat="46.9595" lon="7.34397">
        <ele>505.5</ele>
        <time>2022-03-19T12:01:44.663Z</time>
      </trkpt>
      <trkpt lat="46.9595" lon="7.34407">
        <ele>505.79998779297</ele>
        <time>2022-03-19T12:01:55.208Z</time>
      </trkpt>
      <trkpt lat="46.9595" lon="7.34412">
        <ele>506.09999084473</ele>
        <time>2022-03-19T12:02:02.535Z</time>
      </trkpt>
      <trkpt lat="46.9595" lon="7.34425">
        <ele>506.69999694824</ele>
        <time>2022-03-19T12:02:18.724Z</time>
      </trkpt>
      <trkpt lat="46.9595" lon="7.34434">
        <ele>506.89999389648</ele>
        <time>2022-03-19T12:02:26.803Z</time>
      </trkpt>
      <trkpt lat="46.95949" lon="7.34445">
        <ele>507.59999084473</ele>
        <time>2022-03-19T12:02:43.731Z</time>
      </trkpt>
      <trkpt lat="46.95946" lon="7.3446">
        <ele>508.39999389648</ele>
        <time>2022-03-19T12:03:04.319Z</time>
      </trkpt>
      <trkpt lat="46.95943" lon="7.34474">
        <ele>510</ele>
        <time>2022-03-19T12:03:39.973Z</time>
      </trkpt>
      <trkpt lat="46.95939" lon="7.34483">
        <ele>510.89999389648</ele>
        <time>2022-03-19T12:04:02.586Z</time>
      </trkpt>
      <trkpt lat="46.95937" lon="7.34493">
        <ele>510.89999389648</ele>
        <time>2022-03-19T12:04:09.150Z</time>
      </trkpt>
      <trkpt lat="46.95936" lon="7.345">
        <ele>511.09999084473</ele>
        <time>2022-03-19T12:04:16.362Z</time>
      </trkpt>
      <trkpt lat="46.95936" lon="7.34509">
        <ele>511.29998779297</ele>
        <time>2022-03-19T12:04:24.441Z</time>
      </trkpt>
      <trkpt lat="46.95937" lon="7.34514">
        <ele>511.39999389648</ele>
        <time>2022-03-19T12:04:28.862Z</time>
      </trkpt>
      <trkpt lat="46.9594" lon="7.3452">
        <ele>511.5</ele>
        <time>2022-03-19T12:04:34.579Z</time>
      </trkpt>
      <trkpt lat="46.95942" lon="7.3453">
        <ele>511.29998779297</ele>
        <time>2022-03-19T12:04:36.519Z</time>
      </trkpt>
      <trkpt lat="46.95944" lon="7.34539">
        <ele>510.69999694824</ele>
        <time>2022-03-19T12:04:37.881Z</time>
      </trkpt>
      <trkpt lat="46.95944" lon="7.34546">
        <ele>511.09999084473</ele>
        <time>2022-03-19T12:04:47.778Z</time>
      </trkpt>
      <trkpt lat="46.95946" lon="7.34555">
        <ele>511.29998779297</ele>
        <time>2022-03-19T12:04:56.101Z</time>
      </trkpt>
      <trkpt lat="46.95949" lon="7.3456">
        <ele>510.29998779297</ele>
        <time>2022-03-19T12:04:57.058Z</time>
      </trkpt>
      <trkpt lat="46.9595" lon="7.34567">
        <ele>507.79998779297</ele>
        <time>2022-03-19T12:04:58.087Z</time>
      </trkpt>
      <trkpt lat="46.95952" lon="7.34576">
        <ele>505.79998779297</ele>
        <time>2022-03-19T12:04:59.449Z</time>
      </trkpt>
      <trkpt lat="46.95953" lon="7.34582">
        <ele>504.29998779297</ele>
        <time>2022-03-19T12:05:00.338Z</time>
      </trkpt>
      <trkpt lat="46.95953" lon="7.34586">
        <ele>503.09999084473</ele>
        <time>2022-03-19T12:05:00.914Z</time>
      </trkpt>
      <trkpt lat="46.95951" lon="7.3459">
        <ele>502.09999084473</ele>
        <time>2022-03-19T12:05:01.627Z</time>
      </trkpt>
      <trkpt lat="46.95944" lon="7.3459">
        <ele>499.29998779297</ele>
        <time>2022-03-19T12:05:03.103Z</time>
      </trkpt>
      <trkpt lat="46.95939" lon="7.34593">
        <ele>497.69999694824</ele>
        <time>2022-03-19T12:05:04.242Z</time>
      </trkpt>
      <trkpt lat="46.95936" lon="7.34597">
        <ele>496.59999084473</ele>
        <time>2022-03-19T12:05:05.097Z</time>
      </trkpt>
      <trkpt lat="46.95932" lon="7.346">
        <ele>495.59999084473</ele>
        <time>2022-03-19T12:05:06.044Z</time>
      </trkpt>
      <trkpt lat="46.95924" lon="7.34612">
        <ele>493.39999389648</ele>
        <time>2022-03-19T12:05:08.458Z</time>
      </trkpt>
      <trkpt lat="46.95922" lon="7.3462">
        <ele>492.69999694824</ele>
        <time>2022-03-19T12:05:09.684Z</time>
      </trkpt>
      <trkpt lat="46.95928" lon="7.3462">
        <ele>491.89999389648</ele>
        <time>2022-03-19T12:05:10.949Z</time>
      </trkpt>
      <trkpt lat="46.95935" lon="7.34621">
        <ele>490.39999389648</ele>
        <time>2022-03-19T12:05:12.432Z</time>
      </trkpt>
      <trkpt lat="46.9594" lon="7.34622">
        <ele>489.19999694824</ele>
        <time>2022-03-19T12:05:13.495Z</time>
      </trkpt>
      <trkpt lat="46.95946" lon="7.34625">
        <ele>487.69999694824</ele>
        <time>2022-03-19T12:05:14.832Z</time>
      </trkpt>
      <trkpt lat="46.9595" lon="7.34629">
        <ele>486.79998779297</ele>
        <time>2022-03-19T12:05:15.853Z</time>
      </trkpt>
      <trkpt lat="46.95953" lon="7.34635">
        <ele>485.89999389648</ele>
        <time>2022-03-19T12:05:16.923Z</time>
      </trkpt>
      <trkpt lat="46.95957" lon="7.34642">
        <ele>484.79998779297</ele>
        <time>2022-03-19T12:05:18.237Z</time>
      </trkpt>
      <trkpt lat="46.95961" lon="7.34652">
        <ele>483.89999389648</ele>
        <time>2022-03-19T12:05:19.905Z</time>
      </trkpt>
      <trkpt lat="46.95964" lon="7.3466">
        <ele>483.5</ele>
        <time>2022-03-19T12:05:21.131Z</time>
      </trkpt>
      <trkpt lat="46.95972" lon="7.34672">
        <ele>483</ele>
        <time>2022-03-19T12:05:23.809Z</time>
      </trkpt>
      <trkpt lat="46.95979" lon="7.34679">
        <ele>482.89999389648</ele>
        <time>2022-03-19T12:05:26.611Z</time>
      </trkpt>
      <trkpt lat="46.95988" lon="7.34687">
        <ele>482.59999084473</ele>
        <time>2022-03-19T12:05:29.471Z</time>
      </trkpt>
      <trkpt lat="46.95998" lon="7.34695">
        <ele>482.59999084473</ele>
        <time>2022-03-19T12:05:39.987Z</time>
      </trkpt>
      <trkpt lat="46.96004" lon="7.34703">
        <ele>482.59999084473</ele>
        <time>2022-03-19T12:05:47.475Z</time>
      </trkpt>
      <trkpt lat="46.96016" lon="7.34725">
        <ele>482.39999389648</ele>
        <time>2022-03-19T12:05:53.947Z</time>
      </trkpt>
      <trkpt lat="46.9603" lon="7.3475">
        <ele>482</ele>
        <time>2022-03-19T12:06:00.691Z</time>
      </trkpt>
      <trkpt lat="46.96043" lon="7.34772">
        <ele>482.09999084473</ele>
        <time>2022-03-19T12:06:19.908Z</time>
      </trkpt>
      <trkpt lat="46.96049" lon="7.34785">
        <ele>482.09999084473</ele>
        <time>2022-03-19T12:06:29.794Z</time>
      </trkpt>
      <trkpt lat="46.96053" lon="7.34797">
        <ele>482</ele>
        <time>2022-03-19T12:06:32.840Z</time>
      </trkpt>
      <trkpt lat="46.96056" lon="7.34813">
        <ele>482.09999084473</ele>
        <time>2022-03-19T12:06:44.212Z</time>
      </trkpt>
      <trkpt lat="46.9606" lon="7.34826">
        <ele>482.19999694824</ele>
        <time>2022-03-19T12:06:54.128Z</time>
      </trkpt>
      <trkpt lat="46.96071" lon="7.34845">
        <ele>482.19999694824</ele>
        <time>2022-03-19T12:07:09.823Z</time>
      </trkpt>
      <trkpt lat="46.96084" lon="7.34869">
        <ele>482.09999084473</ele>
        <time>2022-03-19T12:07:27.806Z</time>
      </trkpt>
      <trkpt lat="46.96096" lon="7.34893">
        <ele>482.09999084473</ele>
        <time>2022-03-19T12:07:46.547Z</time>
      </trkpt>
      <trkpt lat="46.96104" lon="7.34906">
        <ele>482.09999084473</ele>
        <time>2022-03-19T12:07:57.573Z</time>
      </trkpt>
      <trkpt lat="46.96154" lon="7.35">
        <ele>482.19999694824</ele>
        <time>2022-03-19T12:09:13.499Z</time>
      </trkpt>
      <trkpt lat="46.96169" lon="7.35028">
        <ele>482.19999694824</ele>
        <time>2022-03-19T12:09:35.921Z</time>
      </trkpt>
      <trkpt lat="46.96184" lon="7.35056">
        <ele>482.09999084473</ele>
        <time>2022-03-19T12:09:57.013Z</time>
      </trkpt>
      <trkpt lat="46.96215" lon="7.35115">
        <ele>482.19999694824</ele>
        <time>2022-03-19T12:10:44.776Z</time>
      </trkpt>
      <trkpt lat="46.96231" lon="7.35144">
        <ele>482.09999084473</ele>
        <time>2022-03-19T12:11:06.932Z</time>
      </trkpt>
      <trkpt lat="46.96246" lon="7.35172">
        <ele>482.09999084473</ele>
        <time>2022-03-19T12:11:29.354Z</time>
      </trkpt>
      <trkpt lat="46.96258" lon="7.35195">
        <ele>481.89999389648</ele>
        <time>2022-03-19T12:11:36.032Z</time>
      </trkpt>
      <trkpt lat="46.96266" lon="7.35211">
        <ele>481.89999389648</ele>
        <time>2022-03-19T12:11:48.526Z</time>
      </trkpt>
      <trkpt lat="46.96273" lon="7.35227">
        <ele>481.89999389648</ele>
        <time>2022-03-19T12:12:00.497Z</time>
      </trkpt>
      <trkpt lat="46.96279" lon="7.35245">
        <ele>481.79998779297</ele>
        <time>2022-03-19T12:12:05.297Z</time>
      </trkpt>
      <trkpt lat="46.96284" lon="7.35263">
        <ele>481.79998779297</ele>
        <time>2022-03-19T12:12:17.538Z</time>
      </trkpt>
      <trkpt lat="46.96288" lon="7.35285">
        <ele>481.69999694824</ele>
        <time>2022-03-19T12:12:30.592Z</time>
      </trkpt>
      <trkpt lat="46.96298" lon="7.35341">
        <ele>481.89999389648</ele>
        <time>2022-03-19T12:13:08.827Z</time>
      </trkpt>
      <trkpt lat="46.96301" lon="7.35363">
        <ele>482</ele>
        <time>2022-03-19T12:13:23.858Z</time>
      </trkpt>
      <trkpt lat="46.96303" lon="7.35385">
        <ele>482.29998779297</ele>
        <time>2022-03-19T12:13:40.936Z</time>
      </trkpt>
      <trkpt lat="46.96304" lon="7.35413">
        <ele>482.69999694824</ele>
        <time>2022-03-19T12:14:02.780Z</time>
      </trkpt>
      <trkpt lat="46.96303" lon="7.35439">
        <ele>482.89999389648</ele>
        <time>2022-03-19T12:14:21.068Z</time>
      </trkpt>
      <trkpt lat="46.96302" lon="7.35462">
        <ele>483.19999694824</ele>
        <time>2022-03-19T12:14:38.658Z</time>
      </trkpt>
      <trkpt lat="46.96301" lon="7.35486">
        <ele>483.59999084473</ele>
        <time>2022-03-19T12:14:58.157Z</time>
      </trkpt>
      <trkpt lat="46.963" lon="7.35499">
        <ele>484</ele>
        <time>2022-03-19T12:15:12.092Z</time>
      </trkpt>
      <trkpt lat="46.96301" lon="7.35513">
        <ele>484.5</ele>
        <time>2022-03-19T12:15:27.806Z</time>
      </trkpt>
      <trkpt lat="46.96302" lon="7.35531">
        <ele>485.09999084473</ele>
        <time>2022-03-19T12:15:47.527Z</time>
      </trkpt>
      <trkpt lat="46.96304" lon="7.35555">
        <ele>485.69999694824</ele>
        <time>2022-03-19T12:16:10.362Z</time>
      </trkpt>
      <trkpt lat="46.96305" lon="7.35569">
        <ele>486.09999084473</ele>
        <time>2022-03-19T12:16:24.695Z</time>
      </trkpt>
      <trkpt lat="46.96305" lon="7.35585">
        <ele>486.19999694824</ele>
        <time>2022-03-19T12:16:35.696Z</time>
      </trkpt>
      <trkpt lat="46.96308" lon="7.35623">
        <ele>486.89999389648</ele>
        <time>2022-03-19T12:17:07.636Z</time>
      </trkpt>
      <trkpt lat="46.96308" lon="7.35629">
        <ele>487</ele>
        <time>2022-03-19T12:17:12.505Z</time>
      </trkpt>
      <trkpt lat="46.96309" lon="7.35634">
        <ele>487</ele>
        <time>2022-03-19T12:17:15.787Z</time>
      </trkpt>
      <trkpt lat="46.9631" lon="7.35638">
        <ele>486.89999389648</ele>
        <time>2022-03-19T12:17:16.530Z</time>
      </trkpt>
      <trkpt lat="46.96312" lon="7.35642">
        <ele>486.89999389648</ele>
        <time>2022-03-19T12:17:19.654Z</time>
      </trkpt>
      <trkpt lat="46.96321" lon="7.35655">
        <ele>486.5</ele>
        <time>2022-03-19T12:17:22.976Z</time>
      </trkpt>
      <trkpt lat="46.96325" lon="7.35663">
        <ele>486.29998779297</ele>
        <time>2022-03-19T12:17:24.795Z</time>
      </trkpt>
      <trkpt lat="46.9633" lon="7.35674">
        <ele>486.39999389648</ele>
        <time>2022-03-19T12:17:34.061Z</time>
      </trkpt>
      <trkpt lat="46.96333" lon="7.35688">
        <ele>486.19999694824</ele>
        <time>2022-03-19T12:17:37.055Z</time>
      </trkpt>
      <trkpt lat="46.96336" lon="7.35706">
        <ele>486</ele>
        <time>2022-03-19T12:17:41.029Z</time>
      </trkpt>
      <trkpt lat="46.9634" lon="7.35721">
        <ele>486</ele>
        <time>2022-03-19T12:17:51.173Z</time>
      </trkpt>
      <trkpt lat="46.96345" lon="7.35737">
        <ele>485.79998779297</ele>
        <time>2022-03-19T12:17:54.908Z</time>
      </trkpt>
      <trkpt lat="46.96353" lon="7.35756">
        <ele>485.39999389648</ele>
        <time>2022-03-19T12:17:59.150Z</time>
      </trkpt>
      <trkpt lat="46.96358" lon="7.35772">
        <ele>485.39999389648</ele>
        <time>2022-03-19T12:18:10.235Z</time>
      </trkpt>
      <trkpt lat="46.96362" lon="7.35781">
        <ele>485.39999389648</ele>
        <time>2022-03-19T12:18:17.000Z</time>
      </trkpt>
      <trkpt lat="46.96366" lon="7.35783">
        <ele>485.29998779297</ele>
        <time>2022-03-19T12:18:18.211Z</time>
      </trkpt>
      <trkpt lat="46.96369" lon="7.35785">
        <ele>485.29998779297</ele>
        <time>2022-03-19T12:18:21.253Z</time>
      </trkpt>
      <trkpt lat="46.96372" lon="7.35791">
        <ele>485.19999694824</ele>
        <time>2022-03-19T12:18:22.775Z</time>
      </trkpt>
      <trkpt lat="46.96377" lon="7.358">
        <ele>485.19999694824</ele>
        <time>2022-03-19T12:18:30.085Z</time>
      </trkpt>
      <trkpt lat="46.96384" lon="7.35815">
        <ele>485.09999084473</ele>
        <time>2022-03-19T12:18:34.394Z</time>
      </trkpt>
      <trkpt lat="46.96387" lon="7.35826">
        <ele>485</ele>
        <time>2022-03-19T12:18:37.047Z</time>
      </trkpt>
      <trkpt lat="46.96393" lon="7.35845">
        <ele>485.09999084473</ele>
        <time>2022-03-19T12:18:51.137Z</time>
      </trkpt>
      <trkpt lat="46.96397" lon="7.35862">
        <ele>485</ele>
        <time>2022-03-19T12:18:55.397Z</time>
      </trkpt>
      <trkpt lat="46.964" lon="7.35871">
        <ele>485.19999694824</ele>
        <time>2022-03-19T12:19:04.016Z</time>
      </trkpt>
      <trkpt lat="46.96403" lon="7.35876">
        <ele>485.19999694824</ele>
        <time>2022-03-19T12:19:08.209Z</time>
      </trkpt>
      <trkpt lat="46.96407" lon="7.35881">
        <ele>485.19999694824</ele>
        <time>2022-03-19T12:19:13.062Z</time>
      </trkpt>
      <trkpt lat="46.9641" lon="7.35884">
        <ele>485.09999084473</ele>
        <time>2022-03-19T12:19:14.059Z</time>
      </trkpt>
      <trkpt lat="46.96418" lon="7.35889">
        <ele>485.09999084473</ele>
        <time>2022-03-19T12:19:22.086Z</time>
      </trkpt>
      <trkpt lat="46.96428" lon="7.35893">
        <ele>485.09999084473</ele>
        <time>2022-03-19T12:19:31.654Z</time>
      </trkpt>
      <trkpt lat="46.96441" lon="7.35895">
        <ele>485.19999694824</ele>
        <time>2022-03-19T12:19:44.627Z</time>
      </trkpt>
      <trkpt lat="46.96459" lon="7.35898">
        <ele>485.39999389648</ele>
        <time>2022-03-19T12:20:03.229Z</time>
      </trkpt>
      <trkpt lat="46.96484" lon="7.359">
        <ele>485.79998779297</ele>
        <time>2022-03-19T12:20:30.298Z</time>
      </trkpt>
      <trkpt lat="46.96498" lon="7.35901">
        <ele>486.09999084473</ele>
        <time>2022-03-19T12:20:46.390Z</time>
      </trkpt>
      <trkpt lat="46.96517" lon="7.35899">
        <ele>486.59999084473</ele>
        <time>2022-03-19T12:21:09.537Z</time>
      </trkpt>
      <trkpt lat="46.9653" lon="7.35899">
        <ele>487.09999084473</ele>
        <time>2022-03-19T12:21:28.061Z</time>
      </trkpt>
      <trkpt lat="46.96533" lon="7.35899">
        <ele>487.59999084473</ele>
        <time>2022-03-19T12:21:38.741Z</time>
      </trkpt>
      <trkpt lat="46.9653" lon="7.35899">
        <ele>487.09999084473</ele>
        <time>2022-03-19T12:21:39.374Z</time>
      </trkpt>
      <trkpt lat="46.96598" lon="7.35894">
        <ele>488.19999694824</ele>
        <time>2022-03-19T12:22:53.129Z</time>
      </trkpt>
      <trkpt lat="46.96709" lon="7.35886">
        <ele>486.5</ele>
        <time>2022-03-19T12:23:28.278Z</time>
      </trkpt>
      <trkpt lat="46.96739" lon="7.35882">
        <ele>485.39999389648</ele>
        <time>2022-03-19T12:23:35.820Z</time>
      </trkpt>
      <trkpt lat="46.9675" lon="7.35882">
        <ele>485.29998779297</ele>
        <time>2022-03-19T12:23:39.589Z</time>
      </trkpt>
      <trkpt lat="46.96757" lon="7.35881">
        <ele>485.19999694824</ele>
        <time>2022-03-19T12:23:41.844Z</time>
      </trkpt>
      <trkpt lat="46.96762" lon="7.35875">
        <ele>484.89999389648</ele>
        <time>2022-03-19T12:23:43.318Z</time>
      </trkpt>
      <trkpt lat="46.96766" lon="7.35869">
        <ele>485.09999084473</ele>
        <time>2022-03-19T12:23:51.088Z</time>
      </trkpt>
      <trkpt lat="46.96769" lon="7.3586">
        <ele>485.09999084473</ele>
        <time>2022-03-19T12:23:57.397Z</time>
      </trkpt>
      <trkpt lat="46.96772" lon="7.35851">
        <ele>485.09999084473</ele>
        <time>2022-03-19T12:24:03.705Z</time>
      </trkpt>
      <trkpt lat="46.96772" lon="7.35849">
        <ele>485.09999084473</ele>
        <time>2022-03-19T12:24:04.965Z</time>
      </trkpt>
      <trkpt lat="46.96772" lon="7.35845">
        <ele>485.09999084473</ele>
        <time>2022-03-19T12:24:07.484Z</time>
      </trkpt>
      <trkpt lat="46.96766" lon="7.35836">
        <ele>484.09999084473</ele>
        <time>2022-03-19T12:24:09.294Z</time>
      </trkpt>
      <trkpt lat="46.96762" lon="7.35831">
        <ele>483.59999084473</ele>
        <time>2022-03-19T12:24:10.403Z</time>
      </trkpt>
      <trkpt lat="46.96758" lon="7.35828">
        <ele>483.39999389648</ele>
        <time>2022-03-19T12:24:11.446Z</time>
      </trkpt>
      <trkpt lat="46.96755" lon="7.35827">
        <ele>483.39999389648</ele>
        <time>2022-03-19T12:24:14.285Z</time>
      </trkpt>
      <trkpt lat="46.96753" lon="7.35828">
        <ele>483.5</ele>
        <time>2022-03-19T12:24:17.637Z</time>
      </trkpt>
      <trkpt lat="46.96751" lon="7.3583">
        <ele>483.39999389648</ele>
        <time>2022-03-19T12:24:18.216Z</time>
      </trkpt>
      <trkpt lat="46.96749" lon="7.35833">
        <ele>483.29998779297</ele>
        <time>2022-03-19T12:24:18.944Z</time>
      </trkpt>
      <trkpt lat="46.96747" lon="7.35851">
        <ele>483.19999694824</ele>
        <time>2022-03-19T12:24:23.270Z</time>
      </trkpt>
      <trkpt lat="46.96745" lon="7.35856">
        <ele>483.09999084473</ele>
        <time>2022-03-19T12:24:24.383Z</time>
      </trkpt>
      <trkpt lat="46.96743" lon="7.35861">
        <ele>482.89999389648</ele>
        <time>2022-03-19T12:24:25.253Z</time>
      </trkpt>
      <trkpt lat="46.96739" lon="7.35864">
        <ele>482.89999389648</ele>
        <time>2022-03-19T12:24:29.400Z</time>
      </trkpt>
      <trkpt lat="46.96735" lon="7.35864">
        <ele>482.69999694824</ele>
        <time>2022-03-19T12:24:30.284Z</time>
      </trkpt>
      <trkpt lat="46.96703" lon="7.35863">
        <ele>482.19999694824</ele>
        <time>2022-03-19T12:24:40.367Z</time>
      </trkpt>
      <trkpt lat="46.96672" lon="7.35865">
        <ele>481.59999084473</ele>
        <time>2022-03-19T12:24:49.712Z</time>
      </trkpt>
      <trkpt lat="46.96669" lon="7.35829">
        <ele>481.69999694824</ele>
        <time>2022-03-19T12:25:13.433Z</time>
      </trkpt>
      <trkpt lat="46.96668" lon="7.35809">
        <ele>481.69999694824</ele>
        <time>2022-03-19T12:25:26.064Z</time>
      </trkpt>
      <trkpt lat="46.96666" lon="7.35714">
        <ele>481.79998779297</ele>
        <time>2022-03-19T12:26:26.786Z</time>
      </trkpt>
      <trkpt lat="46.96666" lon="7.35662">
        <ele>481.5</ele>
        <time>2022-03-19T12:26:39.051Z</time>
      </trkpt>
      <trkpt lat="46.96664" lon="7.35598">
        <ele>481.59999084473</ele>
        <time>2022-03-19T12:27:20.267Z</time>
      </trkpt>
      <trkpt lat="46.96664" lon="7.3556">
        <ele>481.39999389648</ele>
        <time>2022-03-19T12:27:29.322Z</time>
      </trkpt>
      <trkpt lat="46.96664" lon="7.35535">
        <ele>481.5</ele>
        <time>2022-03-19T12:27:45.961Z</time>
      </trkpt>
      <trkpt lat="46.96661" lon="7.35508">
        <ele>481.59999084473</ele>
        <time>2022-03-19T12:28:04.080Z</time>
      </trkpt>
      <trkpt lat="46.96655" lon="7.35414">
        <ele>481.79998779297</ele>
        <time>2022-03-19T12:29:05.285Z</time>
      </trkpt>
      <trkpt lat="46.96651" lon="7.3536">
        <ele>481.69999694824</ele>
        <time>2022-03-19T12:29:38.139Z</time>
      </trkpt>
      <trkpt lat="46.96649" lon="7.35338">
        <ele>481.59999084473</ele>
        <time>2022-03-19T12:29:50.834Z</time>
      </trkpt>
      <trkpt lat="46.96648" lon="7.35328">
        <ele>481.69999694824</ele>
        <time>2022-03-19T12:29:58.175Z</time>
      </trkpt>
      <trkpt lat="46.96647" lon="7.35323">
        <ele>481.69999694824</ele>
        <time>2022-03-19T12:30:01.456Z</time>
      </trkpt>
      <trkpt lat="46.96648" lon="7.35316">
        <ele>481.69999694824</ele>
        <time>2022-03-19T12:30:05.961Z</time>
      </trkpt>
      <trkpt lat="46.96648" lon="7.35312">
        <ele>481.79998779297</ele>
        <time>2022-03-19T12:30:09.753Z</time>
      </trkpt>
      <trkpt lat="46.9665" lon="7.35309">
        <ele>481.79998779297</ele>
        <time>2022-03-19T12:30:12.394Z</time>
      </trkpt>
      <trkpt lat="46.96651" lon="7.35306">
        <ele>481.89999389648</ele>
        <time>2022-03-19T12:30:15.911Z</time>
      </trkpt>
      <trkpt lat="46.96653" lon="7.35303">
        <ele>481.89999389648</ele>
        <time>2022-03-19T12:30:18.552Z</time>
      </trkpt>
      <trkpt lat="46.96656" lon="7.35301">
        <ele>481.89999389648</ele>
        <time>2022-03-19T12:30:21.594Z</time>
      </trkpt>
      <trkpt lat="46.96659" lon="7.35299">
        <ele>481.89999389648</ele>
        <time>2022-03-19T12:30:24.636Z</time>
      </trkpt>
      <trkpt lat="46.96664" lon="7.35293">
        <ele>482.09999084473</ele>
        <time>2022-03-19T12:30:32.961Z</time>
      </trkpt>
      <trkpt lat="46.96667" lon="7.35289">
        <ele>482.19999694824</ele>
        <time>2022-03-19T12:30:37.797Z</time>
      </trkpt>
      <trkpt lat="46.9667" lon="7.35285">
        <ele>482.19999694824</ele>
        <time>2022-03-19T12:30:41.540Z</time>
      </trkpt>
      <trkpt lat="46.96675" lon="7.35273">
        <ele>482.29998779297</ele>
        <time>2022-03-19T12:30:51.330Z</time>
      </trkpt>
      <trkpt lat="46.96678" lon="7.35265">
        <ele>482.39999389648</ele>
        <time>2022-03-19T12:30:58.071Z</time>
      </trkpt>
      <trkpt lat="46.9668" lon="7.35258">
        <ele>482.5</ele>
        <time>2022-03-19T12:31:03.878Z</time>
      </trkpt>
      <trkpt lat="46.9668" lon="7.35253">
        <ele>482.5</ele>
        <time>2022-03-19T12:31:07.027Z</time>
      </trkpt>
      <trkpt lat="46.9668" lon="7.3525">
        <ele>482.59999084473</ele>
        <time>2022-03-19T12:31:10.306Z</time>
      </trkpt>
      <trkpt lat="46.96679" lon="7.35248">
        <ele>482.59999084473</ele>
        <time>2022-03-19T12:31:11.868Z</time>
      </trkpt>
      <trkpt lat="46.96678" lon="7.35245">
        <ele>482.5</ele>
        <time>2022-03-19T12:31:12.400Z</time>
      </trkpt>
      <trkpt lat="46.96672" lon="7.35239">
        <ele>482.59999084473</ele>
        <time>2022-03-19T12:31:20.071Z</time>
      </trkpt>
      <trkpt lat="46.9667" lon="7.35238">
        <ele>482.59999084473</ele>
        <time>2022-03-19T12:31:22.022Z</time>
      </trkpt>
      <trkpt lat="46.96667" lon="7.35238">
        <ele>482.39999389648</ele>
        <time>2022-03-19T12:31:22.601Z</time>
      </trkpt>
      <trkpt lat="46.96661" lon="7.35239">
        <ele>482.19999694824</ele>
        <time>2022-03-19T12:31:24.165Z</time>
      </trkpt>
      <trkpt lat="46.96657" lon="7.35239">
        <ele>482.09999084473</ele>
        <time>2022-03-19T12:31:25.294Z</time>
      </trkpt>
      <trkpt lat="46.96654" lon="7.35239">
        <ele>482</ele>
        <time>2022-03-19T12:31:26.070Z</time>
      </trkpt>
      <trkpt lat="46.96651" lon="7.35238">
        <ele>482</ele>
        <time>2022-03-19T12:31:28.909Z</time>
      </trkpt>
      <trkpt lat="46.96648" lon="7.35236">
        <ele>482</ele>
        <time>2022-03-19T12:31:31.951Z</time>
      </trkpt>
      <trkpt lat="46.96644" lon="7.35233">
        <ele>482</ele>
        <time>2022-03-19T12:31:36.098Z</time>
      </trkpt>
      <trkpt lat="46.96642" lon="7.35231">
        <ele>482</ele>
        <time>2022-03-19T12:31:38.333Z</time>
      </trkpt>
      <trkpt lat="46.96638" lon="7.35226">
        <ele>482</ele>
        <time>2022-03-19T12:31:43.186Z</time>
      </trkpt>
      <trkpt lat="46.96635" lon="7.35221">
        <ele>482.09999084473</ele>
        <time>2022-03-19T12:31:48.438Z</time>
      </trkpt>
      <trkpt lat="46.96632" lon="7.35215">
        <ele>482.29998779297</ele>
        <time>2022-03-19T12:31:55.769Z</time>
      </trkpt>
      <trkpt lat="46.96631" lon="7.35209">
        <ele>482.39999389648</ele>
        <time>2022-03-19T12:32:00.739Z</time>
      </trkpt>
      <trkpt lat="46.9663" lon="7.35201">
        <ele>482.69999694824</ele>
        <time>2022-03-19T12:32:09.941Z</time>
      </trkpt>
      <trkpt lat="46.96629" lon="7.35189">
        <ele>483.39999389648</ele>
        <time>2022-03-19T12:32:27.194Z</time>
      </trkpt>
      <trkpt lat="46.96628" lon="7.35172">
        <ele>484.5</ele>
        <time>2022-03-19T12:32:53.713Z</time>
      </trkpt>
      <trkpt lat="46.96629" lon="7.35162">
        <ele>485</ele>
        <time>2022-03-19T12:33:06.768Z</time>
      </trkpt>
      <trkpt lat="46.96629" lon="7.35153">
        <ele>485.29998779297</ele>
        <time>2022-03-19T12:33:16.605Z</time>
      </trkpt>
      <trkpt lat="46.96631" lon="7.35143">
        <ele>486</ele>
        <time>2022-03-19T12:33:33.418Z</time>
      </trkpt>
      <trkpt lat="46.96633" lon="7.35134">
        <ele>486.5</ele>
        <time>2022-03-19T12:33:46.124Z</time>
      </trkpt>
      <trkpt lat="46.96636" lon="7.35126">
        <ele>486.89999389648</ele>
        <time>2022-03-19T12:33:57.209Z</time>
      </trkpt>
      <trkpt lat="46.96639" lon="7.35119">
        <ele>487.29998779297</ele>
        <time>2022-03-19T12:34:07.758Z</time>
      </trkpt>
      <trkpt lat="46.96648" lon="7.35099">
        <ele>488.29998779297</ele>
        <time>2022-03-19T12:34:36.225Z</time>
      </trkpt>
      <trkpt lat="46.96667" lon="7.35057">
        <ele>490.29998779297</ele>
        <time>2022-03-19T12:35:34.857Z</time>
      </trkpt>
      <trkpt lat="46.96676" lon="7.35036">
        <ele>490.89999389648</ele>
        <time>2022-03-19T12:35:57.988Z</time>
      </trkpt>
      <trkpt lat="46.96696" lon="7.34989">
        <ele>492.79998779297</ele>
        <time>2022-03-19T12:36:59.096Z</time>
      </trkpt>
      <trkpt lat="46.96701" lon="7.34978">
        <ele>493.59999084473</ele>
        <time>2022-03-19T12:37:18.596Z</time>
      </trkpt>
      <trkpt lat="46.96682" lon="7.34951">
        <ele>494.19999694824</ele>
        <time>2022-03-19T12:37:49.426Z</time>
      </trkpt>
      <trkpt lat="46.96675" lon="7.34939">
        <ele>494.59999084473</ele>
        <time>2022-03-19T12:38:04.493Z</time>
      </trkpt>
      <trkpt lat="46.96669" lon="7.34931">
        <ele>495.19999694824</ele>
        <time>2022-03-19T12:38:20.023Z</time>
      </trkpt>
      <trkpt lat="46.96659" lon="7.34913">
        <ele>495.69999694824</ele>
        <time>2022-03-19T12:38:40.589Z</time>
      </trkpt>
      <trkpt lat="46.96655" lon="7.34904">
        <ele>495.79998779297</ele>
        <time>2022-03-19T12:38:48.320Z</time>
      </trkpt>
      <trkpt lat="46.96652" lon="7.34897">
        <ele>495.69999694824</ele>
        <time>2022-03-19T12:38:50.052Z</time>
      </trkpt>
      <trkpt lat="46.96645" lon="7.34877">
        <ele>495.59999084473</ele>
        <time>2022-03-19T12:39:02.923Z</time>
      </trkpt>
      <trkpt lat="46.96643" lon="7.34871">
        <ele>495.59999084473</ele>
        <time>2022-03-19T12:39:07.129Z</time>
      </trkpt>
      <trkpt lat="46.96641" lon="7.34863">
        <ele>495.5</ele>
        <time>2022-03-19T12:39:08.926Z</time>
      </trkpt>
      <trkpt lat="46.96633" lon="7.34826">
        <ele>494.5</ele>
        <time>2022-03-19T12:39:15.477Z</time>
      </trkpt>
      <trkpt lat="46.96631" lon="7.34816">
        <ele>493.79998779297</ele>
        <time>2022-03-19T12:39:16.976Z</time>
      </trkpt>
      <trkpt lat="46.96626" lon="7.34801">
        <ele>493.09999084473</ele>
        <time>2022-03-19T12:39:19.267Z</time>
      </trkpt>
      <trkpt lat="46.96615" lon="7.34764">
        <ele>491.89999389648</ele>
        <time>2022-03-19T12:39:25.715Z</time>
      </trkpt>
      <trkpt lat="46.9661" lon="7.34754">
        <ele>491.39999389648</ele>
        <time>2022-03-19T12:39:27.448Z</time>
      </trkpt>
      <trkpt lat="46.96599" lon="7.3473">
        <ele>490.89999389648</ele>
        <time>2022-03-19T12:39:32.996Z</time>
      </trkpt>
      <trkpt lat="46.96596" lon="7.34724">
        <ele>490.89999389648</ele>
        <time>2022-03-19T12:39:37.681Z</time>
      </trkpt>
      <trkpt lat="46.96594" lon="7.34718">
        <ele>490.89999389648</ele>
        <time>2022-03-19T12:39:41.887Z</time>
      </trkpt>
      <trkpt lat="46.96586" lon="7.34688">
        <ele>491.59999084473</ele>
        <time>2022-03-19T12:40:10.529Z</time>
      </trkpt>
      <trkpt lat="46.96583" lon="7.34678">
        <ele>491.59999084473</ele>
        <time>2022-03-19T12:40:17.410Z</time>
      </trkpt>
      <trkpt lat="46.96581" lon="7.34665">
        <ele>491.79998779297</ele>
        <time>2022-03-19T12:40:27.921Z</time>
      </trkpt>
      <trkpt lat="46.9658" lon="7.34654">
        <ele>492</ele>
        <time>2022-03-19T12:40:37.141Z</time>
      </trkpt>
      <trkpt lat="46.96579" lon="7.34643">
        <ele>492.19999694824</ele>
        <time>2022-03-19T12:40:46.361Z</time>
      </trkpt>
      <trkpt lat="46.96578" lon="7.34632">
        <ele>492.5</ele>
        <time>2022-03-19T12:40:57.331Z</time>
      </trkpt>
      <trkpt lat="46.96577" lon="7.34614">
        <ele>492.69999694824</ele>
        <time>2022-03-19T12:41:10.692Z</time>
      </trkpt>
      <trkpt lat="46.96576" lon="7.34591">
        <ele>492.89999389648</ele>
        <time>2022-03-19T12:41:27.122Z</time>
      </trkpt>
      <trkpt lat="46.96574" lon="7.34576">
        <ele>492.89999389648</ele>
        <time>2022-03-19T12:41:36.749Z</time>
      </trkpt>
      <trkpt lat="46.96571" lon="7.34561">
        <ele>492.19999694824</ele>
        <time>2022-03-19T12:41:38.825Z</time>
      </trkpt>
      <trkpt lat="46.96568" lon="7.34546">
        <ele>491.39999389648</ele>
        <time>2022-03-19T12:41:41.074Z</time>
      </trkpt>
      <trkpt lat="46.96566" lon="7.34533">
        <ele>490.79998779297</ele>
        <time>2022-03-19T12:41:42.840Z</time>
      </trkpt>
      <trkpt lat="46.96563" lon="7.3451">
        <ele>489.89999389648</ele>
        <time>2022-03-19T12:41:46.189Z</time>
      </trkpt>
      <trkpt lat="46.96561" lon="7.34493">
        <ele>489.59999084473</ele>
        <time>2022-03-19T12:41:49.494Z</time>
      </trkpt>
      <trkpt lat="46.96552" lon="7.34453">
        <ele>488.79998779297</ele>
        <time>2022-03-19T12:41:57.361Z</time>
      </trkpt>
      <trkpt lat="46.9654" lon="7.34394">
        <ele>488.69999694824</ele>
        <time>2022-03-19T12:42:34.774Z</time>
      </trkpt>
      <trkpt lat="46.96537" lon="7.34376">
        <ele>488.59999084473</ele>
        <time>2022-03-19T12:42:39.177Z</time>
      </trkpt>
      <trkpt lat="46.96535" lon="7.34362">
        <ele>488.59999084473</ele>
        <time>2022-03-19T12:42:48.186Z</time>
      </trkpt>
      <trkpt lat="46.96533" lon="7.34343">
        <ele>488.79998779297</ele>
        <time>2022-03-19T12:43:02.261Z</time>
      </trkpt>
      <trkpt lat="46.96533" lon="7.34336">
        <ele>489</ele>
        <time>2022-03-19T12:43:09.413Z</time>
      </trkpt>
      <trkpt lat="46.96533" lon="7.34326">
        <ele>489</ele>
        <time>2022-03-19T12:43:15.711Z</time>
      </trkpt>
      <trkpt lat="46.96535" lon="7.34291">
        <ele>488.79998779297</ele>
        <time>2022-03-19T12:43:24.008Z</time>
      </trkpt>
      <trkpt lat="46.96535" lon="7.34285">
        <ele>488.79998779297</ele>
        <time>2022-03-19T12:43:27.787Z</time>
      </trkpt>
      <trkpt lat="46.96536" lon="7.34273">
        <ele>488.69999694824</ele>
        <time>2022-03-19T12:43:30.504Z</time>
      </trkpt>
      <trkpt lat="46.96537" lon="7.34242">
        <ele>488.59999084473</ele>
        <time>2022-03-19T12:43:48.733Z</time>
      </trkpt>
      <trkpt lat="46.96539" lon="7.34217">
        <ele>488.79998779297</ele>
        <time>2022-03-19T12:44:06.480Z</time>
      </trkpt>
      <trkpt lat="46.96539" lon="7.34205">
        <ele>489.09999084473</ele>
        <time>2022-03-19T12:44:17.855Z</time>
      </trkpt>
      <trkpt lat="46.9654" lon="7.34189">
        <ele>489.5</ele>
        <time>2022-03-19T12:44:33.054Z</time>
      </trkpt>
      <trkpt lat="46.9654" lon="7.34175">
        <ele>490</ele>
        <time>2022-03-19T12:44:48.713Z</time>
      </trkpt>
      <trkpt lat="46.9654" lon="7.34155">
        <ele>490.79998779297</ele>
        <time>2022-03-19T12:45:12.057Z</time>
      </trkpt>
      <trkpt lat="46.9654" lon="7.34136">
        <ele>491.29998779297</ele>
        <time>2022-03-19T12:45:30.560Z</time>
      </trkpt>
      <trkpt lat="46.96538" lon="7.34075">
        <ele>492.19999694824</ele>
        <time>2022-03-19T12:46:18.511Z</time>
      </trkpt>
      <trkpt lat="46.96538" lon="7.34061">
        <ele>491.79998779297</ele>
        <time>2022-03-19T12:46:20.783Z</time>
      </trkpt>
      <trkpt lat="46.96539" lon="7.34026">
        <ele>491.5</ele>
        <time>2022-03-19T12:46:28.611Z</time>
      </trkpt>
      <trkpt lat="46.96539" lon="7.34006">
        <ele>491.89999389648</ele>
        <time>2022-03-19T12:46:45.831Z</time>
      </trkpt>
      <trkpt lat="46.96539" lon="7.3399">
        <ele>491.69999694824</ele>
        <time>2022-03-19T12:46:49.160Z</time>
      </trkpt>
      <trkpt lat="46.9654" lon="7.33977">
        <ele>491.19999694824</ele>
        <time>2022-03-19T12:46:51.036Z</time>
      </trkpt>
      <trkpt lat="46.9654" lon="7.33967">
        <ele>490.79998779297</ele>
        <time>2022-03-19T12:46:52.439Z</time>
      </trkpt>
      <trkpt lat="46.9654" lon="7.33957">
        <ele>490.59999084473</ele>
        <time>2022-03-19T12:46:54.278Z</time>
      </trkpt>
      <trkpt lat="46.96539" lon="7.33951">
        <ele>490.5</ele>
        <time>2022-03-19T12:46:55.485Z</time>
      </trkpt>
      <trkpt lat="46.96537" lon="7.33939">
        <ele>490.19999694824</ele>
        <time>2022-03-19T12:46:57.615Z</time>
      </trkpt>
      <trkpt lat="46.96536" lon="7.3393">
        <ele>490</ele>
        <time>2022-03-19T12:46:59.243Z</time>
      </trkpt>
      <trkpt lat="46.96536" lon="7.33922">
        <ele>489.69999694824</ele>
        <time>2022-03-19T12:47:00.400Z</time>
      </trkpt>
      <trkpt lat="46.96537" lon="7.33909">
        <ele>489.69999694824</ele>
        <time>2022-03-19T12:47:08.640Z</time>
      </trkpt>
      <trkpt lat="46.96537" lon="7.33895">
        <ele>489.69999694824</ele>
        <time>2022-03-19T12:47:17.458Z</time>
      </trkpt>
      <trkpt lat="46.96541" lon="7.33863">
        <ele>490.39999389648</ele>
        <time>2022-03-19T12:47:46.270Z</time>
      </trkpt>
      <trkpt lat="46.96544" lon="7.33829">
        <ele>491</ele>
        <time>2022-03-19T12:48:14.494Z</time>
      </trkpt>
      <trkpt lat="46.96549" lon="7.33788">
        <ele>492</ele>
        <time>2022-03-19T12:48:53.201Z</time>
      </trkpt>
      <trkpt lat="46.9655" lon="7.33772">
        <ele>492.19999694824</ele>
        <time>2022-03-19T12:49:05.351Z</time>
      </trkpt>
      <trkpt lat="46.96553" lon="7.33733">
        <ele>492.89999389648</ele>
        <time>2022-03-19T12:49:37.852Z</time>
      </trkpt>
      <trkpt lat="46.96554" lon="7.33726">
        <ele>493.09999084473</ele>
        <time>2022-03-19T12:49:45.063Z</time>
      </trkpt>
      <trkpt lat="46.96556" lon="7.33708">
        <ele>493.09999084473</ele>
        <time>2022-03-19T12:49:56.550Z</time>
      </trkpt>
      <trkpt lat="46.96557" lon="7.33695">
        <ele>493.19999694824</ele>
        <time>2022-03-19T12:50:05.732Z</time>
      </trkpt>
      <trkpt lat="46.96556" lon="7.33683">
        <ele>493.19999694824</ele>
        <time>2022-03-19T12:50:13.347Z</time>
      </trkpt>
      <trkpt lat="46.96554" lon="7.33673">
        <ele>493</ele>
        <time>2022-03-19T12:50:15.287Z</time>
      </trkpt>
      <trkpt lat="46.96553" lon="7.33664">
        <ele>492.5</ele>
        <time>2022-03-19T12:50:16.599Z</time>
      </trkpt>
      <trkpt lat="46.96553" lon="7.33656">
        <ele>492</ele>
        <time>2022-03-19T12:50:17.750Z</time>
      </trkpt>
      <trkpt lat="46.96552" lon="7.3364">
        <ele>491</ele>
        <time>2022-03-19T12:50:20.062Z</time>
      </trkpt>
      <trkpt lat="46.96553" lon="7.33618">
        <ele>489.69999694824</ele>
        <time>2022-03-19T12:50:23.234Z</time>
      </trkpt>
      <trkpt lat="46.96552" lon="7.33612">
        <ele>489.39999389648</ele>
        <time>2022-03-19T12:50:24.122Z</time>
      </trkpt>
      <trkpt lat="46.96552" lon="7.33607">
        <ele>489.09999084473</ele>
        <time>2022-03-19T12:50:24.842Z</time>
      </trkpt>
      <trkpt lat="46.96551" lon="7.33602">
        <ele>488.89999389648</ele>
        <time>2022-03-19T12:50:25.587Z</time>
      </trkpt>
      <trkpt lat="46.9655" lon="7.33598">
        <ele>488.69999694824</ele>
        <time>2022-03-19T12:50:26.200Z</time>
      </trkpt>
      <trkpt lat="46.96549" lon="7.33594">
        <ele>488.5</ele>
        <time>2022-03-19T12:50:26.813Z</time>
      </trkpt>
      <trkpt lat="46.96545" lon="7.33584">
        <ele>488.39999389648</ele>
        <time>2022-03-19T12:50:29.400Z</time>
      </trkpt>
      <trkpt lat="46.96538" lon="7.33569">
        <ele>488.19999694824</ele>
        <time>2022-03-19T12:50:33.282Z</time>
      </trkpt>
      <trkpt lat="46.96532" lon="7.33555">
        <ele>487.89999389648</ele>
        <time>2022-03-19T12:50:36.412Z</time>
      </trkpt>
      <trkpt lat="46.96527" lon="7.3354">
        <ele>487.69999694824</ele>
        <time>2022-03-19T12:50:39.917Z</time>
      </trkpt>
      <trkpt lat="46.96523" lon="7.33529">
        <ele>487.59999084473</ele>
        <time>2022-03-19T12:50:42.731Z</time>
      </trkpt>
      <trkpt lat="46.96519" lon="7.33513">
        <ele>487.39999389648</ele>
        <time>2022-03-19T12:50:46.324Z</time>
      </trkpt>
      <trkpt lat="46.96516" lon="7.33498">
        <ele>486.79998779297</ele>
        <time>2022-03-19T12:50:48.561Z</time>
      </trkpt>
      <trkpt lat="46.96514" lon="7.33484">
        <ele>485.79998779297</ele>
        <time>2022-03-19T12:50:50.619Z</time>
      </trkpt>
      <trkpt lat="46.96514" lon="7.33475">
        <ele>485.29998779297</ele>
        <time>2022-03-19T12:50:51.913Z</time>
      </trkpt>
      <trkpt lat="46.96514" lon="7.33462">
        <ele>484.29998779297</ele>
        <time>2022-03-19T12:50:53.784Z</time>
      </trkpt>
      <trkpt lat="46.96515" lon="7.33444">
        <ele>483.39999389648</ele>
        <time>2022-03-19T12:50:56.382Z</time>
      </trkpt>
      <trkpt lat="46.96519" lon="7.33416">
        <ele>482.79998779297</ele>
        <time>2022-03-19T12:51:01.564Z</time>
      </trkpt>
      <trkpt lat="46.96521" lon="7.33395">
        <ele>482.59999084473</ele>
        <time>2022-03-19T12:51:06.226Z</time>
      </trkpt>
      <trkpt lat="46.96521" lon="7.33382">
        <ele>482.5</ele>
        <time>2022-03-19T12:51:09.179Z</time>
      </trkpt>
      <trkpt lat="46.96519" lon="7.33365">
        <ele>482.19999694824</ele>
        <time>2022-03-19T12:51:12.485Z</time>
      </trkpt>
      <trkpt lat="46.96517" lon="7.33352">
        <ele>482.19999694824</ele>
        <time>2022-03-19T12:51:20.879Z</time>
      </trkpt>
      <trkpt lat="46.96514" lon="7.33341">
        <ele>482.29998779297</ele>
        <time>2022-03-19T12:51:29.293Z</time>
      </trkpt>
      <trkpt lat="46.9651" lon="7.3333">
        <ele>482.39999389648</ele>
        <time>2022-03-19T12:51:38.092Z</time>
      </trkpt>
      <trkpt lat="46.96505" lon="7.33316">
        <ele>482.39999389648</ele>
        <time>2022-03-19T12:51:48.044Z</time>
      </trkpt>
      <trkpt lat="46.96502" lon="7.33305">
        <ele>482.39999389648</ele>
        <time>2022-03-19T12:51:55.506Z</time>
      </trkpt>
      <trkpt lat="46.96498" lon="7.33287">
        <ele>482.89999389648</ele>
        <time>2022-03-19T12:52:13.978Z</time>
      </trkpt>
      <trkpt lat="46.96498" lon="7.33279">
        <ele>483.19999694824</ele>
        <time>2022-03-19T12:52:23.084Z</time>
      </trkpt>
      <trkpt lat="46.96499" lon="7.33252">
        <ele>483.79998779297</ele>
        <time>2022-03-19T12:52:47.340Z</time>
      </trkpt>
      <trkpt lat="46.96499" lon="7.33239">
        <ele>483.39999389648</ele>
        <time>2022-03-19T12:52:49.388Z</time>
      </trkpt>
      <trkpt lat="46.96498" lon="7.33217">
        <ele>482.79998779297</ele>
        <time>2022-03-19T12:52:53.035Z</time>
      </trkpt>
      <trkpt lat="46.96497" lon="7.33189">
        <ele>482.29998779297</ele>
        <time>2022-03-19T12:52:58.369Z</time>
      </trkpt>
      <trkpt lat="46.96496" lon="7.33152">
        <ele>482.09999084473</ele>
        <time>2022-03-19T12:53:07.168Z</time>
      </trkpt>
      <trkpt lat="46.96498" lon="7.33136">
        <ele>482.09999084473</ele>
        <time>2022-03-19T12:53:17.413Z</time>
      </trkpt>
      <trkpt lat="46.96499" lon="7.33121">
        <ele>482.09999084473</ele>
        <time>2022-03-19T12:53:26.906Z</time>
      </trkpt>
      <trkpt lat="46.96502" lon="7.33104">
        <ele>481.89999389648</ele>
        <time>2022-03-19T12:53:30.632Z</time>
      </trkpt>
      <trkpt lat="46.96506" lon="7.33083">
        <ele>481.69999694824</ele>
        <time>2022-03-19T12:53:35.449Z</time>
      </trkpt>
      <trkpt lat="46.96511" lon="7.33041">
        <ele>481.59999084473</ele>
        <time>2022-03-19T12:54:00.960Z</time>
      </trkpt>
      <trkpt lat="46.96513" lon="7.33024">
        <ele>481.69999694824</ele>
        <time>2022-03-19T12:54:12.742Z</time>
      </trkpt>
      <trkpt lat="46.96515" lon="7.32996">
        <ele>481.59999084473</ele>
        <time>2022-03-19T12:54:29.165Z</time>
      </trkpt>
      <trkpt lat="46.96522" lon="7.32894">
        <ele>481.79998779297</ele>
        <time>2022-03-19T12:55:35.472Z</time>
      </trkpt>
      <trkpt lat="46.96524" lon="7.32858">
        <ele>481.89999389648</ele>
        <time>2022-03-19T12:55:59.100Z</time>
      </trkpt>
      <trkpt lat="46.96525" lon="7.3283">
        <ele>481.89999389648</ele>
        <time>2022-03-19T12:56:16.761Z</time>
      </trkpt>
      <trkpt lat="46.96527" lon="7.32806">
        <ele>481.89999389648</ele>
        <time>2022-03-19T12:56:31.990Z</time>
      </trkpt>
      <trkpt lat="46.96527" lon="7.32784">
        <ele>481.79998779297</ele>
        <time>2022-03-19T12:56:44.564Z</time>
      </trkpt>
      <trkpt lat="46.96529" lon="7.32746">
        <ele>481.69999694824</ele>
        <time>2022-03-19T12:57:07.234Z</time>
      </trkpt>
      <trkpt lat="46.9653" lon="7.32735">
        <ele>481.69999694824</ele>
        <time>2022-03-19T12:57:14.224Z</time>
      </trkpt>
      <trkpt lat="46.96532" lon="7.32723">
        <ele>481.69999694824</ele>
        <time>2022-03-19T12:57:22.005Z</time>
      </trkpt>
      <trkpt lat="46.96534" lon="7.32711">
        <ele>481.69999694824</ele>
        <time>2022-03-19T12:57:29.785Z</time>
      </trkpt>
      <trkpt lat="46.96536" lon="7.32701">
        <ele>481.79998779297</ele>
        <time>2022-03-19T12:57:37.319Z</time>
      </trkpt>
      <trkpt lat="46.96539" lon="7.32689">
        <ele>481.89999389648</ele>
        <time>2022-03-19T12:57:46.313Z</time>
      </trkpt>
      <trkpt lat="46.96542" lon="7.32677">
        <ele>482</ele>
        <time>2022-03-19T12:57:55.308Z</time>
      </trkpt>
      <trkpt lat="46.96546" lon="7.32666">
        <ele>481.89999389648</ele>
        <time>2022-03-19T12:57:58.122Z</time>
      </trkpt>
      <trkpt lat="46.9656" lon="7.3263">
        <ele>482.09999084473</ele>
        <time>2022-03-19T12:58:26.028Z</time>
      </trkpt>
      <trkpt lat="46.96571" lon="7.32602">
        <ele>482.19999694824</ele>
        <time>2022-03-19T12:58:47.260Z</time>
      </trkpt>
      <trkpt lat="46.9658" lon="7.32578">
        <ele>482.19999694824</ele>
        <time>2022-03-19T12:59:04.508Z</time>
      </trkpt>
      <trkpt lat="46.96585" lon="7.32564">
        <ele>482.19999694824</ele>
        <time>2022-03-19T12:59:14.461Z</time>
      </trkpt>
      <trkpt lat="46.96588" lon="7.32554">
        <ele>482.29998779297</ele>
        <time>2022-03-19T12:59:22.305Z</time>
      </trkpt>
      <trkpt lat="46.96592" lon="7.32543">
        <ele>482.29998779297</ele>
        <time>2022-03-19T12:59:30.156Z</time>
      </trkpt>
      <trkpt lat="46.96594" lon="7.32534">
        <ele>482.29998779297</ele>
        <time>2022-03-19T12:59:36.117Z</time>
      </trkpt>
      <trkpt lat="46.96597" lon="7.32516">
        <ele>482.39999389648</ele>
        <time>2022-03-19T12:59:48.700Z</time>
      </trkpt>
      <trkpt lat="46.96602" lon="7.32478">
        <ele>483.19999694824</ele>
        <time>2022-03-19T13:00:22.436Z</time>
      </trkpt>
      <trkpt lat="46.96604" lon="7.32465">
        <ele>483.69999694824</ele>
        <time>2022-03-19T13:00:37.607Z</time>
      </trkpt>
      <trkpt lat="46.96606" lon="7.32456">
        <ele>484.09999084473</ele>
        <time>2022-03-19T13:00:48.915Z</time>
      </trkpt>
      <trkpt lat="46.96609" lon="7.32447">
        <ele>484.39999389648</ele>
        <time>2022-03-19T13:00:59.465Z</time>
      </trkpt>
      <trkpt lat="46.96613" lon="7.32437">
        <ele>484.89999389648</ele>
        <time>2022-03-19T13:01:13.441Z</time>
      </trkpt>
      <trkpt lat="46.96622" lon="7.32417">
        <ele>486</ele>
        <time>2022-03-19T13:01:43.195Z</time>
      </trkpt>
      <trkpt lat="46.96628" lon="7.32405">
        <ele>486.5</ele>
        <time>2022-03-19T13:01:59.499Z</time>
      </trkpt>
      <trkpt lat="46.96637" lon="7.32384">
        <ele>487.89999389648</ele>
        <time>2022-03-19T13:02:34.265Z</time>
      </trkpt>
      <trkpt lat="46.96643" lon="7.32372">
        <ele>488.59999084473</ele>
        <time>2022-03-19T13:02:52.971Z</time>
      </trkpt>
      <trkpt lat="46.9665" lon="7.32364">
        <ele>489.09999084473</ele>
        <time>2022-03-19T13:03:07.917Z</time>
      </trkpt>
      <trkpt lat="46.96655" lon="7.32359">
        <ele>489.39999389648</ele>
        <time>2022-03-19T13:03:17.658Z</time>
      </trkpt>
      <trkpt lat="46.96662" lon="7.32353">
        <ele>489.89999389648</ele>
        <time>2022-03-19T13:03:31.828Z</time>
      </trkpt>
      <trkpt lat="46.96674" lon="7.32346">
        <ele>490.89999389648</ele>
        <time>2022-03-19T13:03:57.238Z</time>
      </trkpt>
      <trkpt lat="46.96679" lon="7.32344">
        <ele>491.29998779297</ele>
        <time>2022-03-19T13:04:07.415Z</time>
      </trkpt>
      <trkpt lat="46.96699" lon="7.32339">
        <ele>493.5</ele>
        <time>2022-03-19T13:05:00.472Z</time>
      </trkpt>
      <trkpt lat="46.96713" lon="7.32336">
        <ele>495.5</ele>
        <time>2022-03-19T13:05:50.842Z</time>
      </trkpt>
      <trkpt lat="46.96716" lon="7.32336">
        <ele>495.89999389648</ele>
        <time>2022-03-19T13:06:01.506Z</time>
      </trkpt>
      <trkpt lat="46.96719" lon="7.32337">
        <ele>496.19999694824</ele>
        <time>2022-03-19T13:06:08.716Z</time>
      </trkpt>
      <trkpt lat="46.96722" lon="7.32338">
        <ele>496.5</ele>
        <time>2022-03-19T13:06:15.925Z</time>
      </trkpt>
      <trkpt lat="46.9673" lon="7.32344">
        <ele>497</ele>
        <time>2022-03-19T13:06:30.985Z</time>
      </trkpt>
      <trkpt lat="46.96737" lon="7.32349">
        <ele>497.5</ele>
        <time>2022-03-19T13:06:44.842Z</time>
      </trkpt>
      <trkpt lat="46.96742" lon="7.32351">
        <ele>497.79998779297</ele>
        <time>2022-03-19T13:06:53.662Z</time>
      </trkpt>
      <trkpt lat="46.96746" lon="7.32352">
        <ele>498</ele>
        <time>2022-03-19T13:07:00.181Z</time>
      </trkpt>
      <trkpt lat="46.9675" lon="7.32351">
        <ele>498.09999084473</ele>
        <time>2022-03-19T13:07:05.018Z</time>
      </trkpt>
      <trkpt lat="46.96754" lon="7.32349">
        <ele>498.29998779297</ele>
        <time>2022-03-19T13:07:11.721Z</time>
      </trkpt>
      <trkpt lat="46.96756" lon="7.32347">
        <ele>498.59999084473</ele>
        <time>2022-03-19T13:07:19.297Z</time>
      </trkpt>
      <trkpt lat="46.96759" lon="7.32343">
        <ele>498.89999389648</ele>
        <time>2022-03-19T13:07:27.062Z</time>
      </trkpt>
      <trkpt lat="46.96761" lon="7.32337">
        <ele>499.19999694824</ele>
        <time>2022-03-19T13:07:35.267Z</time>
      </trkpt>
      <trkpt lat="46.96763" lon="7.3233">
        <ele>499.69999694824</ele>
        <time>2022-03-19T13:07:47.293Z</time>
      </trkpt>
      <trkpt lat="46.96763" lon="7.32324">
        <ele>500.09999084473</ele>
        <time>2022-03-19T13:07:56.904Z</time>
      </trkpt>
      <trkpt lat="46.96763" lon="7.32318">
        <ele>500.59999084473</ele>
        <time>2022-03-19T13:08:09.431Z</time>
      </trkpt>
      <trkpt lat="46.9676" lon="7.32303">
        <ele>501.5</ele>
        <time>2022-03-19T13:08:31.650Z</time>
      </trkpt>
      <trkpt lat="46.96757" lon="7.32294">
        <ele>502.09999084473</ele>
        <time>2022-03-19T13:08:46.310Z</time>
      </trkpt>
      <trkpt lat="46.96751" lon="7.32278">
        <ele>503.09999084473</ele>
        <time>2022-03-19T13:09:11.389Z</time>
      </trkpt>
      <trkpt lat="46.96749" lon="7.32272">
        <ele>503.29998779297</ele>
        <time>2022-03-19T13:09:18.423Z</time>
      </trkpt>
      <trkpt lat="46.96749" lon="7.32266">
        <ele>503.5</ele>
        <time>2022-03-19T13:09:24.981Z</time>
      </trkpt>
      <trkpt lat="46.96749" lon="7.3226">
        <ele>503.79998779297</ele>
        <time>2022-03-19T13:09:32.777Z</time>
      </trkpt>
      <trkpt lat="46.96751" lon="7.32255">
        <ele>504</ele>
        <time>2022-03-19T13:09:39.184Z</time>
      </trkpt>
      <trkpt lat="46.96753" lon="7.3225">
        <ele>504.29998779297</ele>
        <time>2022-03-19T13:09:46.869Z</time>
      </trkpt>
      <trkpt lat="46.96755" lon="7.32245">
        <ele>504.59999084473</ele>
        <time>2022-03-19T13:09:54.553Z</time>
      </trkpt>
      <trkpt lat="46.96759" lon="7.32239">
        <ele>505.29998779297</ele>
        <time>2022-03-19T13:10:12.104Z</time>
      </trkpt>
      <trkpt lat="46.96765" lon="7.32231">
        <ele>506.09999084473</ele>
        <time>2022-03-19T13:10:31.316Z</time>
      </trkpt>
      <trkpt lat="46.96769" lon="7.32225">
        <ele>506.89999389648</ele>
        <time>2022-03-19T13:10:51.693Z</time>
      </trkpt>
      <trkpt lat="46.96772" lon="7.32219">
        <ele>507.69999694824</ele>
        <time>2022-03-19T13:11:09.763Z</time>
      </trkpt>
      <trkpt lat="46.96779" lon="7.32203">
        <ele>509.09999084473</ele>
        <time>2022-03-19T13:11:43.504Z</time>
      </trkpt>
      <trkpt lat="46.96789" lon="7.32183">
        <ele>511</ele>
        <time>2022-03-19T13:12:29.643Z</time>
      </trkpt>
      <trkpt lat="46.96795" lon="7.32175">
        <ele>511.69999694824</ele>
        <time>2022-03-19T13:12:46.818Z</time>
      </trkpt>
      <trkpt lat="46.96803" lon="7.32165">
        <ele>512.39999389648</ele>
        <time>2022-03-19T13:13:05.855Z</time>
      </trkpt>
      <trkpt lat="46.96815" lon="7.32151">
        <ele>513.69998168945</ele>
        <time>2022-03-19T13:13:37.908Z</time>
      </trkpt>
      <trkpt lat="46.96822" lon="7.32141">
        <ele>514.59997558594</ele>
        <time>2022-03-19T13:13:59.687Z</time>
      </trkpt>
      <trkpt lat="46.9683" lon="7.3213">
        <ele>515.59997558594</ele>
        <time>2022-03-19T13:14:23.928Z</time>
      </trkpt>
      <trkpt lat="46.96837" lon="7.32117">
        <ele>516.5</ele>
        <time>2022-03-19T13:14:46.562Z</time>
      </trkpt>
      <trkpt lat="46.96847" lon="7.32099">
        <ele>518</ele>
        <time>2022-03-19T13:15:22.712Z</time>
      </trkpt>
      <trkpt lat="46.96853" lon="7.32086">
        <ele>519.19998168945</ele>
        <time>2022-03-19T13:15:51.835Z</time>
      </trkpt>
      <trkpt lat="46.9686" lon="7.32073">
        <ele>520.5</ele>
        <time>2022-03-19T13:16:23.617Z</time>
      </trkpt>
      <trkpt lat="46.96866" lon="7.32063">
        <ele>521.69998168945</ele>
        <time>2022-03-19T13:16:55.335Z</time>
      </trkpt>
      <trkpt lat="46.96871" lon="7.32058">
        <ele>522.19998168945</ele>
        <time>2022-03-19T13:17:07.758Z</time>
      </trkpt>
      <trkpt lat="46.96874" lon="7.32056">
        <ele>522.5</ele>
        <time>2022-03-19T13:17:15.032Z</time>
      </trkpt>
      <trkpt lat="46.96876" lon="7.32054">
        <ele>522.79998779297</ele>
        <time>2022-03-19T13:17:22.608Z</time>
      </trkpt>
      <trkpt lat="46.96879" lon="7.32054">
        <ele>523</ele>
        <time>2022-03-19T13:17:28.043Z</time>
      </trkpt>
      <trkpt lat="46.96882" lon="7.32054">
        <ele>523.29998779297</ele>
        <time>2022-03-19T13:17:35.243Z</time>
      </trkpt>
      <trkpt lat="46.96892" lon="7.32057">
        <ele>524.09997558594</ele>
        <time>2022-03-19T13:17:55.478Z</time>
      </trkpt>
      <trkpt lat="46.969" lon="7.32057">
        <ele>524.89999389648</ele>
        <time>2022-03-19T13:18:14.680Z</time>
      </trkpt>
      <trkpt lat="46.96909" lon="7.32057">
        <ele>527.09997558594</ele>
        <time>2022-03-19T13:18:46.720Z</time>
      </trkpt>
      <trkpt lat="46.96913" lon="7.32062">
        <ele>528.19998168945</ele>
        <time>2022-03-19T13:19:05.437Z</time>
      </trkpt>
      <trkpt lat="46.96921" lon="7.32063">
        <ele>530.69998168945</ele>
        <time>2022-03-19T13:19:34.020Z</time>
      </trkpt>
      <trkpt lat="46.96935" lon="7.32064">
        <ele>531.09997558594</ele>
        <time>2022-03-19T13:19:51.535Z</time>
      </trkpt>
      <trkpt lat="46.96941" lon="7.32065">
        <ele>533.39999389648</ele>
        <time>2022-03-19T13:20:13.033Z</time>
      </trkpt>
      <trkpt lat="46.96943" lon="7.32065">
        <ele>533.39999389648</ele>
        <time>2022-03-19T13:20:14.879Z</time>
      </trkpt>
      <trkpt lat="46.96944" lon="7.32062">
        <ele>533.5</ele>
        <time>2022-03-19T13:20:18.396Z</time>
      </trkpt>
      <trkpt lat="46.96946" lon="7.32054">
        <ele>534.09997558594</ele>
        <time>2022-03-19T13:20:32.799Z</time>
      </trkpt>
      <trkpt lat="46.96946" lon="7.32049">
        <ele>534.69998168945</ele>
        <time>2022-03-19T13:20:44.945Z</time>
      </trkpt>
      <trkpt lat="46.96946" lon="7.32033">
        <ele>537.5</ele>
        <time>2022-03-19T13:21:23.814Z</time>
      </trkpt>
      <trkpt lat="46.96946" lon="7.32031">
        <ele>537.89999389648</ele>
        <time>2022-03-19T13:21:28.672Z</time>
      </trkpt>
      <trkpt lat="46.96946" lon="7.32029">
        <ele>538.09997558594</ele>
        <time>2022-03-19T13:21:33.531Z</time>
      </trkpt>
      <trkpt lat="46.96947" lon="7.32029">
        <ele>538.09997558594</ele>
        <time>2022-03-19T13:21:34.454Z</time>
      </trkpt>
      <trkpt lat="46.96949" lon="7.32028">
        <ele>538.29998779297</ele>
        <time>2022-03-19T13:21:39.275Z</time>
      </trkpt>
      <trkpt lat="46.96955" lon="7.32028">
        <ele>539.19998168945</ele>
        <time>2022-03-19T13:22:00.635Z</time>
      </trkpt>
      <trkpt lat="46.96956" lon="7.32028">
        <ele>539.39999389648</ele>
        <time>2022-03-19T13:22:04.195Z</time>
      </trkpt>
      <trkpt lat="46.9696" lon="7.32029">
        <ele>540</ele>
        <time>2022-03-19T13:22:18.640Z</time>
      </trkpt>
      <trkpt lat="46.96964" lon="7.32029">
        <ele>540.69998168945</ele>
        <time>2022-03-19T13:22:32.880Z</time>
      </trkpt>
      <trkpt lat="46.96968" lon="7.32029">
        <ele>541.29998779297</ele>
        <time>2022-03-19T13:22:47.120Z</time>
      </trkpt>
      <trkpt lat="46.96969" lon="7.32029">
        <ele>541.39999389648</ele>
        <time>2022-03-19T13:22:49.521Z</time>
      </trkpt>
      <trkpt lat="46.9697" lon="7.32028">
        <ele>541.5</ele>
        <time>2022-03-19T13:22:52.005Z</time>
      </trkpt>
      <trkpt lat="46.96971" lon="7.32026">
        <ele>541.69998168945</ele>
        <time>2022-03-19T13:22:56.941Z</time>
      </trkpt>
      <trkpt lat="46.96974" lon="7.32024">
        <ele>541.89999389648</ele>
        <time>2022-03-19T13:23:02.661Z</time>
      </trkpt>
      <trkpt lat="46.96978" lon="7.32019">
        <ele>541.79998779297</ele>
        <time>2022-03-19T13:23:04.250Z</time>
      </trkpt>
      <trkpt lat="46.96981" lon="7.32015">
        <ele>541.69998168945</ele>
        <time>2022-03-19T13:23:05.400Z</time>
      </trkpt>
      <trkpt lat="46.96984" lon="7.32009">
        <ele>541.39999389648</ele>
        <time>2022-03-19T13:23:06.439Z</time>
      </trkpt>
      <trkpt lat="46.96985" lon="7.32005">
        <ele>541.19998168945</ele>
        <time>2022-03-19T13:23:07.052Z</time>
      </trkpt>
      <trkpt lat="46.96985" lon="7.32001">
        <ele>540.89999389648</ele>
        <time>2022-03-19T13:23:07.628Z</time>
      </trkpt>
      <trkpt lat="46.96985" lon="7.31991">
        <ele>540</ele>
        <time>2022-03-19T13:23:09.066Z</time>
      </trkpt>
      <trkpt lat="46.96985" lon="7.3198">
        <ele>539.09997558594</ele>
        <time>2022-03-19T13:23:10.649Z</time>
      </trkpt>
      <trkpt lat="46.96986" lon="7.31972">
        <ele>538.59997558594</ele>
        <time>2022-03-19T13:23:11.819Z</time>
      </trkpt>
      <trkpt lat="46.96984" lon="7.31968">
        <ele>538.39999389648</ele>
        <time>2022-03-19T13:23:12.512Z</time>
      </trkpt>
      <trkpt lat="46.96982" lon="7.31963">
        <ele>538.09997558594</ele>
        <time>2022-03-19T13:23:13.346Z</time>
      </trkpt>
      <trkpt lat="46.96981" lon="7.31959">
        <ele>537.89999389648</ele>
        <time>2022-03-19T13:23:13.959Z</time>
      </trkpt>
      <trkpt lat="46.96979" lon="7.31953">
        <ele>537.69998168945</ele>
        <time>2022-03-19T13:23:15.022Z</time>
      </trkpt>
      <trkpt lat="46.96978" lon="7.31949">
        <ele>537.5</ele>
        <time>2022-03-19T13:23:15.635Z</time>
      </trkpt>
      <trkpt lat="46.96977" lon="7.31946">
        <ele>537.5</ele>
        <time>2022-03-19T13:23:17.738Z</time>
      </trkpt>
      <trkpt lat="46.96974" lon="7.31936">
        <ele>537.29998779297</ele>
        <time>2022-03-19T13:23:19.800Z</time>
      </trkpt>
      <trkpt lat="46.9697" lon="7.31917">
        <ele>537.39999389648</ele>
        <time>2022-03-19T13:23:33.230Z</time>
      </trkpt>
      <trkpt lat="46.96942" lon="7.3179">
        <ele>537.39999389648</ele>
        <time>2022-03-19T13:24:57.288Z</time>
      </trkpt>
      <trkpt lat="46.96938" lon="7.31772">
        <ele>537.59997558594</ele>
        <time>2022-03-19T13:25:11.181Z</time>
      </trkpt>
      <trkpt lat="46.96933" lon="7.31757">
        <ele>538</ele>
        <time>2022-03-19T13:25:26.680Z</time>
      </trkpt>
      <trkpt lat="46.9692" lon="7.31718">
        <ele>538.89999389648</ele>
        <time>2022-03-19T13:26:04.560Z</time>
      </trkpt>
      <trkpt lat="46.96912" lon="7.31697">
        <ele>539.39999389648</ele>
        <time>2022-03-19T13:26:25.571Z</time>
      </trkpt>
      <trkpt lat="46.96887" lon="7.31624">
        <ele>542.29998779297</ele>
        <time>2022-03-19T13:27:56.734Z</time>
      </trkpt>
      <trkpt lat="46.96868" lon="7.31566">
        <ele>543.59997558594</ele>
        <time>2022-03-19T13:28:52.335Z</time>
      </trkpt>
      <trkpt lat="46.9686" lon="7.31543">
        <ele>543.79998779297</ele>
        <time>2022-03-19T13:29:10.482Z</time>
      </trkpt>
      <trkpt lat="46.9685" lon="7.31513">
        <ele>544.19998168945</ele>
        <time>2022-03-19T13:29:35.540Z</time>
      </trkpt>
      <trkpt lat="46.96846" lon="7.315">
        <ele>544.29998779297</ele>
        <time>2022-03-19T13:29:45.455Z</time>
      </trkpt>
      <trkpt lat="46.96835" lon="7.31462">
        <ele>544.29998779297</ele>
        <time>2022-03-19T13:30:11.453Z</time>
      </trkpt>
      <trkpt lat="46.96825" lon="7.31422">
        <ele>543.89999389648</ele>
        <time>2022-03-19T13:30:20.826Z</time>
      </trkpt>
      <trkpt lat="46.9682" lon="7.31401">
        <ele>543.89999389648</ele>
        <time>2022-03-19T13:30:34.835Z</time>
      </trkpt>
      <trkpt lat="46.96819" lon="7.31392">
        <ele>544</ele>
        <time>2022-03-19T13:30:41.569Z</time>
      </trkpt>
      <trkpt lat="46.96818" lon="7.3138">
        <ele>543.89999389648</ele>
        <time>2022-03-19T13:30:44.285Z</time>
      </trkpt>
      <trkpt lat="46.96814" lon="7.31341">
        <ele>543.79998779297</ele>
        <time>2022-03-19T13:31:07.787Z</time>
      </trkpt>
      <trkpt lat="46.96812" lon="7.3134">
        <ele>543.69998168945</ele>
        <time>2022-03-19T13:31:08.265Z</time>
      </trkpt>
      <trkpt lat="46.9681" lon="7.31336">
        <ele>543.69998168945</ele>
        <time>2022-03-19T13:31:11.388Z</time>
      </trkpt>
      <trkpt lat="46.96808" lon="7.31329">
        <ele>543.39999389648</ele>
        <time>2022-03-19T13:31:12.459Z</time>
      </trkpt>
      <trkpt lat="46.96806" lon="7.31318">
        <ele>542.79998779297</ele>
        <time>2022-03-19T13:31:14.097Z</time>
      </trkpt>
      <trkpt lat="46.96804" lon="7.3131">
        <ele>542.29998779297</ele>
        <time>2022-03-19T13:31:15.323Z</time>
      </trkpt>
      <trkpt lat="46.96801" lon="7.31288">
        <ele>540.79998779297</ele>
        <time>2022-03-19T13:31:18.550Z</time>
      </trkpt>
      <trkpt lat="46.96799" lon="7.31277">
        <ele>540.39999389648</ele>
        <time>2022-03-19T13:31:20.246Z</time>
      </trkpt>
      <trkpt lat="46.96796" lon="7.31266">
        <ele>539.69998168945</ele>
        <time>2022-03-19T13:31:21.950Z</time>
      </trkpt>
      <trkpt lat="46.96795" lon="7.31261">
        <ele>539.39999389648</ele>
        <time>2022-03-19T13:31:22.699Z</time>
      </trkpt>
      <trkpt lat="46.96792" lon="7.31249">
        <ele>539</ele>
        <time>2022-03-19T13:31:24.699Z</time>
      </trkpt>
      <trkpt lat="46.96789" lon="7.31236">
        <ele>538.29998779297</ele>
        <time>2022-03-19T13:31:26.673Z</time>
      </trkpt>
      <trkpt lat="46.96783" lon="7.31197">
        <ele>535.5</ele>
        <time>2022-03-19T13:31:32.425Z</time>
      </trkpt>
      <trkpt lat="46.96781" lon="7.31188">
        <ele>534.69998168945</ele>
        <time>2022-03-19T13:31:33.787Z</time>
      </trkpt>
      <trkpt lat="46.96778" lon="7.31177">
        <ele>533.89999389648</ele>
        <time>2022-03-19T13:31:35.491Z</time>
      </trkpt>
      <trkpt lat="46.96777" lon="7.31171">
        <ele>533.39999389648</ele>
        <time>2022-03-19T13:31:36.379Z</time>
      </trkpt>
      <trkpt lat="46.96772" lon="7.31158">
        <ele>532.19998168945</ele>
        <time>2022-03-19T13:31:38.526Z</time>
      </trkpt>
      <trkpt lat="46.9677" lon="7.3115">
        <ele>531.39999389648</ele>
        <time>2022-03-19T13:31:39.752Z</time>
      </trkpt>
      <trkpt lat="46.96766" lon="7.31133">
        <ele>529.59997558594</ele>
        <time>2022-03-19T13:31:42.339Z</time>
      </trkpt>
      <trkpt lat="46.96763" lon="7.3112">
        <ele>528.39999389648</ele>
        <time>2022-03-19T13:31:44.313Z</time>
      </trkpt>
      <trkpt lat="46.9676" lon="7.31104">
        <ele>527.09997558594</ele>
        <time>2022-03-19T13:31:46.700Z</time>
      </trkpt>
      <trkpt lat="46.96758" lon="7.31098">
        <ele>526.59997558594</ele>
        <time>2022-03-19T13:31:47.661Z</time>
      </trkpt>
      <trkpt lat="46.96748" lon="7.31069">
        <ele>524.19998168945</ele>
        <time>2022-03-19T13:31:52.336Z</time>
      </trkpt>
      <trkpt lat="46.96746" lon="7.31062">
        <ele>523.89999389648</ele>
        <time>2022-03-19T13:31:53.407Z</time>
      </trkpt>
      <trkpt lat="46.96744" lon="7.31051">
        <ele>523.19998168945</ele>
        <time>2022-03-19T13:31:55.044Z</time>
      </trkpt>
      <trkpt lat="46.96742" lon="7.31042">
        <ele>522.59997558594</ele>
        <time>2022-03-19T13:31:56.406Z</time>
      </trkpt>
      <trkpt lat="46.9674" lon="7.31035">
        <ele>522.19998168945</ele>
        <time>2022-03-19T13:31:57.498Z</time>
      </trkpt>
      <trkpt lat="46.96735" lon="7.31018">
        <ele>521.29998779297</ele>
        <time>2022-03-19T13:32:00.161Z</time>
      </trkpt>
      <trkpt lat="46.96726" lon="7.30989">
        <ele>519</ele>
        <time>2022-03-19T13:32:04.744Z</time>
      </trkpt>
      <trkpt lat="46.96723" lon="7.30979">
        <ele>518.19998168945</ele>
        <time>2022-03-19T13:32:06.316Z</time>
      </trkpt>
      <trkpt lat="46.96719" lon="7.30968">
        <ele>517.19998168945</ele>
        <time>2022-03-19T13:32:08.109Z</time>
      </trkpt>
      <trkpt lat="46.96707" lon="7.3094">
        <ele>514.5</ele>
        <time>2022-03-19T13:32:12.866Z</time>
      </trkpt>
      <trkpt lat="46.96699" lon="7.30917">
        <ele>512.79998779297</ele>
        <time>2022-03-19T13:32:16.580Z</time>
      </trkpt>
      <trkpt lat="46.96696" lon="7.30911">
        <ele>512.39999389648</ele>
        <time>2022-03-19T13:32:17.650Z</time>
      </trkpt>
      <trkpt lat="46.96686" lon="7.30892">
        <ele>510.59999084473</ele>
        <time>2022-03-19T13:32:21.102Z</time>
      </trkpt>
      <trkpt lat="46.9668" lon="7.3088">
        <ele>509.29998779297</ele>
        <time>2022-03-19T13:32:23.242Z</time>
      </trkpt>
      <trkpt lat="46.96675" lon="7.30871">
        <ele>508.19999694824</ele>
        <time>2022-03-19T13:32:24.912Z</time>
      </trkpt>
      <trkpt lat="46.96672" lon="7.30864">
        <ele>507.39999389648</ele>
        <time>2022-03-19T13:32:26.101Z</time>
      </trkpt>
      <trkpt lat="46.96669" lon="7.30852">
        <ele>506.09999084473</ele>
        <time>2022-03-19T13:32:27.940Z</time>
      </trkpt>
      <trkpt lat="46.96667" lon="7.30846">
        <ele>505.59999084473</ele>
        <time>2022-03-19T13:32:28.900Z</time>
      </trkpt>
      <trkpt lat="46.96661" lon="7.30812">
        <ele>503.39999389648</ele>
        <time>2022-03-19T13:32:33.953Z</time>
      </trkpt>
      <trkpt lat="46.96651" lon="7.30764">
        <ele>501.39999389648</ele>
        <time>2022-03-19T13:32:41.010Z</time>
      </trkpt>
      <trkpt lat="46.96649" lon="7.30748">
        <ele>500.69999694824</ele>
        <time>2022-03-19T13:32:43.214Z</time>
      </trkpt>
      <trkpt lat="46.96645" lon="7.30731">
        <ele>499.5</ele>
        <time>2022-03-19T13:32:45.801Z</time>
      </trkpt>
      <trkpt lat="46.96643" lon="7.30723">
        <ele>498.89999389648</ele>
        <time>2022-03-19T13:32:47.027Z</time>
      </trkpt>
      <trkpt lat="46.96641" lon="7.30718">
        <ele>498.5</ele>
        <time>2022-03-19T13:32:47.861Z</time>
      </trkpt>
      <trkpt lat="46.96622" lon="7.30682">
        <ele>493.29998779297</ele>
        <time>2022-03-19T13:32:54.408Z</time>
      </trkpt>
      <trkpt lat="46.96613" lon="7.30665">
        <ele>490.89999389648</ele>
        <time>2022-03-19T13:32:57.504Z</time>
      </trkpt>
      <trkpt lat="46.96605" lon="7.30651">
        <ele>488.89999389648</ele>
        <time>2022-03-19T13:33:00.131Z</time>
      </trkpt>
      <trkpt lat="46.966" lon="7.3064">
        <ele>487.29998779297</ele>
        <time>2022-03-19T13:33:02.032Z</time>
      </trkpt>
      <trkpt lat="46.96596" lon="7.30631">
        <ele>486.19999694824</ele>
        <time>2022-03-19T13:33:03.577Z</time>
      </trkpt>
      <trkpt lat="46.96592" lon="7.30617">
        <ele>484.59999084473</ele>
        <time>2022-03-19T13:33:05.761Z</time>
      </trkpt>
      <trkpt lat="46.96589" lon="7.30603">
        <ele>482.89999389648</ele>
        <time>2022-03-19T13:33:07.872Z</time>
      </trkpt>
      <trkpt lat="46.96588" lon="7.30597">
        <ele>482.5</ele>
        <time>2022-03-19T13:33:08.761Z</time>
      </trkpt>
      <trkpt lat="46.96587" lon="7.30593">
        <ele>482.19999694824</ele>
        <time>2022-03-19T13:33:09.373Z</time>
      </trkpt>
      <trkpt lat="46.96587" lon="7.30588">
        <ele>481.89999389648</ele>
        <time>2022-03-19T13:33:10.093Z</time>
      </trkpt>
      <trkpt lat="46.96588" lon="7.30585">
        <ele>481.79998779297</ele>
        <time>2022-03-19T13:33:10.625Z</time>
      </trkpt>
      <trkpt lat="46.96589" lon="7.3058">
        <ele>481.79998779297</ele>
        <time>2022-03-19T13:33:13.906Z</time>
      </trkpt>
      <trkpt lat="46.96591" lon="7.30575">
        <ele>481.79998779297</ele>
        <time>2022-03-19T13:33:17.557Z</time>
      </trkpt>
      <trkpt lat="46.96594" lon="7.3057">
        <ele>482</ele>
        <time>2022-03-19T13:33:24.584Z</time>
      </trkpt>
      <trkpt lat="46.96596" lon="7.30567">
        <ele>482.5</ele>
        <time>2022-03-19T13:33:34.773Z</time>
      </trkpt>
      <trkpt lat="46.96599" lon="7.30563">
        <ele>483.09999084473</ele>
        <time>2022-03-19T13:33:49.212Z</time>
      </trkpt>
      <trkpt lat="46.96603" lon="7.30561">
        <ele>483.89999389648</ele>
        <time>2022-03-19T13:34:04.258Z</time>
      </trkpt>
      <trkpt lat="46.96614" lon="7.30553">
        <ele>486.89999389648</ele>
        <time>2022-03-19T13:34:47.976Z</time>
      </trkpt>
      <trkpt lat="46.9663" lon="7.30544">
        <ele>490.79998779297</ele>
        <time>2022-03-19T13:35:48.989Z</time>
      </trkpt>
      <trkpt lat="46.96641" lon="7.30537">
        <ele>493.09999084473</ele>
        <time>2022-03-19T13:36:31.682Z</time>
      </trkpt>
      <trkpt lat="46.96645" lon="7.30534">
        <ele>493.89999389648</ele>
        <time>2022-03-19T13:36:47.679Z</time>
      </trkpt>
      <trkpt lat="46.96647" lon="7.30531">
        <ele>494.69999694824</ele>
        <time>2022-03-19T13:36:57.867Z</time>
      </trkpt>
      <trkpt lat="46.96649" lon="7.30528">
        <ele>495.19999694824</ele>
        <time>2022-03-19T13:37:08.056Z</time>
      </trkpt>
      <trkpt lat="46.96651" lon="7.30523">
        <ele>495.79998779297</ele>
        <time>2022-03-19T13:37:22.136Z</time>
      </trkpt>
      <trkpt lat="46.96653" lon="7.30518">
        <ele>496.39999389648</ele>
        <time>2022-03-19T13:37:36.216Z</time>
      </trkpt>
      <trkpt lat="46.96654" lon="7.30514">
        <ele>496.59999084473</ele>
        <time>2022-03-19T13:37:41.567Z</time>
      </trkpt>
      <trkpt lat="46.96659" lon="7.30484">
        <ele>496.5</ele>
        <time>2022-03-19T13:37:59.700Z</time>
      </trkpt>
      <trkpt lat="46.96659" lon="7.30483">
        <ele>496.39999389648</ele>
        <time>2022-03-19T13:37:59.844Z</time>
      </trkpt>
      <trkpt lat="46.96664" lon="7.30455">
        <ele>494.89999389648</ele>
        <time>2022-03-19T13:38:04.008Z</time>
      </trkpt>
      <trkpt lat="46.96665" lon="7.30446">
        <ele>494.19999694824</ele>
        <time>2022-03-19T13:38:05.319Z</time>
      </trkpt>
      <trkpt lat="46.96666" lon="7.30417">
        <ele>492.09999084473</ele>
        <time>2022-03-19T13:38:09.497Z</time>
      </trkpt>
      <trkpt lat="46.96667" lon="7.30405">
        <ele>491.19999694824</ele>
        <time>2022-03-19T13:38:11.236Z</time>
      </trkpt>
      <trkpt lat="46.96668" lon="7.30397">
        <ele>490.5</ele>
        <time>2022-03-19T13:38:12.406Z</time>
      </trkpt>
      <trkpt lat="46.96673" lon="7.30368">
        <ele>488.19999694824</ele>
        <time>2022-03-19T13:38:16.710Z</time>
      </trkpt>
      <trkpt lat="46.96676" lon="7.30352">
        <ele>487.39999389648</ele>
        <time>2022-03-19T13:38:19.097Z</time>
      </trkpt>
      <trkpt lat="46.96679" lon="7.30343">
        <ele>487</ele>
        <time>2022-03-19T13:38:20.504Z</time>
      </trkpt>
      <trkpt lat="46.96684" lon="7.30327">
        <ele>486.09999084473</ele>
        <time>2022-03-19T13:38:23.036Z</time>
      </trkpt>
      <trkpt lat="46.96693" lon="7.30299">
        <ele>484.39999389648</ele>
        <time>2022-03-19T13:38:27.488Z</time>
      </trkpt>
      <trkpt lat="46.96695" lon="7.30292">
        <ele>484</ele>
        <time>2022-03-19T13:38:28.580Z</time>
      </trkpt>
      <trkpt lat="46.96698" lon="7.30282">
        <ele>483.59999084473</ele>
        <time>2022-03-19T13:38:30.177Z</time>
      </trkpt>
      <trkpt lat="46.96701" lon="7.30273">
        <ele>483.09999084473</ele>
        <time>2022-03-19T13:38:31.618Z</time>
      </trkpt>
      <trkpt lat="46.96704" lon="7.30262">
        <ele>482.59999084473</ele>
        <time>2022-03-19T13:38:33.239Z</time>
      </trkpt>
      <trkpt lat="46.96706" lon="7.30257">
        <ele>482.5</ele>
        <time>2022-03-19T13:38:34.352Z</time>
      </trkpt>
      <trkpt lat="46.96711" lon="7.30243">
        <ele>482.09999084473</ele>
        <time>2022-03-19T13:38:37.036Z</time>
      </trkpt>
      <trkpt lat="46.96716" lon="7.30234">
        <ele>482</ele>
        <time>2022-03-19T13:38:39.627Z</time>
      </trkpt>
      <trkpt lat="46.9674" lon="7.30196">
        <ele>482.89999389648</ele>
        <time>2022-03-19T13:39:22.162Z</time>
      </trkpt>
      <trkpt lat="46.96751" lon="7.30181">
        <ele>483.59999084473</ele>
        <time>2022-03-19T13:39:45.881Z</time>
      </trkpt>
      <trkpt lat="46.96757" lon="7.30172">
        <ele>483.69999694824</ele>
        <time>2022-03-19T13:39:54.752Z</time>
      </trkpt>
      <trkpt lat="46.96762" lon="7.30166">
        <ele>483.69999694824</ele>
        <time>2022-03-19T13:40:00.717Z</time>
      </trkpt>
      <trkpt lat="46.96774" lon="7.30154">
        <ele>483.29998779297</ele>
        <time>2022-03-19T13:40:04.706Z</time>
      </trkpt>
      <trkpt lat="46.9678" lon="7.30149">
        <ele>483.29998779297</ele>
        <time>2022-03-19T13:40:11.077Z</time>
      </trkpt>
      <trkpt lat="46.96786" lon="7.30144">
        <ele>483.19999694824</ele>
        <time>2022-03-19T13:40:13.282Z</time>
      </trkpt>
      <trkpt lat="46.96792" lon="7.30141">
        <ele>483.29998779297</ele>
        <time>2022-03-19T13:40:20.121Z</time>
      </trkpt>
      <trkpt lat="46.96797" lon="7.3014">
        <ele>483.39999389648</ele>
        <time>2022-03-19T13:40:25.812Z</time>
      </trkpt>
      <trkpt lat="46.96811" lon="7.30138">
        <ele>483.59999084473</ele>
        <time>2022-03-19T13:40:40.738Z</time>
      </trkpt>
      <trkpt lat="46.96816" lon="7.30138">
        <ele>483.59999084473</ele>
        <time>2022-03-19T13:40:45.353Z</time>
      </trkpt>
      <trkpt lat="46.96822" lon="7.30133">
        <ele>483.29998779297</ele>
        <time>2022-03-19T13:40:46.971Z</time>
      </trkpt>
      <trkpt lat="46.96829" lon="7.30126">
        <ele>483.09999084473</ele>
        <time>2022-03-19T13:40:49.401Z</time>
      </trkpt>
      <trkpt lat="46.96836" lon="7.30118">
        <ele>483.39999389648</ele>
        <time>2022-03-19T13:41:01.267Z</time>
      </trkpt>
      <trkpt lat="46.96841" lon="7.30111">
        <ele>483.89999389648</ele>
        <time>2022-03-19T13:41:14.337Z</time>
      </trkpt>
      <trkpt lat="46.96847" lon="7.30101">
        <ele>484.59999084473</ele>
        <time>2022-03-19T13:41:32.159Z</time>
      </trkpt>
      <trkpt lat="46.96852" lon="7.30091">
        <ele>485.29998779297</ele>
        <time>2022-03-19T13:41:49.541Z</time>
      </trkpt>
      <trkpt lat="46.96858" lon="7.30079">
        <ele>486</ele>
        <time>2022-03-19T13:42:08.247Z</time>
      </trkpt>
      <trkpt lat="46.96866" lon="7.30062">
        <ele>486.29998779297</ele>
        <time>2022-03-19T13:42:24.404Z</time>
      </trkpt>
      <trkpt lat="46.96873" lon="7.30049">
        <ele>486.29998779297</ele>
        <time>2022-03-19T13:42:34.834Z</time>
      </trkpt>
      <trkpt lat="46.96879" lon="7.3004">
        <ele>486.09999084473</ele>
        <time>2022-03-19T13:42:37.304Z</time>
      </trkpt>
      <trkpt lat="46.96884" lon="7.30033">
        <ele>485.79998779297</ele>
        <time>2022-03-19T13:42:38.926Z</time>
      </trkpt>
      <trkpt lat="46.96901" lon="7.30015">
        <ele>485.5</ele>
        <time>2022-03-19T13:42:45.642Z</time>
      </trkpt>
      <trkpt lat="46.96919" lon="7.29992">
        <ele>485.59999084473</ele>
        <time>2022-03-19T13:43:08.563Z</time>
      </trkpt>
      <trkpt lat="46.96927" lon="7.29983">
        <ele>486.09999084473</ele>
        <time>2022-03-19T13:43:24.794Z</time>
      </trkpt>
      <trkpt lat="46.96933" lon="7.29979">
        <ele>486.39999389648</ele>
        <time>2022-03-19T13:43:35.129Z</time>
      </trkpt>
      <trkpt lat="46.96951" lon="7.29967">
        <ele>487.59999084473</ele>
        <time>2022-03-19T13:44:09.444Z</time>
      </trkpt>
      <trkpt lat="46.9696" lon="7.29961">
        <ele>488.59999084473</ele>
        <time>2022-03-19T13:44:33.442Z</time>
      </trkpt>
      <trkpt lat="46.96964" lon="7.29959">
        <ele>489</ele>
        <time>2022-03-19T13:44:43.083Z</time>
      </trkpt>
      <trkpt lat="46.96969" lon="7.29957">
        <ele>489.5</ele>
        <time>2022-03-19T13:44:55.109Z</time>
      </trkpt>
      <trkpt lat="46.96971" lon="7.29956">
        <ele>489.69999694824</ele>
        <time>2022-03-19T13:44:59.930Z</time>
      </trkpt>
      <trkpt lat="46.96973" lon="7.29953">
        <ele>489.89999389648</ele>
        <time>2022-03-19T13:45:05.240Z</time>
      </trkpt>
      <trkpt lat="46.9698" lon="7.29938">
        <ele>488.19999694824</ele>
        <time>2022-03-19T13:45:07.854Z</time>
      </trkpt>
      <trkpt lat="46.96985" lon="7.29927">
        <ele>487.19999694824</ele>
        <time>2022-03-19T13:45:09.756Z</time>
      </trkpt>
      <trkpt lat="46.96988" lon="7.29919">
        <ele>486.59999084473</ele>
        <time>2022-03-19T13:45:11.069Z</time>
      </trkpt>
      <trkpt lat="46.9699" lon="7.29913">
        <ele>485.79998779297</ele>
        <time>2022-03-19T13:45:12.030Z</time>
      </trkpt>
      <trkpt lat="46.96992" lon="7.29905">
        <ele>484.79998779297</ele>
        <time>2022-03-19T13:45:13.255Z</time>
      </trkpt>
      <trkpt lat="46.96995" lon="7.29887">
        <ele>482.5</ele>
        <time>2022-03-19T13:45:15.921Z</time>
      </trkpt>
      <trkpt lat="46.96997" lon="7.29883">
        <ele>482.09999084473</ele>
        <time>2022-03-19T13:45:16.634Z</time>
      </trkpt>
      <trkpt lat="46.96999" lon="7.29879">
        <ele>481.79998779297</ele>
        <time>2022-03-19T13:45:17.348Z</time>
      </trkpt>
      <trkpt lat="46.97002" lon="7.29876">
        <ele>481.69999694824</ele>
        <time>2022-03-19T13:45:18.345Z</time>
      </trkpt>
      <trkpt lat="46.97008" lon="7.2987">
        <ele>481.59999084473</ele>
        <time>2022-03-19T13:45:20.687Z</time>
      </trkpt>
      <trkpt lat="46.97013" lon="7.29866">
        <ele>481.79998779297</ele>
        <time>2022-03-19T13:45:28.437Z</time>
      </trkpt>
      <trkpt lat="46.9702" lon="7.29857">
        <ele>482</ele>
        <time>2022-03-19T13:45:39.137Z</time>
      </trkpt>
      <trkpt lat="46.97029" lon="7.29847">
        <ele>482.19999694824</ele>
        <time>2022-03-19T13:45:51.579Z</time>
      </trkpt>
      <trkpt lat="46.97034" lon="7.2984">
        <ele>482.39999389648</ele>
        <time>2022-03-19T13:46:00.261Z</time>
      </trkpt>
      <trkpt lat="46.97042" lon="7.29833">
        <ele>482.39999389648</ele>
        <time>2022-03-19T13:46:08.861Z</time>
      </trkpt>
      <trkpt lat="46.97048" lon="7.29828">
        <ele>482.39999389648</ele>
        <time>2022-03-19T13:46:15.232Z</time>
      </trkpt>
      <trkpt lat="46.97056" lon="7.29822">
        <ele>482.29998779297</ele>
        <time>2022-03-19T13:46:18.229Z</time>
      </trkpt>
      <trkpt lat="46.9706" lon="7.29819">
        <ele>481.79998779297</ele>
        <time>2022-03-19T13:46:19.176Z</time>
      </trkpt>
      <trkpt lat="46.97066" lon="7.29815">
        <ele>481.19999694824</ele>
        <time>2022-03-19T13:46:20.566Z</time>
      </trkpt>
      <trkpt lat="46.97069" lon="7.29814">
        <ele>481.29998779297</ele>
        <time>2022-03-19T13:46:24.609Z</time>
      </trkpt>
      <trkpt lat="46.97079" lon="7.29814">
        <ele>481.89999389648</ele>
        <time>2022-03-19T13:46:41.879Z</time>
      </trkpt>
      <trkpt lat="46.97082" lon="7.29814">
        <ele>482.09999084473</ele>
        <time>2022-03-19T13:46:47.314Z</time>
      </trkpt>
      <trkpt lat="46.97086" lon="7.29813">
        <ele>482.29998779297</ele>
        <time>2022-03-19T13:46:53.833Z</time>
      </trkpt>
      <trkpt lat="46.97098" lon="7.29809">
        <ele>482.59999084473</ele>
        <time>2022-03-19T13:47:08.457Z</time>
      </trkpt>
      <trkpt lat="46.97102" lon="7.29808">
        <ele>482.5</ele>
        <time>2022-03-19T13:47:09.607Z</time>
      </trkpt>
      <trkpt lat="46.97106" lon="7.29808">
        <ele>482.39999389648</ele>
        <time>2022-03-19T13:47:10.736Z</time>
      </trkpt>
      <trkpt lat="46.9711" lon="7.29808">
        <ele>482.5</ele>
        <time>2022-03-19T13:47:15.524Z</time>
      </trkpt>
      <trkpt lat="46.97113" lon="7.29809">
        <ele>482.5</ele>
        <time>2022-03-19T13:47:18.364Z</time>
      </trkpt>
      <trkpt lat="46.97122" lon="7.29814">
        <ele>482.39999389648</ele>
        <time>2022-03-19T13:47:21.605Z</time>
      </trkpt>
      <trkpt lat="46.97145" lon="7.29829">
        <ele>481.69999694824</ele>
        <time>2022-03-19T13:47:28.497Z</time>
      </trkpt>
      <trkpt lat="46.97166" lon="7.29842">
        <ele>481.69999694824</ele>
        <time>2022-03-19T13:47:49.538Z</time>
      </trkpt>
      <trkpt lat="46.97174" lon="7.29846">
        <ele>481.69999694824</ele>
        <time>2022-03-19T13:47:57.340Z</time>
      </trkpt>
      <trkpt lat="46.97178" lon="7.29849">
        <ele>481.89999389648</ele>
        <time>2022-03-19T13:48:04.339Z</time>
      </trkpt>
      <trkpt lat="46.97182" lon="7.29849">
        <ele>482.09999084473</ele>
        <time>2022-03-19T13:48:10.795Z</time>
      </trkpt>
      <trkpt lat="46.97186" lon="7.29848">
        <ele>482.39999389648</ele>
        <time>2022-03-19T13:48:18.561Z</time>
      </trkpt>
      <trkpt lat="46.9719" lon="7.29846">
        <ele>482.59999084473</ele>
        <time>2022-03-19T13:48:25.264Z</time>
      </trkpt>
      <trkpt lat="46.97194" lon="7.29843">
        <ele>482.59999084473</ele>
        <time>2022-03-19T13:48:29.412Z</time>
      </trkpt>
      <trkpt lat="46.97197" lon="7.29838">
        <ele>482.59999084473</ele>
        <time>2022-03-19T13:48:33.605Z</time>
      </trkpt>
      <trkpt lat="46.97199" lon="7.29834">
        <ele>482.69999694824</ele>
        <time>2022-03-19T13:48:37.887Z</time>
      </trkpt>
      <trkpt lat="46.97201" lon="7.29828">
        <ele>482.89999389648</ele>
        <time>2022-03-19T13:48:44.920Z</time>
      </trkpt>
      <trkpt lat="46.97201" lon="7.29824">
        <ele>483.09999084473</ele>
        <time>2022-03-19T13:48:50.118Z</time>
      </trkpt>
      <trkpt lat="46.97202" lon="7.29821">
        <ele>483.09999084473</ele>
        <time>2022-03-19T13:48:52.220Z</time>
      </trkpt>
      <trkpt lat="46.97205" lon="7.29816">
        <ele>483.19999694824</ele>
        <time>2022-03-19T13:48:57.473Z</time>
      </trkpt>
      <trkpt lat="46.97203" lon="7.29807">
        <ele>483.09999084473</ele>
        <time>2022-03-19T13:48:59.511Z</time>
      </trkpt>
      <trkpt lat="46.972" lon="7.29797">
        <ele>483.09999084473</ele>
        <time>2022-03-19T13:49:06.390Z</time>
      </trkpt>
      <trkpt lat="46.97197" lon="7.2979">
        <ele>483.09999084473</ele>
        <time>2022-03-19T13:49:11.596Z</time>
      </trkpt>
      <trkpt lat="46.97194" lon="7.29783">
        <ele>483.19999694824</ele>
        <time>2022-03-19T13:49:17.812Z</time>
      </trkpt>
      <trkpt lat="46.97188" lon="7.29775">
        <ele>483.29998779297</ele>
        <time>2022-03-19T13:49:26.251Z</time>
      </trkpt>
      <trkpt lat="46.97181" lon="7.29767">
        <ele>483.19999694824</ele>
        <time>2022-03-19T13:49:29.207Z</time>
      </trkpt>
      <trkpt lat="46.97171" lon="7.29756">
        <ele>483.29998779297</ele>
        <time>2022-03-19T13:49:41.659Z</time>
      </trkpt>
      <trkpt lat="46.97167" lon="7.29752">
        <ele>483.29998779297</ele>
        <time>2022-03-19T13:49:46.129Z</time>
      </trkpt>
      <trkpt lat="46.97163" lon="7.29746">
        <ele>483.39999389648</ele>
        <time>2022-03-19T13:49:52.418Z</time>
      </trkpt>
      <trkpt lat="46.97154" lon="7.29732">
        <ele>483.59999084473</ele>
        <time>2022-03-19T13:50:06.497Z</time>
      </trkpt>
      <trkpt lat="46.97152" lon="7.29728">
        <ele>483.59999084473</ele>
        <time>2022-03-19T13:50:09.620Z</time>
      </trkpt>
      <trkpt lat="46.97147" lon="7.29712">
        <ele>484</ele>
        <time>2022-03-19T13:50:25.570Z</time>
      </trkpt>
      <trkpt lat="46.97145" lon="7.29704">
        <ele>484.09999084473</ele>
        <time>2022-03-19T13:50:31.939Z</time>
      </trkpt>
      <trkpt lat="46.97143" lon="7.29697">
        <ele>484.29998779297</ele>
        <time>2022-03-19T13:50:39.335Z</time>
      </trkpt>
      <trkpt lat="46.97142" lon="7.29689">
        <ele>484.59999084473</ele>
        <time>2022-03-19T13:50:48.536Z</time>
      </trkpt>
      <trkpt lat="46.97142" lon="7.29681">
        <ele>484.89999389648</ele>
        <time>2022-03-19T13:50:57.642Z</time>
      </trkpt>
      <trkpt lat="46.97142" lon="7.29672">
        <ele>485.09999084473</ele>
        <time>2022-03-19T13:51:05.719Z</time>
      </trkpt>
      <trkpt lat="46.97143" lon="7.29659">
        <ele>485.39999389648</ele>
        <time>2022-03-19T13:51:17.623Z</time>
      </trkpt>
      <trkpt lat="46.97144" lon="7.29649">
        <ele>485.69999694824</ele>
        <time>2022-03-19T13:51:28.204Z</time>
      </trkpt>
      <trkpt lat="46.97147" lon="7.29639">
        <ele>485.79998779297</ele>
        <time>2022-03-19T13:51:36.048Z</time>
      </trkpt>
      <trkpt lat="46.97154" lon="7.29615">
        <ele>486.39999389648</ele>
        <time>2022-03-19T13:51:59.822Z</time>
      </trkpt>
      <trkpt lat="46.97159" lon="7.29602">
        <ele>486.59999084473</ele>
        <time>2022-03-19T13:52:11.282Z</time>
      </trkpt>
      <trkpt lat="46.97163" lon="7.29587">
        <ele>487</ele>
        <time>2022-03-19T13:52:26.498Z</time>
      </trkpt>
      <trkpt lat="46.97168" lon="7.29572">
        <ele>487.39999389648</ele>
        <time>2022-03-19T13:52:41.997Z</time>
      </trkpt>
      <trkpt lat="46.97171" lon="7.29565">
        <ele>487.69999694824</ele>
        <time>2022-03-19T13:52:51.294Z</time>
      </trkpt>
      <trkpt lat="46.97174" lon="7.2956">
        <ele>488</ele>
        <time>2022-03-19T13:52:59.486Z</time>
      </trkpt>
      <trkpt lat="46.97177" lon="7.29556">
        <ele>488.19999694824</ele>
        <time>2022-03-19T13:53:06.002Z</time>
      </trkpt>
      <trkpt lat="46.97184" lon="7.29548">
        <ele>488.69999694824</ele>
        <time>2022-03-19T13:53:20.948Z</time>
      </trkpt>
      <trkpt lat="46.97183" lon="7.29548">
        <ele>488.5</ele>
        <time>2022-03-19T13:53:21.159Z</time>
      </trkpt>
      <trkpt lat="46.97184" lon="7.29549">
        <ele>488.5</ele>
        <time>2022-03-19T13:53:22.276Z</time>
      </trkpt>
      <trkpt lat="46.97183" lon="7.29548">
        <ele>488.5</ele>
        <time>2022-03-19T13:53:23.393Z</time>
      </trkpt>
      <trkpt lat="46.97184" lon="7.29548">
        <ele>488.69999694824</ele>
        <time>2022-03-19T13:53:26.953Z</time>
      </trkpt>
      <trkpt lat="46.97192" lon="7.29538">
        <ele>489.39999389648</ele>
        <time>2022-03-19T13:53:45.990Z</time>
      </trkpt>
      <trkpt lat="46.97196" lon="7.29533">
        <ele>489.69999694824</ele>
        <time>2022-03-19T13:53:54.886Z</time>
      </trkpt>
      <trkpt lat="46.97198" lon="7.29529">
        <ele>490</ele>
        <time>2022-03-19T13:54:02.200Z</time>
      </trkpt>
      <trkpt lat="46.972" lon="7.29524">
        <ele>490.19999694824</ele>
        <time>2022-03-19T13:54:08.606Z</time>
      </trkpt>
      <trkpt lat="46.97201" lon="7.29519">
        <ele>490.5</ele>
        <time>2022-03-19T13:54:16.012Z</time>
      </trkpt>
      <trkpt lat="46.97202" lon="7.29515">
        <ele>490.5</ele>
        <time>2022-03-19T13:54:18.695Z</time>
      </trkpt>
      <trkpt lat="46.97202" lon="7.29511">
        <ele>490.69999694824</ele>
        <time>2022-03-19T13:54:23.893Z</time>
      </trkpt>
      <trkpt lat="46.97202" lon="7.29505">
        <ele>491.09999084473</ele>
        <time>2022-03-19T13:54:33.504Z</time>
      </trkpt>
      <trkpt lat="46.97201" lon="7.29498">
        <ele>491.5</ele>
        <time>2022-03-19T13:54:43.466Z</time>
      </trkpt>
      <trkpt lat="46.97197" lon="7.29485">
        <ele>492.19999694824</ele>
        <time>2022-03-19T13:55:01.806Z</time>
      </trkpt>
      <trkpt lat="46.97193" lon="7.29472">
        <ele>492.89999389648</ele>
        <time>2022-03-19T13:55:20.146Z</time>
      </trkpt>
      <trkpt lat="46.97189" lon="7.29459">
        <ele>493.59999084473</ele>
        <time>2022-03-19T13:55:38.486Z</time>
      </trkpt>
      <trkpt lat="46.97187" lon="7.2945">
        <ele>494</ele>
        <time>2022-03-19T13:55:49.794Z</time>
      </trkpt>
      <trkpt lat="46.97186" lon="7.29438">
        <ele>494.5</ele>
        <time>2022-03-19T13:56:04.101Z</time>
      </trkpt>
      <trkpt lat="46.97184" lon="7.29425">
        <ele>494.89999389648</ele>
        <time>2022-03-19T13:56:18.158Z</time>
      </trkpt>
      <trkpt lat="46.97182" lon="7.29392">
        <ele>496.59999084473</ele>
        <time>2022-03-19T13:57:01.856Z</time>
      </trkpt>
      <trkpt lat="46.97181" lon="7.29371">
        <ele>497.5</ele>
        <time>2022-03-19T13:57:27.134Z</time>
      </trkpt>
      <trkpt lat="46.97181" lon="7.2936">
        <ele>498</ele>
        <time>2022-03-19T13:57:40.728Z</time>
      </trkpt>
      <trkpt lat="46.97182" lon="7.29317">
        <ele>499.79998779297</ele>
        <time>2022-03-19T13:58:31.900Z</time>
      </trkpt>
      <trkpt lat="46.97184" lon="7.29297">
        <ele>500.89999389648</ele>
        <time>2022-03-19T13:58:59.550Z</time>
      </trkpt>
      <trkpt lat="46.97185" lon="7.29286">
        <ele>501.5</ele>
        <time>2022-03-19T13:59:14.666Z</time>
      </trkpt>
      <trkpt lat="46.97188" lon="7.29275">
        <ele>501.79998779297</ele>
        <time>2022-03-19T13:59:25.969Z</time>
      </trkpt>
      <trkpt lat="46.97189" lon="7.29268">
        <ele>501.69999694824</ele>
        <time>2022-03-19T13:59:27.419Z</time>
      </trkpt>
      <trkpt lat="46.97196" lon="7.29246">
        <ele>501.59999084473</ele>
        <time>2022-03-19T13:59:41.412Z</time>
      </trkpt>
      <trkpt lat="46.97203" lon="7.29225">
        <ele>501.69999694824</ele>
        <time>2022-03-19T13:59:57.028Z</time>
      </trkpt>
      <trkpt lat="46.9721" lon="7.29204">
        <ele>501.5</ele>
        <time>2022-03-19T14:00:02.251Z</time>
      </trkpt>
      <trkpt lat="46.97216" lon="7.29185">
        <ele>500.79998779297</ele>
        <time>2022-03-19T14:00:05.436Z</time>
      </trkpt>
      <trkpt lat="46.9722" lon="7.29174">
        <ele>500.19999694824</ele>
        <time>2022-03-19T14:00:07.229Z</time>
      </trkpt>
      <trkpt lat="46.97225" lon="7.29164">
        <ele>499.69999694824</ele>
        <time>2022-03-19T14:00:08.963Z</time>
      </trkpt>
      <trkpt lat="46.97229" lon="7.29158">
        <ele>499.19999694824</ele>
        <time>2022-03-19T14:00:10.169Z</time>
      </trkpt>
      <trkpt lat="46.97233" lon="7.29154">
        <ele>499</ele>
        <time>2022-03-19T14:00:11.327Z</time>
      </trkpt>
      <trkpt lat="46.97237" lon="7.2915">
        <ele>498.69999694824</ele>
        <time>2022-03-19T14:00:12.297Z</time>
      </trkpt>
      <trkpt lat="46.9724" lon="7.29148">
        <ele>498.39999389648</ele>
        <time>2022-03-19T14:00:12.992Z</time>
      </trkpt>
      <trkpt lat="46.97245" lon="7.29146">
        <ele>498.19999694824</ele>
        <time>2022-03-19T14:00:14.263Z</time>
      </trkpt>
      <trkpt lat="46.97249" lon="7.29145">
        <ele>497.89999389648</ele>
        <time>2022-03-19T14:00:15.119Z</time>
      </trkpt>
      <trkpt lat="46.97257" lon="7.29145">
        <ele>497.39999389648</ele>
        <time>2022-03-19T14:00:16.714Z</time>
      </trkpt>
      <trkpt lat="46.97262" lon="7.29147">
        <ele>497</ele>
        <time>2022-03-19T14:00:17.807Z</time>
      </trkpt>
      <trkpt lat="46.97268" lon="7.29149">
        <ele>496.69999694824</ele>
        <time>2022-03-19T14:00:19.182Z</time>
      </trkpt>
      <trkpt lat="46.97272" lon="7.29151">
        <ele>496.39999389648</ele>
        <time>2022-03-19T14:00:20.073Z</time>
      </trkpt>
      <trkpt lat="46.97276" lon="7.29155">
        <ele>496.09999084473</ele>
        <time>2022-03-19T14:00:21.043Z</time>
      </trkpt>
      <trkpt lat="46.97289" lon="7.29166">
        <ele>495.09999084473</ele>
        <time>2022-03-19T14:00:23.943Z</time>
      </trkpt>
      <trkpt lat="46.97299" lon="7.29175">
        <ele>494.29998779297</ele>
        <time>2022-03-19T14:00:26.417Z</time>
      </trkpt>
      <trkpt lat="46.97306" lon="7.29181">
        <ele>493.89999389648</ele>
        <time>2022-03-19T14:00:28.220Z</time>
      </trkpt>
      <trkpt lat="46.9731" lon="7.29186">
        <ele>493.39999389648</ele>
        <time>2022-03-19T14:00:29.329Z</time>
      </trkpt>
      <trkpt lat="46.9732" lon="7.292">
        <ele>492.39999389648</ele>
        <time>2022-03-19T14:00:32.244Z</time>
      </trkpt>
      <trkpt lat="46.97324" lon="7.29205">
        <ele>492.09999084473</ele>
        <time>2022-03-19T14:00:33.339Z</time>
      </trkpt>
      <trkpt lat="46.97333" lon="7.29213">
        <ele>491.39999389648</ele>
        <time>2022-03-19T14:00:35.375Z</time>
      </trkpt>
      <trkpt lat="46.97358" lon="7.29227">
        <ele>489.59999084473</ele>
        <time>2022-03-19T14:00:41.017Z</time>
      </trkpt>
      <trkpt lat="46.97369" lon="7.29234">
        <ele>488.69999694824</ele>
        <time>2022-03-19T14:00:43.545Z</time>
      </trkpt>
      <trkpt lat="46.97378" lon="7.29238">
        <ele>488.09999084473</ele>
        <time>2022-03-19T14:00:45.402Z</time>
      </trkpt>
      <trkpt lat="46.97391" lon="7.29242">
        <ele>487.29998779297</ele>
        <time>2022-03-19T14:00:48.099Z</time>
      </trkpt>
      <trkpt lat="46.97402" lon="7.29243">
        <ele>486.5</ele>
        <time>2022-03-19T14:00:50.422Z</time>
      </trkpt>
      <trkpt lat="46.97408" lon="7.29243">
        <ele>486.19999694824</ele>
        <time>2022-03-19T14:00:51.749Z</time>
      </trkpt>
      <trkpt lat="46.97413" lon="7.29242">
        <ele>485.79998779297</ele>
        <time>2022-03-19T14:00:52.813Z</time>
      </trkpt>
      <trkpt lat="46.97417" lon="7.2924">
        <ele>485.59999084473</ele>
        <time>2022-03-19T14:00:53.769Z</time>
      </trkpt>
      <trkpt lat="46.97422" lon="7.29236">
        <ele>485.19999694824</ele>
        <time>2022-03-19T14:00:54.970Z</time>
      </trkpt>
      <trkpt lat="46.97426" lon="7.29232">
        <ele>485</ele>
        <time>2022-03-19T14:00:56.128Z</time>
      </trkpt>
      <trkpt lat="46.97427" lon="7.29229">
        <ele>484.89999389648</ele>
        <time>2022-03-19T14:00:56.660Z</time>
      </trkpt>
      <trkpt lat="46.97428" lon="7.29225">
        <ele>484.59999084473</ele>
        <time>2022-03-19T14:00:57.272Z</time>
      </trkpt>
      <trkpt lat="46.97429" lon="7.2922">
        <ele>484.29998779297</ele>
        <time>2022-03-19T14:00:58.022Z</time>
      </trkpt>
      <trkpt lat="46.97429" lon="7.29217">
        <ele>484.19999694824</ele>
        <time>2022-03-19T14:00:58.479Z</time>
      </trkpt>
      <trkpt lat="46.97429" lon="7.29211">
        <ele>484</ele>
        <time>2022-03-19T14:00:59.393Z</time>
      </trkpt>
      <trkpt lat="46.97429" lon="7.29201">
        <ele>483.89999389648</ele>
        <time>2022-03-19T14:01:01.568Z</time>
      </trkpt>
      <trkpt lat="46.97428" lon="7.29197">
        <ele>483.89999389648</ele>
        <time>2022-03-19T14:01:04.251Z</time>
      </trkpt>
      <trkpt lat="46.97426" lon="7.29192">
        <ele>483.89999389648</ele>
        <time>2022-03-19T14:01:07.901Z</time>
      </trkpt>
      <trkpt lat="46.97423" lon="7.29188">
        <ele>483.89999389648</ele>
        <time>2022-03-19T14:01:11.645Z</time>
      </trkpt>
      <trkpt lat="46.9742" lon="7.29184">
        <ele>483.79998779297</ele>
        <time>2022-03-19T14:01:12.794Z</time>
      </trkpt>
      <trkpt lat="46.97418" lon="7.29181">
        <ele>483.89999389648</ele>
        <time>2022-03-19T14:01:16.679Z</time>
      </trkpt>
      <trkpt lat="46.97399" lon="7.29169">
        <ele>484.5</ele>
        <time>2022-03-19T14:01:42.681Z</time>
      </trkpt>
      <trkpt lat="46.97393" lon="7.29164">
        <ele>485</ele>
        <time>2022-03-19T14:01:55.741Z</time>
      </trkpt>
      <trkpt lat="46.97384" lon="7.29153">
        <ele>485.59999084473</ele>
        <time>2022-03-19T14:02:14.803Z</time>
      </trkpt>
      <trkpt lat="46.97372" lon="7.29135">
        <ele>486.89999389648</ele>
        <time>2022-03-19T14:02:48.128Z</time>
      </trkpt>
      <trkpt lat="46.97362" lon="7.29122">
        <ele>487.89999389648</ele>
        <time>2022-03-19T14:03:13.888Z</time>
      </trkpt>
      <trkpt lat="46.97356" lon="7.29112">
        <ele>488.89999389648</ele>
        <time>2022-03-19T14:03:38.066Z</time>
      </trkpt>
      <trkpt lat="46.97353" lon="7.29107">
        <ele>489.39999389648</ele>
        <time>2022-03-19T14:03:50.155Z</time>
      </trkpt>
      <trkpt lat="46.97347" lon="7.29097">
        <ele>490.39999389648</ele>
        <time>2022-03-19T14:04:14.333Z</time>
      </trkpt>
      <trkpt lat="46.97339" lon="7.2908">
        <ele>491.89999389648</ele>
        <time>2022-03-19T14:04:50.422Z</time>
      </trkpt>
      <trkpt lat="46.97333" lon="7.29065">
        <ele>493.29998779297</ele>
        <time>2022-03-19T14:05:24.956Z</time>
      </trkpt>
      <trkpt lat="46.97331" lon="7.29062">
        <ele>493.5</ele>
        <time>2022-03-19T14:05:30.267Z</time>
      </trkpt>
      <trkpt lat="46.97325" lon="7.29051">
        <ele>494.19999694824</ele>
        <time>2022-03-19T14:05:48.505Z</time>
      </trkpt>
      <trkpt lat="46.97319" lon="7.29041">
        <ele>495</ele>
        <time>2022-03-19T14:06:08.038Z</time>
      </trkpt>
      <trkpt lat="46.97311" lon="7.29028">
        <ele>495.89999389648</ele>
        <time>2022-03-19T14:06:31.154Z</time>
      </trkpt>
      <trkpt lat="46.97307" lon="7.29015">
        <ele>496.79998779297</ele>
        <time>2022-03-19T14:06:52.916Z</time>
      </trkpt>
      <trkpt lat="46.97305" lon="7.29007">
        <ele>497.29998779297</ele>
        <time>2022-03-19T14:07:05.196Z</time>
      </trkpt>
      <trkpt lat="46.97301" lon="7.28985">
        <ele>498.5</ele>
        <time>2022-03-19T14:07:35.715Z</time>
      </trkpt>
      <trkpt lat="46.97298" lon="7.28977">
        <ele>499</ele>
        <time>2022-03-19T14:07:48.255Z</time>
      </trkpt>
      <trkpt lat="46.97295" lon="7.28967">
        <ele>499.79998779297</ele>
        <time>2022-03-19T14:08:07.520Z</time>
      </trkpt>
      <trkpt lat="46.97288" lon="7.28951">
        <ele>500.69999694824</ele>
        <time>2022-03-19T14:08:31.498Z</time>
      </trkpt>
      <trkpt lat="46.97282" lon="7.28937">
        <ele>501.5</ele>
        <time>2022-03-19T14:08:52.595Z</time>
      </trkpt>
      <trkpt lat="46.97258" lon="7.28881">
        <ele>504.59999084473</ele>
        <time>2022-03-19T14:10:15.586Z</time>
      </trkpt>
      <trkpt lat="46.97256" lon="7.28878">
        <ele>504.89999389648</ele>
        <time>2022-03-19T14:10:22.794Z</time>
      </trkpt>
      <trkpt lat="46.97251" lon="7.28869">
        <ele>505.5</ele>
        <time>2022-03-19T14:10:38.170Z</time>
      </trkpt>
      <trkpt lat="46.97245" lon="7.2886">
        <ele>506.19999694824</ele>
        <time>2022-03-19T14:10:55.634Z</time>
      </trkpt>
      <trkpt lat="46.97239" lon="7.28854">
        <ele>506.69999694824</ele>
        <time>2022-03-19T14:11:09.007Z</time>
      </trkpt>
      <trkpt lat="46.97232" lon="7.28847">
        <ele>507.29998779297</ele>
        <time>2022-03-19T14:11:24.841Z</time>
      </trkpt>
      <trkpt lat="46.97221" lon="7.28839">
        <ele>508.09999084473</ele>
        <time>2022-03-19T14:11:46.843Z</time>
      </trkpt>
      <trkpt lat="46.97211" lon="7.28834">
        <ele>508.79998779297</ele>
        <time>2022-03-19T14:12:05.927Z</time>
      </trkpt>
      <trkpt lat="46.97203" lon="7.28828">
        <ele>509.5</ele>
        <time>2022-03-19T14:12:23.673Z</time>
      </trkpt>
      <trkpt lat="46.97194" lon="7.28822">
        <ele>510</ele>
        <time>2022-03-19T14:12:39.690Z</time>
      </trkpt>
      <trkpt lat="46.97189" lon="7.28818">
        <ele>510.19999694824</ele>
        <time>2022-03-19T14:12:47.440Z</time>
      </trkpt>
      <trkpt lat="46.97182" lon="7.28813">
        <ele>510.5</ele>
        <time>2022-03-19T14:12:58.546Z</time>
      </trkpt>
      <trkpt lat="46.97168" lon="7.28803">
        <ele>511.39999389648</ele>
        <time>2022-03-19T14:13:25.033Z</time>
      </trkpt>
      <trkpt lat="46.9716" lon="7.28795">
        <ele>511.79998779297</ele>
        <time>2022-03-19T14:13:39.411Z</time>
      </trkpt>
      <trkpt lat="46.97143" lon="7.28772">
        <ele>512.39999389648</ele>
        <time>2022-03-19T14:14:07.418Z</time>
      </trkpt>
      <trkpt lat="46.97135" lon="7.28763">
        <ele>512.19998168945</ele>
        <time>2022-03-19T14:14:10.438Z</time>
      </trkpt>
      <trkpt lat="46.97128" lon="7.28755">
        <ele>512.09997558594</ele>
        <time>2022-03-19T14:14:13.393Z</time>
      </trkpt>
      <trkpt lat="46.97121" lon="7.2875">
        <ele>512.09997558594</ele>
        <time>2022-03-19T14:14:20.580Z</time>
      </trkpt>
      <trkpt lat="46.97118" lon="7.28749">
        <ele>512.09997558594</ele>
        <time>2022-03-19T14:14:23.420Z</time>
      </trkpt>
      <trkpt lat="46.97111" lon="7.28744">
        <ele>512.09997558594</ele>
        <time>2022-03-19T14:14:30.607Z</time>
      </trkpt>
      <trkpt lat="46.97104" lon="7.2874">
        <ele>512</ele>
        <time>2022-03-19T14:14:33.044Z</time>
      </trkpt>
      <trkpt lat="46.97097" lon="7.28738">
        <ele>512.09997558594</ele>
        <time>2022-03-19T14:14:40.596Z</time>
      </trkpt>
      <trkpt lat="46.97094" lon="7.28737">
        <ele>512</ele>
        <time>2022-03-19T14:14:41.398Z</time>
      </trkpt>
      <trkpt lat="46.97091" lon="7.28737">
        <ele>511.89999389648</ele>
        <time>2022-03-19T14:14:42.173Z</time>
      </trkpt>
      <trkpt lat="46.97085" lon="7.28737">
        <ele>511.59999084473</ele>
        <time>2022-03-19T14:14:43.499Z</time>
      </trkpt>
      <trkpt lat="46.97076" lon="7.28738">
        <ele>511.09999084473</ele>
        <time>2022-03-19T14:14:45.405Z</time>
      </trkpt>
      <trkpt lat="46.97053" lon="7.28744">
        <ele>509.89999389648</ele>
        <time>2022-03-19T14:14:50.509Z</time>
      </trkpt>
      <trkpt lat="46.97045" lon="7.28747">
        <ele>509.5</ele>
        <time>2022-03-19T14:14:52.360Z</time>
      </trkpt>
      <trkpt lat="46.97041" lon="7.28748">
        <ele>509.19999694824</ele>
        <time>2022-03-19T14:14:53.215Z</time>
      </trkpt>
      <trkpt lat="46.97035" lon="7.28748">
        <ele>509</ele>
        <time>2022-03-19T14:14:54.766Z</time>
      </trkpt>
      <trkpt lat="46.97024" lon="7.28749">
        <ele>508.5</ele>
        <time>2022-03-19T14:14:57.304Z</time>
      </trkpt>
      <trkpt lat="46.96987" lon="7.28746">
        <ele>506.89999389648</ele>
        <time>2022-03-19T14:15:06.011Z</time>
      </trkpt>
      <trkpt lat="46.96943" lon="7.28743">
        <ele>504.69999694824</ele>
        <time>2022-03-19T14:15:15.753Z</time>
      </trkpt>
      <trkpt lat="46.9692" lon="7.28741">
        <ele>503.29998779297</ele>
        <time>2022-03-19T14:15:20.411Z</time>
      </trkpt>
      <trkpt lat="46.96908" lon="7.2874">
        <ele>502.59999084473</ele>
        <time>2022-03-19T14:15:22.891Z</time>
      </trkpt>
      <trkpt lat="46.96903" lon="7.28741">
        <ele>502.29998779297</ele>
        <time>2022-03-19T14:15:23.922Z</time>
      </trkpt>
      <trkpt lat="46.969" lon="7.28742">
        <ele>502.09999084473</ele>
        <time>2022-03-19T14:15:24.523Z</time>
      </trkpt>
      <trkpt lat="46.96896" lon="7.28745">
        <ele>501.79998779297</ele>
        <time>2022-03-19T14:15:25.471Z</time>
      </trkpt>
      <trkpt lat="46.96891" lon="7.2875">
        <ele>501.39999389648</ele>
        <time>2022-03-19T14:15:26.645Z</time>
      </trkpt>
      <trkpt lat="46.96887" lon="7.28756">
        <ele>501</ele>
        <time>2022-03-19T14:15:27.852Z</time>
      </trkpt>
      <trkpt lat="46.96885" lon="7.28762">
        <ele>500.69999694824</ele>
        <time>2022-03-19T14:15:28.737Z</time>
      </trkpt>
      <trkpt lat="46.96883" lon="7.2877">
        <ele>500.29998779297</ele>
        <time>2022-03-19T14:15:29.963Z</time>
      </trkpt>
      <trkpt lat="46.96881" lon="7.28785">
        <ele>499.5</ele>
        <time>2022-03-19T14:15:32.162Z</time>
      </trkpt>
      <trkpt lat="46.96878" lon="7.2881">
        <ele>498.5</ele>
        <time>2022-03-19T14:15:35.750Z</time>
      </trkpt>
      <trkpt lat="46.96876" lon="7.28818">
        <ele>498.19999694824</ele>
        <time>2022-03-19T14:15:37.018Z</time>
      </trkpt>
      <trkpt lat="46.96874" lon="7.28823">
        <ele>498</ele>
        <time>2022-03-19T14:15:37.888Z</time>
      </trkpt>
      <trkpt lat="46.96872" lon="7.28827">
        <ele>497.89999389648</ele>
        <time>2022-03-19T14:15:38.797Z</time>
      </trkpt>
      <trkpt lat="46.9687" lon="7.28829">
        <ele>497.69999694824</ele>
        <time>2022-03-19T14:15:39.308Z</time>
      </trkpt>
      <trkpt lat="46.96868" lon="7.28831">
        <ele>497.59999084473</ele>
        <time>2022-03-19T14:15:39.887Z</time>
      </trkpt>
      <trkpt lat="46.96866" lon="7.28831">
        <ele>497.39999389648</ele>
        <time>2022-03-19T14:15:40.308Z</time>
      </trkpt>
      <trkpt lat="46.96863" lon="7.28832">
        <ele>497.29998779297</ele>
        <time>2022-03-19T14:15:41.110Z</time>
      </trkpt>
      <trkpt lat="46.96861" lon="7.28831">
        <ele>497.09999084473</ele>
        <time>2022-03-19T14:15:41.556Z</time>
      </trkpt>
      <trkpt lat="46.96859" lon="7.28831">
        <ele>496.89999389648</ele>
        <time>2022-03-19T14:15:41.977Z</time>
      </trkpt>
      <trkpt lat="46.96857" lon="7.28829">
        <ele>496.69999694824</ele>
        <time>2022-03-19T14:15:42.488Z</time>
      </trkpt>
      <trkpt lat="46.96855" lon="7.28826">
        <ele>496.5</ele>
        <time>2022-03-19T14:15:43.091Z</time>
      </trkpt>
      <trkpt lat="46.96853" lon="7.28824">
        <ele>496.29998779297</ele>
        <time>2022-03-19T14:15:43.601Z</time>
      </trkpt>
      <trkpt lat="46.96852" lon="7.28821">
        <ele>496.09999084473</ele>
        <time>2022-03-19T14:15:44.082Z</time>
      </trkpt>
      <trkpt lat="46.9685" lon="7.28816">
        <ele>495.79998779297</ele>
        <time>2022-03-19T14:15:44.916Z</time>
      </trkpt>
      <trkpt lat="46.96843" lon="7.28776">
        <ele>493.89999389648</ele>
        <time>2022-03-19T14:15:50.856Z</time>
      </trkpt>
      <trkpt lat="46.96841" lon="7.28767">
        <ele>493.5</ele>
        <time>2022-03-19T14:15:52.150Z</time>
      </trkpt>
      <trkpt lat="46.9684" lon="7.28757">
        <ele>493</ele>
        <time>2022-03-19T14:15:53.604Z</time>
      </trkpt>
      <trkpt lat="46.96839" lon="7.28748">
        <ele>492.69999694824</ele>
        <time>2022-03-19T14:15:55.001Z</time>
      </trkpt>
      <trkpt lat="46.96838" lon="7.28739">
        <ele>492.29998779297</ele>
        <time>2022-03-19T14:15:56.225Z</time>
      </trkpt>
      <trkpt lat="46.96838" lon="7.2873">
        <ele>491.89999389648</ele>
        <time>2022-03-19T14:15:57.425Z</time>
      </trkpt>
      <trkpt lat="46.96838" lon="7.28721">
        <ele>491.5</ele>
        <time>2022-03-19T14:15:58.626Z</time>
      </trkpt>
      <trkpt lat="46.96839" lon="7.28715">
        <ele>491.29998779297</ele>
        <time>2022-03-19T14:15:59.578Z</time>
      </trkpt>
      <trkpt lat="46.96841" lon="7.287">
        <ele>490.5</ele>
        <time>2022-03-19T14:16:01.777Z</time>
      </trkpt>
      <trkpt lat="46.96843" lon="7.28692">
        <ele>490.09999084473</ele>
        <time>2022-03-19T14:16:03.003Z</time>
      </trkpt>
      <trkpt lat="46.96845" lon="7.28686">
        <ele>489.69999694824</ele>
        <time>2022-03-19T14:16:03.963Z</time>
      </trkpt>
      <trkpt lat="46.96847" lon="7.28679">
        <ele>489.39999389648</ele>
        <time>2022-03-19T14:16:05.035Z</time>
      </trkpt>
      <trkpt lat="46.9685" lon="7.28674">
        <ele>489.09999084473</ele>
        <time>2022-03-19T14:16:05.916Z</time>
      </trkpt>
      <trkpt lat="46.96852" lon="7.2867">
        <ele>488.89999389648</ele>
        <time>2022-03-19T14:16:06.610Z</time>
      </trkpt>
      <trkpt lat="46.96857" lon="7.28666">
        <ele>488.59999084473</ele>
        <time>2022-03-19T14:16:07.840Z</time>
      </trkpt>
      <trkpt lat="46.96859" lon="7.28664">
        <ele>488.39999389648</ele>
        <time>2022-03-19T14:16:08.351Z</time>
      </trkpt>
      <trkpt lat="46.96863" lon="7.28663">
        <ele>488.09999084473</ele>
        <time>2022-03-19T14:16:09.206Z</time>
      </trkpt>
      <trkpt lat="46.96879" lon="7.28661">
        <ele>487.5</ele>
        <time>2022-03-19T14:16:13.193Z</time>
      </trkpt>
      <trkpt lat="46.96883" lon="7.2866">
        <ele>487.5</ele>
        <time>2022-03-19T14:16:16.938Z</time>
      </trkpt>
      <trkpt lat="46.96886" lon="7.28658">
        <ele>487.39999389648</ele>
        <time>2022-03-19T14:16:17.817Z</time>
      </trkpt>
      <trkpt lat="46.96889" lon="7.28654">
        <ele>487.39999389648</ele>
        <time>2022-03-19T14:16:21.560Z</time>
      </trkpt>
      <trkpt lat="46.96891" lon="7.2865">
        <ele>487.39999389648</ele>
        <time>2022-03-19T14:16:24.683Z</time>
      </trkpt>
      <trkpt lat="46.96892" lon="7.28646">
        <ele>487.39999389648</ele>
        <time>2022-03-19T14:16:27.366Z</time>
      </trkpt>
      <trkpt lat="46.96893" lon="7.28643">
        <ele>487.29998779297</ele>
        <time>2022-03-19T14:16:27.898Z</time>
      </trkpt>
      <trkpt lat="46.96894" lon="7.28636">
        <ele>487.5</ele>
        <time>2022-03-19T14:16:35.110Z</time>
      </trkpt>
      <trkpt lat="46.96896" lon="7.28601">
        <ele>487.39999389648</ele>
        <time>2022-03-19T14:16:55.901Z</time>
      </trkpt>
      <trkpt lat="46.96901" lon="7.28523">
        <ele>487.39999389648</ele>
        <time>2022-03-19T14:17:45.244Z</time>
      </trkpt>
      <trkpt lat="46.96901" lon="7.28525">
        <ele>487.39999389648</ele>
        <time>2022-03-19T14:17:46.504Z</time>
      </trkpt>
      <trkpt lat="46.96902" lon="7.28525">
        <ele>487.39999389648</ele>
        <time>2022-03-19T14:17:47.427Z</time>
      </trkpt>
      <trkpt lat="46.96901" lon="7.28525">
        <ele>487.39999389648</ele>
        <time>2022-03-19T14:17:48.350Z</time>
      </trkpt>
      <trkpt lat="46.96901" lon="7.28523">
        <ele>487.39999389648</ele>
        <time>2022-03-19T14:17:49.609Z</time>
      </trkpt>
      <trkpt lat="46.96913" lon="7.28339">
        <ele>487.39999389648</ele>
        <time>2022-03-19T14:19:46.025Z</time>
      </trkpt>
      <trkpt lat="46.96914" lon="7.28326">
        <ele>487.39999389648</ele>
        <time>2022-03-19T14:19:54.264Z</time>
      </trkpt>
      <trkpt lat="46.96915" lon="7.28322">
        <ele>487.39999389648</ele>
        <time>2022-03-19T14:19:56.947Z</time>
      </trkpt>
      <trkpt lat="46.96916" lon="7.28317">
        <ele>487.39999389648</ele>
        <time>2022-03-19T14:20:00.229Z</time>
      </trkpt>
      <trkpt lat="46.96918" lon="7.28311">
        <ele>487.5</ele>
        <time>2022-03-19T14:20:05.493Z</time>
      </trkpt>
      <trkpt lat="46.96913" lon="7.28313">
        <ele>487.39999389648</ele>
        <time>2022-03-19T14:20:07.055Z</time>
      </trkpt>
      <trkpt lat="46.96908" lon="7.28315">
        <ele>487.19999694824</ele>
        <time>2022-03-19T14:20:08.326Z</time>
      </trkpt>
      <trkpt lat="46.96909" lon="7.28328">
        <ele>482</ele>
        <time>2022-03-19T14:20:10.208Z</time>
      </trkpt>
      <trkpt lat="46.96916" lon="7.28324">
        <ele>482</ele>
        <time>2022-03-19T14:20:17.143Z</time>
      </trkpt>
      <trkpt lat="46.96917" lon="7.28327">
        <ele>482</ele>
        <time>2022-03-19T14:20:19.246Z</time>
      </trkpt>
      <trkpt lat="46.96922" lon="7.28327">
        <ele>481.59999084473</ele>
        <time>2022-03-19T14:20:20.300Z</time>
      </trkpt>
      <trkpt lat="46.96926" lon="7.28327">
        <ele>480.59999084473</ele>
        <time>2022-03-19T14:20:21.143Z</time>
      </trkpt>
      <trkpt lat="46.96932" lon="7.28329">
        <ele>478.89999389648</ele>
        <time>2022-03-19T14:20:22.440Z</time>
      </trkpt>
      <trkpt lat="46.96938" lon="7.28328">
        <ele>477.5</ele>
        <time>2022-03-19T14:20:23.713Z</time>
      </trkpt>
      <trkpt lat="46.96941" lon="7.28335">
        <ele>475.29998779297</ele>
        <time>2022-03-19T14:20:24.902Z</time>
      </trkpt>
      <trkpt lat="46.96945" lon="7.28334">
        <ele>473.59999084473</ele>
        <time>2022-03-19T14:20:25.758Z</time>
      </trkpt>
      <trkpt lat="46.96947" lon="7.28342">
        <ele>470.79998779297</ele>
        <time>2022-03-19T14:20:26.984Z</time>
      </trkpt>
      <trkpt lat="46.96948" lon="7.28358">
        <ele>470.29998779297</ele>
        <time>2022-03-19T14:20:29.503Z</time>
      </trkpt>
      <trkpt lat="46.9695" lon="7.28359">
        <ele>470.5</ele>
        <time>2022-03-19T14:20:34.324Z</time>
      </trkpt>
      <trkpt lat="46.96952" lon="7.28361">
        <ele>470.39999389648</ele>
        <time>2022-03-19T14:20:34.903Z</time>
      </trkpt>
      <trkpt lat="46.96955" lon="7.28364">
        <ele>470.39999389648</ele>
        <time>2022-03-19T14:20:38.255Z</time>
      </trkpt>
      <trkpt lat="46.96959" lon="7.28372">
        <ele>470.29998779297</ele>
        <time>2022-03-19T14:20:40.409Z</time>
      </trkpt>
      <trkpt lat="46.96966" lon="7.28389">
        <ele>470</ele>
        <time>2022-03-19T14:20:44.359Z</time>
      </trkpt>
      <trkpt lat="46.96967" lon="7.28392">
        <ele>469.89999389648</ele>
        <time>2022-03-19T14:20:44.891Z</time>
      </trkpt>
      <trkpt lat="46.96969" lon="7.28395">
        <ele>469.79998779297</ele>
        <time>2022-03-19T14:20:45.619Z</time>
      </trkpt>
      <trkpt lat="46.96971" lon="7.28397">
        <ele>469.69999694824</ele>
        <time>2022-03-19T14:20:46.198Z</time>
      </trkpt>
      <trkpt lat="46.96974" lon="7.28398">
        <ele>469.59999084473</ele>
        <time>2022-03-19T14:20:46.999Z</time>
      </trkpt>
      <trkpt lat="46.96989" lon="7.28404">
        <ele>469.29998779297</ele>
        <time>2022-03-19T14:20:51.685Z</time>
      </trkpt>
      <trkpt lat="46.97001" lon="7.2841">
        <ele>469</ele>
        <time>2022-03-19T14:20:55.318Z</time>
      </trkpt>
      <trkpt lat="46.97001" lon="7.28411">
        <ele>469</ele>
        <time>2022-03-19T14:20:55.948Z</time>
      </trkpt>
    </trkseg>
  </trk>
</gpx>